<?xml version="1.0" encoding="UTF-8" standalone="no" ?>
<gpx xmlns="http://www.topografix.com/GPX/1/1" xmlns:xsi="http://www.w3.org/2001/XMLSchema-instance" xsi:schemaLocation="http://www.topografix.com/GPX/1/1 http://www.topografix.com/GPX/1/1/gpx.xsd" version="1.1" creator="VisuGPX - https://www.visugpx.com">
  <metadata>
    <name>V-14-10-19-sergy-soral</name>
    <desc><![CDATA[canton de Genève]]></desc>
  </metadata>
  <trk>
    <name><![CDATA[V-14-10-19-sergy-soral]]></name>
    <trkseg>
      <trkpt lat="46.25889" lon="5.98962">
        <ele>446.81</ele>
        <time>2014-10-19T12:53:42Z</time>
      </trkpt>
      <trkpt lat="46.25889" lon="5.98962">
        <ele>446.8</ele>
        <time>2014-10-19T12:53:44Z</time>
      </trkpt>
      <trkpt lat="46.259" lon="5.98964">
        <ele>446.75</ele>
        <time>2014-10-19T12:53:50Z</time>
      </trkpt>
      <trkpt lat="46.25907" lon="5.98983">
        <ele>446.59</ele>
        <time>2014-10-19T12:53:55Z</time>
      </trkpt>
      <trkpt lat="46.25907" lon="5.98988">
        <ele>446.57</ele>
        <time>2014-10-19T12:53:56Z</time>
      </trkpt>
      <trkpt lat="46.25905" lon="5.98992">
        <ele>446.52</ele>
        <time>2014-10-19T12:53:57Z</time>
      </trkpt>
      <trkpt lat="46.25902" lon="5.98997">
        <ele>446.47</ele>
        <time>2014-10-19T12:53:58Z</time>
      </trkpt>
      <trkpt lat="46.25899" lon="5.99002">
        <ele>446.37</ele>
        <time>2014-10-19T12:53:59Z</time>
      </trkpt>
      <trkpt lat="46.2589" lon="5.99016">
        <ele>446.39</ele>
        <time>2014-10-19T12:54:01Z</time>
      </trkpt>
      <trkpt lat="46.25886" lon="5.99023">
        <ele>446.54</ele>
        <time>2014-10-19T12:54:02Z</time>
      </trkpt>
      <trkpt lat="46.2588" lon="5.9903">
        <ele>446.89</ele>
        <time>2014-10-19T12:54:03Z</time>
      </trkpt>
      <trkpt lat="46.25865" lon="5.99054">
        <ele>450.55</ele>
        <time>2014-10-19T12:54:06Z</time>
      </trkpt>
      <trkpt lat="46.25849" lon="5.9908">
        <ele>455.17</ele>
        <time>2014-10-19T12:54:09Z</time>
      </trkpt>
      <trkpt lat="46.25834" lon="5.99103">
        <ele>459.51</ele>
        <time>2014-10-19T12:54:12Z</time>
      </trkpt>
      <trkpt lat="46.25823" lon="5.99119">
        <ele>461.75</ele>
        <time>2014-10-19T12:54:14Z</time>
      </trkpt>
      <trkpt lat="46.25816" lon="5.99126">
        <ele>462.84</ele>
        <time>2014-10-19T12:54:15Z</time>
      </trkpt>
      <trkpt lat="46.2581" lon="5.99133">
        <ele>463.84</ele>
        <time>2014-10-19T12:54:16Z</time>
      </trkpt>
      <trkpt lat="46.25781" lon="5.99157">
        <ele>466.49</ele>
        <time>2014-10-19T12:54:20Z</time>
      </trkpt>
      <trkpt lat="46.25775" lon="5.99164">
        <ele>467.26</ele>
        <time>2014-10-19T12:54:21Z</time>
      </trkpt>
      <trkpt lat="46.2577" lon="5.99173">
        <ele>467.88</ele>
        <time>2014-10-19T12:54:22Z</time>
      </trkpt>
      <trkpt lat="46.25765" lon="5.99183">
        <ele>468.4</ele>
        <time>2014-10-19T12:54:23Z</time>
      </trkpt>
      <trkpt lat="46.25761" lon="5.99194">
        <ele>468.93</ele>
        <time>2014-10-19T12:54:24Z</time>
      </trkpt>
      <trkpt lat="46.25758" lon="5.99206">
        <ele>469.35</ele>
        <time>2014-10-19T12:54:25Z</time>
      </trkpt>
      <trkpt lat="46.25747" lon="5.9924">
        <ele>470.03</ele>
        <time>2014-10-19T12:54:28Z</time>
      </trkpt>
      <trkpt lat="46.25741" lon="5.99252">
        <ele>470.54</ele>
        <time>2014-10-19T12:54:29Z</time>
      </trkpt>
      <trkpt lat="46.25709" lon="5.99306">
        <ele>472.49</ele>
        <time>2014-10-19T12:54:34Z</time>
      </trkpt>
      <trkpt lat="46.25633" lon="5.99383">
        <ele>472.13</ele>
        <time>2014-10-19T12:54:44Z</time>
      </trkpt>
      <trkpt lat="46.25616" lon="5.99398">
        <ele>471.94</ele>
        <time>2014-10-19T12:54:48Z</time>
      </trkpt>
      <trkpt lat="46.25612" lon="5.994">
        <ele>471.96</ele>
        <time>2014-10-19T12:54:49Z</time>
      </trkpt>
      <trkpt lat="46.25604" lon="5.99397">
        <ele>472.21</ele>
        <time>2014-10-19T12:54:51Z</time>
      </trkpt>
      <trkpt lat="46.256" lon="5.99394">
        <ele>472.28</ele>
        <time>2014-10-19T12:54:52Z</time>
      </trkpt>
      <trkpt lat="46.25596" lon="5.9939">
        <ele>472.46</ele>
        <time>2014-10-19T12:54:53Z</time>
      </trkpt>
      <trkpt lat="46.25575" lon="5.99379">
        <ele>473.79</ele>
        <time>2014-10-19T12:54:57Z</time>
      </trkpt>
      <trkpt lat="46.2548" lon="5.99332">
        <ele>474.37</ele>
        <time>2014-10-19T12:55:12Z</time>
      </trkpt>
      <trkpt lat="46.25448" lon="5.99297">
        <ele>474.45</ele>
        <time>2014-10-19T12:55:18Z</time>
      </trkpt>
      <trkpt lat="46.2544" lon="5.99285">
        <ele>474.58</ele>
        <time>2014-10-19T12:55:20Z</time>
      </trkpt>
      <trkpt lat="46.25435" lon="5.9928">
        <ele>474.71</ele>
        <time>2014-10-19T12:55:21Z</time>
      </trkpt>
      <trkpt lat="46.25432" lon="5.99274">
        <ele>474.78</ele>
        <time>2014-10-19T12:55:22Z</time>
      </trkpt>
      <trkpt lat="46.25428" lon="5.99269">
        <ele>474.91</ele>
        <time>2014-10-19T12:55:23Z</time>
      </trkpt>
      <trkpt lat="46.25425" lon="5.99265">
        <ele>475.16</ele>
        <time>2014-10-19T12:55:24Z</time>
      </trkpt>
      <trkpt lat="46.25421" lon="5.99262">
        <ele>475.43</ele>
        <time>2014-10-19T12:55:25Z</time>
      </trkpt>
      <trkpt lat="46.25417" lon="5.99258">
        <ele>475.77</ele>
        <time>2014-10-19T12:55:26Z</time>
      </trkpt>
      <trkpt lat="46.25414" lon="5.99254">
        <ele>476.16</ele>
        <time>2014-10-19T12:55:27Z</time>
      </trkpt>
      <trkpt lat="46.25402" lon="5.99242">
        <ele>477.01</ele>
        <time>2014-10-19T12:55:30Z</time>
      </trkpt>
      <trkpt lat="46.25398" lon="5.99238">
        <ele>477.16</ele>
        <time>2014-10-19T12:55:31Z</time>
      </trkpt>
      <trkpt lat="46.25314" lon="5.99202">
        <ele>476.92</ele>
        <time>2014-10-19T12:55:45Z</time>
      </trkpt>
      <trkpt lat="46.2523" lon="5.99161">
        <ele>479.14</ele>
        <time>2014-10-19T12:55:59Z</time>
      </trkpt>
      <trkpt lat="46.25132" lon="5.99089">
        <ele>477.66</ele>
        <time>2014-10-19T12:56:17Z</time>
      </trkpt>
      <trkpt lat="46.25102" lon="5.99065">
        <ele>477.29</ele>
        <time>2014-10-19T12:56:22Z</time>
      </trkpt>
      <trkpt lat="46.25095" lon="5.99061">
        <ele>477.14</ele>
        <time>2014-10-19T12:56:23Z</time>
      </trkpt>
      <trkpt lat="46.24991" lon="5.99019">
        <ele>474.73</ele>
        <time>2014-10-19T12:56:38Z</time>
      </trkpt>
      <trkpt lat="46.24877" lon="5.98992">
        <ele>474.12</ele>
        <time>2014-10-19T12:56:55Z</time>
      </trkpt>
      <trkpt lat="46.24814" lon="5.98961">
        <ele>475.77</ele>
        <time>2014-10-19T12:57:07Z</time>
      </trkpt>
      <trkpt lat="46.24784" lon="5.98956">
        <ele>476.83</ele>
        <time>2014-10-19T12:57:13Z</time>
      </trkpt>
      <trkpt lat="46.24779" lon="5.98957">
        <ele>476.83</ele>
        <time>2014-10-19T12:57:14Z</time>
      </trkpt>
      <trkpt lat="46.24775" lon="5.9896">
        <ele>476.83</ele>
        <time>2014-10-19T12:57:15Z</time>
      </trkpt>
      <trkpt lat="46.24771" lon="5.98963">
        <ele>476.66</ele>
        <time>2014-10-19T12:57:16Z</time>
      </trkpt>
      <trkpt lat="46.24767" lon="5.98967">
        <ele>476.37</ele>
        <time>2014-10-19T12:57:17Z</time>
      </trkpt>
      <trkpt lat="46.24763" lon="5.98969">
        <ele>475.93</ele>
        <time>2014-10-19T12:57:18Z</time>
      </trkpt>
      <trkpt lat="46.24754" lon="5.98967">
        <ele>475.25</ele>
        <time>2014-10-19T12:57:20Z</time>
      </trkpt>
      <trkpt lat="46.24751" lon="5.98962">
        <ele>474.99</ele>
        <time>2014-10-19T12:57:21Z</time>
      </trkpt>
      <trkpt lat="46.24748" lon="5.98956">
        <ele>474.65</ele>
        <time>2014-10-19T12:57:22Z</time>
      </trkpt>
      <trkpt lat="46.2474" lon="5.98945">
        <ele>474.11</ele>
        <time>2014-10-19T12:57:24Z</time>
      </trkpt>
      <trkpt lat="46.24731" lon="5.98935">
        <ele>473.91</ele>
        <time>2014-10-19T12:57:26Z</time>
      </trkpt>
      <trkpt lat="46.24726" lon="5.98931">
        <ele>473.92</ele>
        <time>2014-10-19T12:57:27Z</time>
      </trkpt>
      <trkpt lat="46.24688" lon="5.98893">
        <ele>472.82</ele>
        <time>2014-10-19T12:57:34Z</time>
      </trkpt>
      <trkpt lat="46.24596" lon="5.98774">
        <ele>471.74</ele>
        <time>2014-10-19T12:57:53Z</time>
      </trkpt>
      <trkpt lat="46.24531" lon="5.98696">
        <ele>473.9</ele>
        <time>2014-10-19T12:58:08Z</time>
      </trkpt>
      <trkpt lat="46.24528" lon="5.9869">
        <ele>474.22</ele>
        <time>2014-10-19T12:58:09Z</time>
      </trkpt>
      <trkpt lat="46.24501" lon="5.98628">
        <ele>476.95</ele>
        <time>2014-10-19T12:58:21Z</time>
      </trkpt>
      <trkpt lat="46.24499" lon="5.98622">
        <ele>477.48</ele>
        <time>2014-10-19T12:58:22Z</time>
      </trkpt>
      <trkpt lat="46.24496" lon="5.98566">
        <ele>480.53</ele>
        <time>2014-10-19T12:58:32Z</time>
      </trkpt>
      <trkpt lat="46.24496" lon="5.98555">
        <ele>480.96</ele>
        <time>2014-10-19T12:58:34Z</time>
      </trkpt>
      <trkpt lat="46.24496" lon="5.9855">
        <ele>481.23</ele>
        <time>2014-10-19T12:58:35Z</time>
      </trkpt>
      <trkpt lat="46.24488" lon="5.9849">
        <ele>484.43</ele>
        <time>2014-10-19T12:58:47Z</time>
      </trkpt>
      <trkpt lat="46.24475" lon="5.98462">
        <ele>486.06</ele>
        <time>2014-10-19T12:58:53Z</time>
      </trkpt>
      <trkpt lat="46.24472" lon="5.98458">
        <ele>486.13</ele>
        <time>2014-10-19T12:58:54Z</time>
      </trkpt>
      <trkpt lat="46.24468" lon="5.98453">
        <ele>486.11</ele>
        <time>2014-10-19T12:58:55Z</time>
      </trkpt>
      <trkpt lat="46.24466" lon="5.98447">
        <ele>486.11</ele>
        <time>2014-10-19T12:58:56Z</time>
      </trkpt>
      <trkpt lat="46.24463" lon="5.9844">
        <ele>486.03</ele>
        <time>2014-10-19T12:58:57Z</time>
      </trkpt>
      <trkpt lat="46.2446" lon="5.98432">
        <ele>485.93</ele>
        <time>2014-10-19T12:58:58Z</time>
      </trkpt>
      <trkpt lat="46.24458" lon="5.98424">
        <ele>485.79</ele>
        <time>2014-10-19T12:58:59Z</time>
      </trkpt>
      <trkpt lat="46.24457" lon="5.98416">
        <ele>485.56</ele>
        <time>2014-10-19T12:59:00Z</time>
      </trkpt>
      <trkpt lat="46.24455" lon="5.98407">
        <ele>485.28</ele>
        <time>2014-10-19T12:59:01Z</time>
      </trkpt>
      <trkpt lat="46.24454" lon="5.98398">
        <ele>485.01</ele>
        <time>2014-10-19T12:59:02Z</time>
      </trkpt>
      <trkpt lat="46.24449" lon="5.98381">
        <ele>484.44</ele>
        <time>2014-10-19T12:59:04Z</time>
      </trkpt>
      <trkpt lat="46.24446" lon="5.98373">
        <ele>484.19</ele>
        <time>2014-10-19T12:59:05Z</time>
      </trkpt>
      <trkpt lat="46.2443" lon="5.98347">
        <ele>483.74</ele>
        <time>2014-10-19T12:59:09Z</time>
      </trkpt>
      <trkpt lat="46.24425" lon="5.98343">
        <ele>483.73</ele>
        <time>2014-10-19T12:59:10Z</time>
      </trkpt>
      <trkpt lat="46.24356" lon="5.98314">
        <ele>484.02</ele>
        <time>2014-10-19T12:59:24Z</time>
      </trkpt>
      <trkpt lat="46.24268" lon="5.98285">
        <ele>484.01</ele>
        <time>2014-10-19T12:59:40Z</time>
      </trkpt>
      <trkpt lat="46.24165" lon="5.98235">
        <ele>484.53</ele>
        <time>2014-10-19T12:59:59Z</time>
      </trkpt>
      <trkpt lat="46.24082" lon="5.98191">
        <ele>484.72</ele>
        <time>2014-10-19T13:00:14Z</time>
      </trkpt>
      <trkpt lat="46.24067" lon="5.98181">
        <ele>484.79</ele>
        <time>2014-10-19T13:00:17Z</time>
      </trkpt>
      <trkpt lat="46.24053" lon="5.9817">
        <ele>485.14</ele>
        <time>2014-10-19T13:00:20Z</time>
      </trkpt>
      <trkpt lat="46.24049" lon="5.98166">
        <ele>485.22</ele>
        <time>2014-10-19T13:00:21Z</time>
      </trkpt>
      <trkpt lat="46.24036" lon="5.98151">
        <ele>485.27</ele>
        <time>2014-10-19T13:00:24Z</time>
      </trkpt>
      <trkpt lat="46.24032" lon="5.98146">
        <ele>485.27</ele>
        <time>2014-10-19T13:00:25Z</time>
      </trkpt>
      <trkpt lat="46.23959" lon="5.98034">
        <ele>482.08</ele>
        <time>2014-10-19T13:00:40Z</time>
      </trkpt>
      <trkpt lat="46.23946" lon="5.98021">
        <ele>481.24</ele>
        <time>2014-10-19T13:00:42Z</time>
      </trkpt>
      <trkpt lat="46.23932" lon="5.98015">
        <ele>480.74</ele>
        <time>2014-10-19T13:00:44Z</time>
      </trkpt>
      <trkpt lat="46.23926" lon="5.98014">
        <ele>480.7</ele>
        <time>2014-10-19T13:00:45Z</time>
      </trkpt>
      <trkpt lat="46.2392" lon="5.98014">
        <ele>480.63</ele>
        <time>2014-10-19T13:00:46Z</time>
      </trkpt>
      <trkpt lat="46.23906" lon="5.98017">
        <ele>480.43</ele>
        <time>2014-10-19T13:00:48Z</time>
      </trkpt>
      <trkpt lat="46.239" lon="5.9802">
        <ele>480.34</ele>
        <time>2014-10-19T13:00:49Z</time>
      </trkpt>
      <trkpt lat="46.23893" lon="5.98025">
        <ele>480.24</ele>
        <time>2014-10-19T13:00:50Z</time>
      </trkpt>
      <trkpt lat="46.23829" lon="5.98089">
        <ele>477.28</ele>
        <time>2014-10-19T13:01:00Z</time>
      </trkpt>
      <trkpt lat="46.23808" lon="5.98115">
        <ele>477.16</ele>
        <time>2014-10-19T13:01:04Z</time>
      </trkpt>
      <trkpt lat="46.23802" lon="5.98118">
        <ele>477.28</ele>
        <time>2014-10-19T13:01:05Z</time>
      </trkpt>
      <trkpt lat="46.23797" lon="5.98119">
        <ele>477.35</ele>
        <time>2014-10-19T13:01:06Z</time>
      </trkpt>
      <trkpt lat="46.23791" lon="5.9812">
        <ele>477.39</ele>
        <time>2014-10-19T13:01:07Z</time>
      </trkpt>
      <trkpt lat="46.23786" lon="5.9812">
        <ele>477.51</ele>
        <time>2014-10-19T13:01:08Z</time>
      </trkpt>
      <trkpt lat="46.23781" lon="5.98119">
        <ele>477.71</ele>
        <time>2014-10-19T13:01:09Z</time>
      </trkpt>
      <trkpt lat="46.23776" lon="5.98118">
        <ele>477.93</ele>
        <time>2014-10-19T13:01:10Z</time>
      </trkpt>
      <trkpt lat="46.23771" lon="5.98116">
        <ele>478.08</ele>
        <time>2014-10-19T13:01:11Z</time>
      </trkpt>
      <trkpt lat="46.23767" lon="5.98116">
        <ele>478.33</ele>
        <time>2014-10-19T13:01:12Z</time>
      </trkpt>
      <trkpt lat="46.23756" lon="5.98114">
        <ele>478.53</ele>
        <time>2014-10-19T13:01:14Z</time>
      </trkpt>
      <trkpt lat="46.23751" lon="5.98112">
        <ele>478.53</ele>
        <time>2014-10-19T13:01:15Z</time>
      </trkpt>
      <trkpt lat="46.23727" lon="5.98099">
        <ele>478.06</ele>
        <time>2014-10-19T13:01:19Z</time>
      </trkpt>
      <trkpt lat="46.23697" lon="5.98074">
        <ele>477.78</ele>
        <time>2014-10-19T13:01:24Z</time>
      </trkpt>
      <trkpt lat="46.23691" lon="5.98069">
        <ele>477.33</ele>
        <time>2014-10-19T13:01:25Z</time>
      </trkpt>
      <trkpt lat="46.23684" lon="5.98065">
        <ele>476.82</ele>
        <time>2014-10-19T13:01:26Z</time>
      </trkpt>
      <trkpt lat="46.23677" lon="5.98061">
        <ele>476.47</ele>
        <time>2014-10-19T13:01:27Z</time>
      </trkpt>
      <trkpt lat="46.2367" lon="5.98057">
        <ele>476.18</ele>
        <time>2014-10-19T13:01:28Z</time>
      </trkpt>
      <trkpt lat="46.23663" lon="5.98052">
        <ele>475.91</ele>
        <time>2014-10-19T13:01:29Z</time>
      </trkpt>
      <trkpt lat="46.236" lon="5.9801">
        <ele>473.32</ele>
        <time>2014-10-19T13:01:38Z</time>
      </trkpt>
      <trkpt lat="46.23593" lon="5.98005">
        <ele>472.95</ele>
        <time>2014-10-19T13:01:39Z</time>
      </trkpt>
      <trkpt lat="46.23505" lon="5.97952">
        <ele>472.46</ele>
        <time>2014-10-19T13:01:53Z</time>
      </trkpt>
      <trkpt lat="46.23499" lon="5.9795">
        <ele>472.39</ele>
        <time>2014-10-19T13:01:54Z</time>
      </trkpt>
      <trkpt lat="46.2342" lon="5.97924">
        <ele>473.37</ele>
        <time>2014-10-19T13:02:08Z</time>
      </trkpt>
      <trkpt lat="46.23332" lon="5.97861">
        <ele>470.79</ele>
        <time>2014-10-19T13:02:22Z</time>
      </trkpt>
      <trkpt lat="46.23303" lon="5.97839">
        <ele>470.54</ele>
        <time>2014-10-19T13:02:27Z</time>
      </trkpt>
      <trkpt lat="46.23295" lon="5.97825">
        <ele>470.49</ele>
        <time>2014-10-19T13:02:29Z</time>
      </trkpt>
      <trkpt lat="46.23291" lon="5.97818">
        <ele>470.5</ele>
        <time>2014-10-19T13:02:30Z</time>
      </trkpt>
      <trkpt lat="46.23289" lon="5.97809">
        <ele>470.5</ele>
        <time>2014-10-19T13:02:31Z</time>
      </trkpt>
      <trkpt lat="46.23287" lon="5.97801">
        <ele>470.54</ele>
        <time>2014-10-19T13:02:32Z</time>
      </trkpt>
      <trkpt lat="46.23286" lon="5.97793">
        <ele>470.67</ele>
        <time>2014-10-19T13:02:33Z</time>
      </trkpt>
      <trkpt lat="46.23285" lon="5.97784">
        <ele>470.97</ele>
        <time>2014-10-19T13:02:34Z</time>
      </trkpt>
      <trkpt lat="46.23286" lon="5.97766">
        <ele>471.51</ele>
        <time>2014-10-19T13:02:36Z</time>
      </trkpt>
      <trkpt lat="46.23286" lon="5.97718">
        <ele>472.45</ele>
        <time>2014-10-19T13:02:42Z</time>
      </trkpt>
      <trkpt lat="46.23285" lon="5.97711">
        <ele>472.45</ele>
        <time>2014-10-19T13:02:43Z</time>
      </trkpt>
      <trkpt lat="46.23282" lon="5.97698">
        <ele>473.13</ele>
        <time>2014-10-19T13:02:45Z</time>
      </trkpt>
      <trkpt lat="46.23279" lon="5.97692">
        <ele>473.37</ele>
        <time>2014-10-19T13:02:46Z</time>
      </trkpt>
      <trkpt lat="46.23277" lon="5.97686">
        <ele>473.64</ele>
        <time>2014-10-19T13:02:47Z</time>
      </trkpt>
      <trkpt lat="46.23271" lon="5.97675">
        <ele>474.3</ele>
        <time>2014-10-19T13:02:49Z</time>
      </trkpt>
      <trkpt lat="46.23244" lon="5.97637">
        <ele>476.07</ele>
        <time>2014-10-19T13:02:57Z</time>
      </trkpt>
      <trkpt lat="46.2317" lon="5.97552">
        <ele>477.2</ele>
        <time>2014-10-19T13:03:15Z</time>
      </trkpt>
      <trkpt lat="46.23101" lon="5.97478">
        <ele>478.17</ele>
        <time>2014-10-19T13:03:31Z</time>
      </trkpt>
      <trkpt lat="46.23017" lon="5.97371">
        <ele>478.44</ele>
        <time>2014-10-19T13:03:51Z</time>
      </trkpt>
      <trkpt lat="46.22973" lon="5.9731">
        <ele>478.53</ele>
        <time>2014-10-19T13:04:02Z</time>
      </trkpt>
      <trkpt lat="46.22963" lon="5.97301">
        <ele>478.56</ele>
        <time>2014-10-19T13:04:04Z</time>
      </trkpt>
      <trkpt lat="46.22958" lon="5.97297">
        <ele>478.61</ele>
        <time>2014-10-19T13:04:05Z</time>
      </trkpt>
      <trkpt lat="46.2288" lon="5.97255">
        <ele>479.4</ele>
        <time>2014-10-19T13:04:20Z</time>
      </trkpt>
      <trkpt lat="46.22808" lon="5.9718">
        <ele>481.85</ele>
        <time>2014-10-19T13:04:37Z</time>
      </trkpt>
      <trkpt lat="46.22756" lon="5.97118">
        <ele>483.94</ele>
        <time>2014-10-19T13:04:51Z</time>
      </trkpt>
      <trkpt lat="46.22738" lon="5.97102">
        <ele>484.87</ele>
        <time>2014-10-19T13:04:56Z</time>
      </trkpt>
      <trkpt lat="46.22735" lon="5.97098">
        <ele>485.09</ele>
        <time>2014-10-19T13:04:57Z</time>
      </trkpt>
      <trkpt lat="46.22704" lon="5.97068">
        <ele>486.92</ele>
        <time>2014-10-19T13:05:07Z</time>
      </trkpt>
      <trkpt lat="46.22701" lon="5.97066">
        <ele>487.12</ele>
        <time>2014-10-19T13:05:08Z</time>
      </trkpt>
      <trkpt lat="46.22697" lon="5.97063">
        <ele>487.23</ele>
        <time>2014-10-19T13:05:09Z</time>
      </trkpt>
      <trkpt lat="46.22688" lon="5.97056">
        <ele>487.19</ele>
        <time>2014-10-19T13:05:11Z</time>
      </trkpt>
      <trkpt lat="46.22684" lon="5.97052">
        <ele>487.23</ele>
        <time>2014-10-19T13:05:12Z</time>
      </trkpt>
      <trkpt lat="46.2268" lon="5.97047">
        <ele>487.24</ele>
        <time>2014-10-19T13:05:13Z</time>
      </trkpt>
      <trkpt lat="46.22613" lon="5.96972">
        <ele>486.89</ele>
        <time>2014-10-19T13:05:29Z</time>
      </trkpt>
      <trkpt lat="46.22609" lon="5.96967">
        <ele>487.05</ele>
        <time>2014-10-19T13:05:30Z</time>
      </trkpt>
      <trkpt lat="46.22539" lon="5.96905">
        <ele>488.17</ele>
        <time>2014-10-19T13:05:46Z</time>
      </trkpt>
      <trkpt lat="46.22535" lon="5.96902">
        <ele>488.3</ele>
        <time>2014-10-19T13:05:47Z</time>
      </trkpt>
      <trkpt lat="46.2253" lon="5.96899">
        <ele>488.37</ele>
        <time>2014-10-19T13:05:48Z</time>
      </trkpt>
      <trkpt lat="46.22525" lon="5.96896">
        <ele>488.41</ele>
        <time>2014-10-19T13:05:49Z</time>
      </trkpt>
      <trkpt lat="46.22475" lon="5.96861">
        <ele>490.21</ele>
        <time>2014-10-19T13:06:00Z</time>
      </trkpt>
      <trkpt lat="46.22471" lon="5.96858">
        <ele>490.38</ele>
        <time>2014-10-19T13:06:01Z</time>
      </trkpt>
      <trkpt lat="46.22435" lon="5.96829">
        <ele>491.33</ele>
        <time>2014-10-19T13:06:09Z</time>
      </trkpt>
      <trkpt lat="46.22428" lon="5.96822">
        <ele>491.26</ele>
        <time>2014-10-19T13:06:11Z</time>
      </trkpt>
      <trkpt lat="46.22415" lon="5.96802">
        <ele>491.84</ele>
        <time>2014-10-19T13:06:15Z</time>
      </trkpt>
      <trkpt lat="46.22398" lon="5.96779">
        <ele>492.92</ele>
        <time>2014-10-19T13:06:20Z</time>
      </trkpt>
      <trkpt lat="46.22359" lon="5.96737">
        <ele>494.52</ele>
        <time>2014-10-19T13:06:32Z</time>
      </trkpt>
      <trkpt lat="46.22357" lon="5.96734">
        <ele>494.75</ele>
        <time>2014-10-19T13:06:33Z</time>
      </trkpt>
      <trkpt lat="46.22355" lon="5.96731">
        <ele>494.98</ele>
        <time>2014-10-19T13:06:34Z</time>
      </trkpt>
      <trkpt lat="46.22352" lon="5.96727">
        <ele>495.25</ele>
        <time>2014-10-19T13:06:35Z</time>
      </trkpt>
      <trkpt lat="46.2235" lon="5.96724">
        <ele>495.55</ele>
        <time>2014-10-19T13:06:36Z</time>
      </trkpt>
      <trkpt lat="46.22347" lon="5.9672">
        <ele>495.83</ele>
        <time>2014-10-19T13:06:37Z</time>
      </trkpt>
      <trkpt lat="46.22341" lon="5.96712">
        <ele>496.04</ele>
        <time>2014-10-19T13:06:39Z</time>
      </trkpt>
      <trkpt lat="46.22338" lon="5.96707">
        <ele>495.99</ele>
        <time>2014-10-19T13:06:40Z</time>
      </trkpt>
      <trkpt lat="46.22334" lon="5.96702">
        <ele>495.93</ele>
        <time>2014-10-19T13:06:41Z</time>
      </trkpt>
      <trkpt lat="46.2233" lon="5.96696">
        <ele>495.91</ele>
        <time>2014-10-19T13:06:42Z</time>
      </trkpt>
      <trkpt lat="46.22325" lon="5.96691">
        <ele>495.91</ele>
        <time>2014-10-19T13:06:43Z</time>
      </trkpt>
      <trkpt lat="46.22322" lon="5.96685">
        <ele>495.91</ele>
        <time>2014-10-19T13:06:44Z</time>
      </trkpt>
      <trkpt lat="46.22298" lon="5.96653">
        <ele>495.81</ele>
        <time>2014-10-19T13:06:50Z</time>
      </trkpt>
      <trkpt lat="46.22263" lon="5.96618">
        <ele>496.51</ele>
        <time>2014-10-19T13:06:59Z</time>
      </trkpt>
      <trkpt lat="46.22259" lon="5.96615">
        <ele>496.6</ele>
        <time>2014-10-19T13:07:00Z</time>
      </trkpt>
      <trkpt lat="46.22256" lon="5.96612">
        <ele>496.65</ele>
        <time>2014-10-19T13:07:01Z</time>
      </trkpt>
      <trkpt lat="46.22253" lon="5.96609">
        <ele>496.74</ele>
        <time>2014-10-19T13:07:02Z</time>
      </trkpt>
      <trkpt lat="46.22249" lon="5.96606">
        <ele>496.79</ele>
        <time>2014-10-19T13:07:03Z</time>
      </trkpt>
      <trkpt lat="46.22246" lon="5.96603">
        <ele>497.01</ele>
        <time>2014-10-19T13:07:04Z</time>
      </trkpt>
      <trkpt lat="46.22242" lon="5.96601">
        <ele>497.01</ele>
        <time>2014-10-19T13:07:05Z</time>
      </trkpt>
      <trkpt lat="46.22234" lon="5.96596">
        <ele>497.51</ele>
        <time>2014-10-19T13:07:07Z</time>
      </trkpt>
      <trkpt lat="46.22221" lon="5.96588">
        <ele>498.17</ele>
        <time>2014-10-19T13:07:10Z</time>
      </trkpt>
      <trkpt lat="46.22216" lon="5.96586">
        <ele>498.23</ele>
        <time>2014-10-19T13:07:11Z</time>
      </trkpt>
      <trkpt lat="46.22141" lon="5.96533">
        <ele>496.77</ele>
        <time>2014-10-19T13:07:26Z</time>
      </trkpt>
      <trkpt lat="46.22053" lon="5.96441">
        <ele>496.28</ele>
        <time>2014-10-19T13:07:45Z</time>
      </trkpt>
      <trkpt lat="46.22048" lon="5.96436">
        <ele>496.15</ele>
        <time>2014-10-19T13:07:46Z</time>
      </trkpt>
      <trkpt lat="46.22044" lon="5.96431">
        <ele>495.95</ele>
        <time>2014-10-19T13:07:47Z</time>
      </trkpt>
      <trkpt lat="46.21997" lon="5.96372">
        <ele>495.05</ele>
        <time>2014-10-19T13:07:57Z</time>
      </trkpt>
      <trkpt lat="46.21993" lon="5.96366">
        <ele>495.07</ele>
        <time>2014-10-19T13:07:58Z</time>
      </trkpt>
      <trkpt lat="46.21983" lon="5.96355">
        <ele>494.98</ele>
        <time>2014-10-19T13:08:00Z</time>
      </trkpt>
      <trkpt lat="46.21978" lon="5.96351">
        <ele>495</ele>
        <time>2014-10-19T13:08:01Z</time>
      </trkpt>
      <trkpt lat="46.21899" lon="5.96281">
        <ele>493.72</ele>
        <time>2014-10-19T13:08:16Z</time>
      </trkpt>
      <trkpt lat="46.21839" lon="5.96203">
        <ele>494.03</ele>
        <time>2014-10-19T13:08:29Z</time>
      </trkpt>
      <trkpt lat="46.21834" lon="5.96197">
        <ele>493.92</ele>
        <time>2014-10-19T13:08:30Z</time>
      </trkpt>
      <trkpt lat="46.21746" lon="5.96114">
        <ele>492.46</ele>
        <time>2014-10-19T13:08:46Z</time>
      </trkpt>
      <trkpt lat="46.21667" lon="5.96029">
        <ele>491.05</ele>
        <time>2014-10-19T13:09:00Z</time>
      </trkpt>
      <trkpt lat="46.21655" lon="5.96018">
        <ele>490.8</ele>
        <time>2014-10-19T13:09:02Z</time>
      </trkpt>
      <trkpt lat="46.21567" lon="5.95898">
        <ele>489.39</ele>
        <time>2014-10-19T13:09:19Z</time>
      </trkpt>
      <trkpt lat="46.21508" lon="5.9583">
        <ele>488.42</ele>
        <time>2014-10-19T13:09:30Z</time>
      </trkpt>
      <trkpt lat="46.21501" lon="5.95826">
        <ele>488.42</ele>
        <time>2014-10-19T13:09:31Z</time>
      </trkpt>
      <trkpt lat="46.21489" lon="5.95821">
        <ele>488.36</ele>
        <time>2014-10-19T13:09:33Z</time>
      </trkpt>
      <trkpt lat="46.21482" lon="5.9582">
        <ele>488.34</ele>
        <time>2014-10-19T13:09:34Z</time>
      </trkpt>
      <trkpt lat="46.21393" lon="5.95811">
        <ele>488.91</ele>
        <time>2014-10-19T13:09:48Z</time>
      </trkpt>
      <trkpt lat="46.21387" lon="5.95807">
        <ele>488.91</ele>
        <time>2014-10-19T13:09:49Z</time>
      </trkpt>
      <trkpt lat="46.21382" lon="5.95802">
        <ele>488.88</ele>
        <time>2014-10-19T13:09:50Z</time>
      </trkpt>
      <trkpt lat="46.21377" lon="5.95797">
        <ele>488.86</ele>
        <time>2014-10-19T13:09:51Z</time>
      </trkpt>
      <trkpt lat="46.21373" lon="5.95791">
        <ele>488.92</ele>
        <time>2014-10-19T13:09:52Z</time>
      </trkpt>
      <trkpt lat="46.21277" lon="5.95681">
        <ele>489.78</ele>
        <time>2014-10-19T13:10:13Z</time>
      </trkpt>
      <trkpt lat="46.21203" lon="5.95601">
        <ele>491.09</ele>
        <time>2014-10-19T13:10:30Z</time>
      </trkpt>
      <trkpt lat="46.2119" lon="5.95587">
        <ele>490.87</ele>
        <time>2014-10-19T13:10:33Z</time>
      </trkpt>
      <trkpt lat="46.21134" lon="5.95501">
        <ele>491.75</ele>
        <time>2014-10-19T13:10:50Z</time>
      </trkpt>
      <trkpt lat="46.2113" lon="5.95497">
        <ele>491.73</ele>
        <time>2014-10-19T13:10:52Z</time>
      </trkpt>
      <trkpt lat="46.21128" lon="5.95496">
        <ele>491.59</ele>
        <time>2014-10-19T13:10:53Z</time>
      </trkpt>
      <trkpt lat="46.21125" lon="5.95497">
        <ele>491.59</ele>
        <time>2014-10-19T13:10:54Z</time>
      </trkpt>
      <trkpt lat="46.21122" lon="5.955">
        <ele>491.4</ele>
        <time>2014-10-19T13:10:55Z</time>
      </trkpt>
      <trkpt lat="46.21119" lon="5.95503">
        <ele>491.27</ele>
        <time>2014-10-19T13:10:56Z</time>
      </trkpt>
      <trkpt lat="46.21116" lon="5.95508">
        <ele>491.22</ele>
        <time>2014-10-19T13:10:57Z</time>
      </trkpt>
      <trkpt lat="46.21113" lon="5.95512">
        <ele>491.19</ele>
        <time>2014-10-19T13:10:58Z</time>
      </trkpt>
      <trkpt lat="46.2111" lon="5.95517">
        <ele>491.17</ele>
        <time>2014-10-19T13:10:59Z</time>
      </trkpt>
      <trkpt lat="46.21108" lon="5.95522">
        <ele>491.17</ele>
        <time>2014-10-19T13:11:00Z</time>
      </trkpt>
      <trkpt lat="46.21105" lon="5.95527">
        <ele>491.17</ele>
        <time>2014-10-19T13:11:01Z</time>
      </trkpt>
      <trkpt lat="46.21102" lon="5.95533">
        <ele>491.13</ele>
        <time>2014-10-19T13:11:02Z</time>
      </trkpt>
      <trkpt lat="46.21096" lon="5.95545">
        <ele>490.85</ele>
        <time>2014-10-19T13:11:04Z</time>
      </trkpt>
      <trkpt lat="46.21092" lon="5.9555">
        <ele>490.56</ele>
        <time>2014-10-19T13:11:05Z</time>
      </trkpt>
      <trkpt lat="46.21087" lon="5.95552">
        <ele>490.42</ele>
        <time>2014-10-19T13:11:06Z</time>
      </trkpt>
      <trkpt lat="46.21081" lon="5.95552">
        <ele>490.12</ele>
        <time>2014-10-19T13:11:07Z</time>
      </trkpt>
      <trkpt lat="46.21075" lon="5.95551">
        <ele>489.91</ele>
        <time>2014-10-19T13:11:08Z</time>
      </trkpt>
      <trkpt lat="46.2107" lon="5.95548">
        <ele>489.65</ele>
        <time>2014-10-19T13:11:09Z</time>
      </trkpt>
      <trkpt lat="46.21065" lon="5.95544">
        <ele>489.52</ele>
        <time>2014-10-19T13:11:10Z</time>
      </trkpt>
      <trkpt lat="46.2102" lon="5.955">
        <ele>488.65</ele>
        <time>2014-10-19T13:11:19Z</time>
      </trkpt>
      <trkpt lat="46.21015" lon="5.95495">
        <ele>488.66</ele>
        <time>2014-10-19T13:11:20Z</time>
      </trkpt>
      <trkpt lat="46.20944" lon="5.95447">
        <ele>489.04</ele>
        <time>2014-10-19T13:11:33Z</time>
      </trkpt>
      <trkpt lat="46.20885" lon="5.9543">
        <ele>489.32</ele>
        <time>2014-10-19T13:11:44Z</time>
      </trkpt>
      <trkpt lat="46.2088" lon="5.95427">
        <ele>489.26</ele>
        <time>2014-10-19T13:11:45Z</time>
      </trkpt>
      <trkpt lat="46.20865" lon="5.95418">
        <ele>489.09</ele>
        <time>2014-10-19T13:11:48Z</time>
      </trkpt>
      <trkpt lat="46.20793" lon="5.95346">
        <ele>488.14</ele>
        <time>2014-10-19T13:12:03Z</time>
      </trkpt>
      <trkpt lat="46.20784" lon="5.9534">
        <ele>488.08</ele>
        <time>2014-10-19T13:12:05Z</time>
      </trkpt>
      <trkpt lat="46.20779" lon="5.95338">
        <ele>488.06</ele>
        <time>2014-10-19T13:12:06Z</time>
      </trkpt>
      <trkpt lat="46.20761" lon="5.95336">
        <ele>487.76</ele>
        <time>2014-10-19T13:12:09Z</time>
      </trkpt>
      <trkpt lat="46.2075" lon="5.95337">
        <ele>487.39</ele>
        <time>2014-10-19T13:12:11Z</time>
      </trkpt>
      <trkpt lat="46.20739" lon="5.95337">
        <ele>487.34</ele>
        <time>2014-10-19T13:12:13Z</time>
      </trkpt>
      <trkpt lat="46.20734" lon="5.95335">
        <ele>487.31</ele>
        <time>2014-10-19T13:12:14Z</time>
      </trkpt>
      <trkpt lat="46.20729" lon="5.95332">
        <ele>487.29</ele>
        <time>2014-10-19T13:12:15Z</time>
      </trkpt>
      <trkpt lat="46.20719" lon="5.95325">
        <ele>487.44</ele>
        <time>2014-10-19T13:12:17Z</time>
      </trkpt>
      <trkpt lat="46.20714" lon="5.95321">
        <ele>487.65</ele>
        <time>2014-10-19T13:12:18Z</time>
      </trkpt>
      <trkpt lat="46.20709" lon="5.95317">
        <ele>487.9</ele>
        <time>2014-10-19T13:12:19Z</time>
      </trkpt>
      <trkpt lat="46.20685" lon="5.95298">
        <ele>488.35</ele>
        <time>2014-10-19T13:12:24Z</time>
      </trkpt>
      <trkpt lat="46.2068" lon="5.95296">
        <ele>488.52</ele>
        <time>2014-10-19T13:12:25Z</time>
      </trkpt>
      <trkpt lat="46.20675" lon="5.95295">
        <ele>488.66</ele>
        <time>2014-10-19T13:12:26Z</time>
      </trkpt>
      <trkpt lat="46.2067" lon="5.95296">
        <ele>488.74</ele>
        <time>2014-10-19T13:12:27Z</time>
      </trkpt>
      <trkpt lat="46.20665" lon="5.95298">
        <ele>488.9</ele>
        <time>2014-10-19T13:12:28Z</time>
      </trkpt>
      <trkpt lat="46.20655" lon="5.95305">
        <ele>488.95</ele>
        <time>2014-10-19T13:12:30Z</time>
      </trkpt>
      <trkpt lat="46.20647" lon="5.95317">
        <ele>488.98</ele>
        <time>2014-10-19T13:12:32Z</time>
      </trkpt>
      <trkpt lat="46.20644" lon="5.95325">
        <ele>488.88</ele>
        <time>2014-10-19T13:12:33Z</time>
      </trkpt>
      <trkpt lat="46.20641" lon="5.95333">
        <ele>488.76</ele>
        <time>2014-10-19T13:12:34Z</time>
      </trkpt>
      <trkpt lat="46.2063" lon="5.9537">
        <ele>488.11</ele>
        <time>2014-10-19T13:12:38Z</time>
      </trkpt>
      <trkpt lat="46.20613" lon="5.9542">
        <ele>486.54</ele>
        <time>2014-10-19T13:12:44Z</time>
      </trkpt>
      <trkpt lat="46.20604" lon="5.95431">
        <ele>486.13</ele>
        <time>2014-10-19T13:12:46Z</time>
      </trkpt>
      <trkpt lat="46.20599" lon="5.95434">
        <ele>485.99</ele>
        <time>2014-10-19T13:12:47Z</time>
      </trkpt>
      <trkpt lat="46.20593" lon="5.95435">
        <ele>485.86</ele>
        <time>2014-10-19T13:12:48Z</time>
      </trkpt>
      <trkpt lat="46.20587" lon="5.95434">
        <ele>485.69</ele>
        <time>2014-10-19T13:12:49Z</time>
      </trkpt>
      <trkpt lat="46.20581" lon="5.95433">
        <ele>485.27</ele>
        <time>2014-10-19T13:12:50Z</time>
      </trkpt>
      <trkpt lat="46.20568" lon="5.95432">
        <ele>484.65</ele>
        <time>2014-10-19T13:12:52Z</time>
      </trkpt>
      <trkpt lat="46.20561" lon="5.95433">
        <ele>484.29</ele>
        <time>2014-10-19T13:12:53Z</time>
      </trkpt>
      <trkpt lat="46.20467" lon="5.95482">
        <ele>481.68</ele>
        <time>2014-10-19T13:13:08Z</time>
      </trkpt>
      <trkpt lat="46.2046" lon="5.95485">
        <ele>481.51</ele>
        <time>2014-10-19T13:13:09Z</time>
      </trkpt>
      <trkpt lat="46.20453" lon="5.95487">
        <ele>481.51</ele>
        <time>2014-10-19T13:13:10Z</time>
      </trkpt>
      <trkpt lat="46.20446" lon="5.95487">
        <ele>481.39</ele>
        <time>2014-10-19T13:13:11Z</time>
      </trkpt>
      <trkpt lat="46.20403" lon="5.95483">
        <ele>480.11</ele>
        <time>2014-10-19T13:13:17Z</time>
      </trkpt>
      <trkpt lat="46.20396" lon="5.9548">
        <ele>479.87</ele>
        <time>2014-10-19T13:13:18Z</time>
      </trkpt>
      <trkpt lat="46.20389" lon="5.95476">
        <ele>479.63</ele>
        <time>2014-10-19T13:13:19Z</time>
      </trkpt>
      <trkpt lat="46.20383" lon="5.95471">
        <ele>479.51</ele>
        <time>2014-10-19T13:13:20Z</time>
      </trkpt>
      <trkpt lat="46.20377" lon="5.95465">
        <ele>479.39</ele>
        <time>2014-10-19T13:13:21Z</time>
      </trkpt>
      <trkpt lat="46.20364" lon="5.95455">
        <ele>479.2</ele>
        <time>2014-10-19T13:13:23Z</time>
      </trkpt>
      <trkpt lat="46.20357" lon="5.95451">
        <ele>478.98</ele>
        <time>2014-10-19T13:13:24Z</time>
      </trkpt>
      <trkpt lat="46.2035" lon="5.95449">
        <ele>478.67</ele>
        <time>2014-10-19T13:13:25Z</time>
      </trkpt>
      <trkpt lat="46.20343" lon="5.95447">
        <ele>478.4</ele>
        <time>2014-10-19T13:13:26Z</time>
      </trkpt>
      <trkpt lat="46.2033" lon="5.95444">
        <ele>477.83</ele>
        <time>2014-10-19T13:13:28Z</time>
      </trkpt>
      <trkpt lat="46.20323" lon="5.95445">
        <ele>477.63</ele>
        <time>2014-10-19T13:13:29Z</time>
      </trkpt>
      <trkpt lat="46.20317" lon="5.95448">
        <ele>477.47</ele>
        <time>2014-10-19T13:13:30Z</time>
      </trkpt>
      <trkpt lat="46.20312" lon="5.9545">
        <ele>477.25</ele>
        <time>2014-10-19T13:13:31Z</time>
      </trkpt>
      <trkpt lat="46.20307" lon="5.95453">
        <ele>476.97</ele>
        <time>2014-10-19T13:13:32Z</time>
      </trkpt>
      <trkpt lat="46.20302" lon="5.95455">
        <ele>476.62</ele>
        <time>2014-10-19T13:13:33Z</time>
      </trkpt>
      <trkpt lat="46.20297" lon="5.95456">
        <ele>476.39</ele>
        <time>2014-10-19T13:13:34Z</time>
      </trkpt>
      <trkpt lat="46.20292" lon="5.95457">
        <ele>476.28</ele>
        <time>2014-10-19T13:13:35Z</time>
      </trkpt>
      <trkpt lat="46.20288" lon="5.95455">
        <ele>476.17</ele>
        <time>2014-10-19T13:13:36Z</time>
      </trkpt>
      <trkpt lat="46.20285" lon="5.95452">
        <ele>476.11</ele>
        <time>2014-10-19T13:13:37Z</time>
      </trkpt>
      <trkpt lat="46.20282" lon="5.95448">
        <ele>476.18</ele>
        <time>2014-10-19T13:13:38Z</time>
      </trkpt>
      <trkpt lat="46.20279" lon="5.95443">
        <ele>476.49</ele>
        <time>2014-10-19T13:13:39Z</time>
      </trkpt>
      <trkpt lat="46.20216" lon="5.95337">
        <ele>477.79</ele>
        <time>2014-10-19T13:13:57Z</time>
      </trkpt>
      <trkpt lat="46.2018" lon="5.95274">
        <ele>479.62</ele>
        <time>2014-10-19T13:14:09Z</time>
      </trkpt>
      <trkpt lat="46.20177" lon="5.9527">
        <ele>479.86</ele>
        <time>2014-10-19T13:14:10Z</time>
      </trkpt>
      <trkpt lat="46.20174" lon="5.95265">
        <ele>480.17</ele>
        <time>2014-10-19T13:14:11Z</time>
      </trkpt>
      <trkpt lat="46.20171" lon="5.95261">
        <ele>480.57</ele>
        <time>2014-10-19T13:14:12Z</time>
      </trkpt>
      <trkpt lat="46.20168" lon="5.95256">
        <ele>480.57</ele>
        <time>2014-10-19T13:14:13Z</time>
      </trkpt>
      <trkpt lat="46.20129" lon="5.95195">
        <ele>482.76</ele>
        <time>2014-10-19T13:14:25Z</time>
      </trkpt>
      <trkpt lat="46.20126" lon="5.9519">
        <ele>483.03</ele>
        <time>2014-10-19T13:14:26Z</time>
      </trkpt>
      <trkpt lat="46.20113" lon="5.9517">
        <ele>484.02</ele>
        <time>2014-10-19T13:14:30Z</time>
      </trkpt>
      <trkpt lat="46.2011" lon="5.95165">
        <ele>484.24</ele>
        <time>2014-10-19T13:14:31Z</time>
      </trkpt>
      <trkpt lat="46.20104" lon="5.95157">
        <ele>484.56</ele>
        <time>2014-10-19T13:14:33Z</time>
      </trkpt>
      <trkpt lat="46.20101" lon="5.95152">
        <ele>484.69</ele>
        <time>2014-10-19T13:14:34Z</time>
      </trkpt>
      <trkpt lat="46.20081" lon="5.95121">
        <ele>485.57</ele>
        <time>2014-10-19T13:14:41Z</time>
      </trkpt>
      <trkpt lat="46.20074" lon="5.95112">
        <ele>485.69</ele>
        <time>2014-10-19T13:14:43Z</time>
      </trkpt>
      <trkpt lat="46.20071" lon="5.95108">
        <ele>486</ele>
        <time>2014-10-19T13:14:44Z</time>
      </trkpt>
      <trkpt lat="46.20068" lon="5.95104">
        <ele>486.37</ele>
        <time>2014-10-19T13:14:45Z</time>
      </trkpt>
      <trkpt lat="46.20051" lon="5.95081">
        <ele>487.57</ele>
        <time>2014-10-19T13:14:51Z</time>
      </trkpt>
      <trkpt lat="46.20048" lon="5.95076">
        <ele>487.89</ele>
        <time>2014-10-19T13:14:52Z</time>
      </trkpt>
      <trkpt lat="46.20046" lon="5.95072">
        <ele>488.07</ele>
        <time>2014-10-19T13:14:53Z</time>
      </trkpt>
      <trkpt lat="46.20043" lon="5.95068">
        <ele>488.36</ele>
        <time>2014-10-19T13:14:54Z</time>
      </trkpt>
      <trkpt lat="46.20041" lon="5.95064">
        <ele>488.61</ele>
        <time>2014-10-19T13:14:55Z</time>
      </trkpt>
      <trkpt lat="46.20038" lon="5.9506">
        <ele>488.67</ele>
        <time>2014-10-19T13:14:56Z</time>
      </trkpt>
      <trkpt lat="46.20003" lon="5.94998">
        <ele>491.63</ele>
        <time>2014-10-19T13:15:13Z</time>
      </trkpt>
      <trkpt lat="46.20002" lon="5.94996">
        <ele>491.77</ele>
        <time>2014-10-19T13:15:14Z</time>
      </trkpt>
      <trkpt lat="46.20001" lon="5.94994">
        <ele>491.87</ele>
        <time>2014-10-19T13:15:15Z</time>
      </trkpt>
      <trkpt lat="46.2" lon="5.94992">
        <ele>491.93</ele>
        <time>2014-10-19T13:15:16Z</time>
      </trkpt>
      <trkpt lat="46.19998" lon="5.94991">
        <ele>492.05</ele>
        <time>2014-10-19T13:15:17Z</time>
      </trkpt>
      <trkpt lat="46.19995" lon="5.94991">
        <ele>492.34</ele>
        <time>2014-10-19T13:15:18Z</time>
      </trkpt>
      <trkpt lat="46.1999" lon="5.94995">
        <ele>492.67</ele>
        <time>2014-10-19T13:15:20Z</time>
      </trkpt>
      <trkpt lat="46.19987" lon="5.94997">
        <ele>492.83</ele>
        <time>2014-10-19T13:15:21Z</time>
      </trkpt>
      <trkpt lat="46.19983" lon="5.95">
        <ele>492.95</ele>
        <time>2014-10-19T13:15:22Z</time>
      </trkpt>
      <trkpt lat="46.19979" lon="5.95004">
        <ele>492.95</ele>
        <time>2014-10-19T13:15:23Z</time>
      </trkpt>
      <trkpt lat="46.19974" lon="5.95007">
        <ele>492.65</ele>
        <time>2014-10-19T13:15:24Z</time>
      </trkpt>
      <trkpt lat="46.19963" lon="5.95012">
        <ele>492.21</ele>
        <time>2014-10-19T13:15:26Z</time>
      </trkpt>
      <trkpt lat="46.19911" lon="5.95036">
        <ele>489.03</ele>
        <time>2014-10-19T13:15:34Z</time>
      </trkpt>
      <trkpt lat="46.19812" lon="5.95071">
        <ele>486.81</ele>
        <time>2014-10-19T13:15:48Z</time>
      </trkpt>
      <trkpt lat="46.19798" lon="5.95068">
        <ele>486.7</ele>
        <time>2014-10-19T13:15:50Z</time>
      </trkpt>
      <trkpt lat="46.19747" lon="5.95058">
        <ele>486.56</ele>
        <time>2014-10-19T13:15:58Z</time>
      </trkpt>
      <trkpt lat="46.19741" lon="5.9506">
        <ele>486.66</ele>
        <time>2014-10-19T13:15:59Z</time>
      </trkpt>
      <trkpt lat="46.19734" lon="5.95062">
        <ele>486.7</ele>
        <time>2014-10-19T13:16:00Z</time>
      </trkpt>
      <trkpt lat="46.19728" lon="5.95065">
        <ele>486.66</ele>
        <time>2014-10-19T13:16:01Z</time>
      </trkpt>
      <trkpt lat="46.19715" lon="5.95074">
        <ele>485.85</ele>
        <time>2014-10-19T13:16:03Z</time>
      </trkpt>
      <trkpt lat="46.19654" lon="5.95116">
        <ele>483.2</ele>
        <time>2014-10-19T13:16:12Z</time>
      </trkpt>
      <trkpt lat="46.19647" lon="5.95119">
        <ele>483.14</ele>
        <time>2014-10-19T13:16:13Z</time>
      </trkpt>
      <trkpt lat="46.1964" lon="5.95119">
        <ele>483.04</ele>
        <time>2014-10-19T13:16:14Z</time>
      </trkpt>
      <trkpt lat="46.19632" lon="5.95118">
        <ele>482.92</ele>
        <time>2014-10-19T13:16:15Z</time>
      </trkpt>
      <trkpt lat="46.19625" lon="5.95115">
        <ele>482.88</ele>
        <time>2014-10-19T13:16:16Z</time>
      </trkpt>
      <trkpt lat="46.19611" lon="5.95111">
        <ele>482.74</ele>
        <time>2014-10-19T13:16:18Z</time>
      </trkpt>
      <trkpt lat="46.19604" lon="5.9511">
        <ele>482.69</ele>
        <time>2014-10-19T13:16:19Z</time>
      </trkpt>
      <trkpt lat="46.19597" lon="5.95111">
        <ele>482.53</ele>
        <time>2014-10-19T13:16:20Z</time>
      </trkpt>
      <trkpt lat="46.19585" lon="5.95116">
        <ele>482.28</ele>
        <time>2014-10-19T13:16:22Z</time>
      </trkpt>
      <trkpt lat="46.19579" lon="5.95121">
        <ele>482.24</ele>
        <time>2014-10-19T13:16:23Z</time>
      </trkpt>
      <trkpt lat="46.19573" lon="5.95126">
        <ele>482.17</ele>
        <time>2014-10-19T13:16:24Z</time>
      </trkpt>
      <trkpt lat="46.19516" lon="5.95185">
        <ele>480.25</ele>
        <time>2014-10-19T13:16:33Z</time>
      </trkpt>
      <trkpt lat="46.19464" lon="5.95244">
        <ele>477.66</ele>
        <time>2014-10-19T13:16:41Z</time>
      </trkpt>
      <trkpt lat="46.19457" lon="5.95249">
        <ele>477.5</ele>
        <time>2014-10-19T13:16:42Z</time>
      </trkpt>
      <trkpt lat="46.19449" lon="5.95253">
        <ele>477.37</ele>
        <time>2014-10-19T13:16:43Z</time>
      </trkpt>
      <trkpt lat="46.19396" lon="5.95284">
        <ele>476.29</ele>
        <time>2014-10-19T13:16:50Z</time>
      </trkpt>
      <trkpt lat="46.19311" lon="5.9539">
        <ele>473.56</ele>
        <time>2014-10-19T13:17:04Z</time>
      </trkpt>
      <trkpt lat="46.19236" lon="5.9552">
        <ele>471.64</ele>
        <time>2014-10-19T13:17:18Z</time>
      </trkpt>
      <trkpt lat="46.19231" lon="5.9553">
        <ele>471.47</ele>
        <time>2014-10-19T13:17:19Z</time>
      </trkpt>
      <trkpt lat="46.19218" lon="5.95561">
        <ele>470.74</ele>
        <time>2014-10-19T13:17:22Z</time>
      </trkpt>
      <trkpt lat="46.19215" lon="5.95574">
        <ele>470.35</ele>
        <time>2014-10-19T13:17:23Z</time>
      </trkpt>
      <trkpt lat="46.19213" lon="5.95586">
        <ele>469.89</ele>
        <time>2014-10-19T13:17:24Z</time>
      </trkpt>
      <trkpt lat="46.19199" lon="5.95697">
        <ele>466.68</ele>
        <time>2014-10-19T13:17:32Z</time>
      </trkpt>
      <trkpt lat="46.19196" lon="5.95711">
        <ele>466.04</ele>
        <time>2014-10-19T13:17:33Z</time>
      </trkpt>
      <trkpt lat="46.19191" lon="5.95724">
        <ele>465.51</ele>
        <time>2014-10-19T13:17:34Z</time>
      </trkpt>
      <trkpt lat="46.19179" lon="5.95747">
        <ele>464.64</ele>
        <time>2014-10-19T13:17:36Z</time>
      </trkpt>
      <trkpt lat="46.19161" lon="5.95781">
        <ele>462.86</ele>
        <time>2014-10-19T13:17:39Z</time>
      </trkpt>
      <trkpt lat="46.19155" lon="5.95791">
        <ele>462.6</ele>
        <time>2014-10-19T13:17:40Z</time>
      </trkpt>
      <trkpt lat="46.19118" lon="5.95849">
        <ele>463.61</ele>
        <time>2014-10-19T13:17:48Z</time>
      </trkpt>
      <trkpt lat="46.19108" lon="5.9586">
        <ele>464.22</ele>
        <time>2014-10-19T13:17:51Z</time>
      </trkpt>
      <trkpt lat="46.19105" lon="5.95866">
        <ele>464.26</ele>
        <time>2014-10-19T13:17:52Z</time>
      </trkpt>
      <trkpt lat="46.19102" lon="5.95872">
        <ele>464.29</ele>
        <time>2014-10-19T13:17:53Z</time>
      </trkpt>
      <trkpt lat="46.19066" lon="5.95928">
        <ele>466.07</ele>
        <time>2014-10-19T13:18:02Z</time>
      </trkpt>
      <trkpt lat="46.18983" lon="5.96086">
        <ele>466.31</ele>
        <time>2014-10-19T13:18:24Z</time>
      </trkpt>
      <trkpt lat="46.18979" lon="5.96093">
        <ele>466.44</ele>
        <time>2014-10-19T13:18:25Z</time>
      </trkpt>
      <trkpt lat="46.18899" lon="5.96231">
        <ele>468</ele>
        <time>2014-10-19T13:18:46Z</time>
      </trkpt>
      <trkpt lat="46.18861" lon="5.96286">
        <ele>469.98</ele>
        <time>2014-10-19T13:18:56Z</time>
      </trkpt>
      <trkpt lat="46.18858" lon="5.96292">
        <ele>470.1</ele>
        <time>2014-10-19T13:18:57Z</time>
      </trkpt>
      <trkpt lat="46.18799" lon="5.96382">
        <ele>472.25</ele>
        <time>2014-10-19T13:19:15Z</time>
      </trkpt>
      <trkpt lat="46.18735" lon="5.96481">
        <ele>475.1</ele>
        <time>2014-10-19T13:19:36Z</time>
      </trkpt>
      <trkpt lat="46.18681" lon="5.96557">
        <ele>476.24</ele>
        <time>2014-10-19T13:19:52Z</time>
      </trkpt>
      <trkpt lat="46.18671" lon="5.96569">
        <ele>476.38</ele>
        <time>2014-10-19T13:19:55Z</time>
      </trkpt>
      <trkpt lat="46.18657" lon="5.96584">
        <ele>476.61</ele>
        <time>2014-10-19T13:19:59Z</time>
      </trkpt>
      <trkpt lat="46.18576" lon="5.96648">
        <ele>478.58</ele>
        <time>2014-10-19T13:20:20Z</time>
      </trkpt>
      <trkpt lat="46.18497" lon="5.96681">
        <ele>479.84</ele>
        <time>2014-10-19T13:20:38Z</time>
      </trkpt>
      <trkpt lat="46.18404" lon="5.96687">
        <ele>482.34</ele>
        <time>2014-10-19T13:20:58Z</time>
      </trkpt>
      <trkpt lat="46.18331" lon="5.96692">
        <ele>484.44</ele>
        <time>2014-10-19T13:21:15Z</time>
      </trkpt>
      <trkpt lat="46.18258" lon="5.96678">
        <ele>486.22</ele>
        <time>2014-10-19T13:21:33Z</time>
      </trkpt>
      <trkpt lat="46.18181" lon="5.96634">
        <ele>489.22</ele>
        <time>2014-10-19T13:21:53Z</time>
      </trkpt>
      <trkpt lat="46.1817" lon="5.96627">
        <ele>489.76</ele>
        <time>2014-10-19T13:21:56Z</time>
      </trkpt>
      <trkpt lat="46.18166" lon="5.96625">
        <ele>490.01</ele>
        <time>2014-10-19T13:21:57Z</time>
      </trkpt>
      <trkpt lat="46.18145" lon="5.96612">
        <ele>490.71</ele>
        <time>2014-10-19T13:22:03Z</time>
      </trkpt>
      <trkpt lat="46.18141" lon="5.9661">
        <ele>490.84</ele>
        <time>2014-10-19T13:22:04Z</time>
      </trkpt>
      <trkpt lat="46.18109" lon="5.9659">
        <ele>492.06</ele>
        <time>2014-10-19T13:22:13Z</time>
      </trkpt>
      <trkpt lat="46.18072" lon="5.96575">
        <ele>492.03</ele>
        <time>2014-10-19T13:22:23Z</time>
      </trkpt>
      <trkpt lat="46.18067" lon="5.96575">
        <ele>492.05</ele>
        <time>2014-10-19T13:22:24Z</time>
      </trkpt>
      <trkpt lat="46.18027" lon="5.96603">
        <ele>493.39</ele>
        <time>2014-10-19T13:22:36Z</time>
      </trkpt>
      <trkpt lat="46.18025" lon="5.96608">
        <ele>493.48</ele>
        <time>2014-10-19T13:22:37Z</time>
      </trkpt>
      <trkpt lat="46.18021" lon="5.96618">
        <ele>493.61</ele>
        <time>2014-10-19T13:22:39Z</time>
      </trkpt>
      <trkpt lat="46.18016" lon="5.96635">
        <ele>494.01</ele>
        <time>2014-10-19T13:22:42Z</time>
      </trkpt>
      <trkpt lat="46.18009" lon="5.9665">
        <ele>494.48</ele>
        <time>2014-10-19T13:22:45Z</time>
      </trkpt>
      <trkpt lat="46.18008" lon="5.96655">
        <ele>494.51</ele>
        <time>2014-10-19T13:22:46Z</time>
      </trkpt>
      <trkpt lat="46.18006" lon="5.96661">
        <ele>494.53</ele>
        <time>2014-10-19T13:22:47Z</time>
      </trkpt>
      <trkpt lat="46.18004" lon="5.96666">
        <ele>494.54</ele>
        <time>2014-10-19T13:22:48Z</time>
      </trkpt>
      <trkpt lat="46.18002" lon="5.96671">
        <ele>494.69</ele>
        <time>2014-10-19T13:22:49Z</time>
      </trkpt>
      <trkpt lat="46.18" lon="5.96677">
        <ele>494.71</ele>
        <time>2014-10-19T13:22:50Z</time>
      </trkpt>
      <trkpt lat="46.17996" lon="5.96687">
        <ele>494.78</ele>
        <time>2014-10-19T13:22:52Z</time>
      </trkpt>
      <trkpt lat="46.17994" lon="5.96693">
        <ele>494.91</ele>
        <time>2014-10-19T13:22:53Z</time>
      </trkpt>
      <trkpt lat="46.17992" lon="5.96698">
        <ele>495.11</ele>
        <time>2014-10-19T13:22:54Z</time>
      </trkpt>
      <trkpt lat="46.17955" lon="5.9679">
        <ele>496.12</ele>
        <time>2014-10-19T13:23:11Z</time>
      </trkpt>
      <trkpt lat="46.17951" lon="5.96792">
        <ele>496.06</ele>
        <time>2014-10-19T13:23:12Z</time>
      </trkpt>
      <trkpt lat="46.17948" lon="5.96793">
        <ele>495.88</ele>
        <time>2014-10-19T13:23:13Z</time>
      </trkpt>
      <trkpt lat="46.17945" lon="5.96792">
        <ele>495.64</ele>
        <time>2014-10-19T13:23:14Z</time>
      </trkpt>
      <trkpt lat="46.17943" lon="5.9679">
        <ele>495.4</ele>
        <time>2014-10-19T13:23:15Z</time>
      </trkpt>
      <trkpt lat="46.17941" lon="5.96788">
        <ele>495.24</ele>
        <time>2014-10-19T13:23:16Z</time>
      </trkpt>
      <trkpt lat="46.1794" lon="5.96785">
        <ele>495.17</ele>
        <time>2014-10-19T13:23:17Z</time>
      </trkpt>
      <trkpt lat="46.17938" lon="5.96781">
        <ele>495.13</ele>
        <time>2014-10-19T13:23:18Z</time>
      </trkpt>
      <trkpt lat="46.17923" lon="5.96742">
        <ele>495.01</ele>
        <time>2014-10-19T13:23:26Z</time>
      </trkpt>
      <trkpt lat="46.17891" lon="5.96665">
        <ele>496.46</ele>
        <time>2014-10-19T13:23:41Z</time>
      </trkpt>
      <trkpt lat="46.17887" lon="5.96651">
        <ele>496.67</ele>
        <time>2014-10-19T13:23:44Z</time>
      </trkpt>
      <trkpt lat="46.17886" lon="5.96646">
        <ele>496.71</ele>
        <time>2014-10-19T13:23:45Z</time>
      </trkpt>
      <trkpt lat="46.17884" lon="5.96642">
        <ele>496.96</ele>
        <time>2014-10-19T13:23:46Z</time>
      </trkpt>
      <trkpt lat="46.17883" lon="5.96638">
        <ele>497.38</ele>
        <time>2014-10-19T13:23:47Z</time>
      </trkpt>
      <trkpt lat="46.17882" lon="5.96634">
        <ele>497.75</ele>
        <time>2014-10-19T13:23:48Z</time>
      </trkpt>
      <trkpt lat="46.17881" lon="5.96631">
        <ele>498.07</ele>
        <time>2014-10-19T13:23:49Z</time>
      </trkpt>
      <trkpt lat="46.1788" lon="5.96626">
        <ele>498.38</ele>
        <time>2014-10-19T13:23:50Z</time>
      </trkpt>
      <trkpt lat="46.17879" lon="5.96621">
        <ele>498.58</ele>
        <time>2014-10-19T13:23:51Z</time>
      </trkpt>
      <trkpt lat="46.17878" lon="5.96616">
        <ele>498.71</ele>
        <time>2014-10-19T13:23:52Z</time>
      </trkpt>
      <trkpt lat="46.17877" lon="5.96612">
        <ele>498.87</ele>
        <time>2014-10-19T13:23:53Z</time>
      </trkpt>
      <trkpt lat="46.17877" lon="5.96607">
        <ele>499.01</ele>
        <time>2014-10-19T13:23:54Z</time>
      </trkpt>
      <trkpt lat="46.17877" lon="5.96603">
        <ele>499.08</ele>
        <time>2014-10-19T13:23:55Z</time>
      </trkpt>
      <trkpt lat="46.17878" lon="5.96598">
        <ele>499.19</ele>
        <time>2014-10-19T13:23:56Z</time>
      </trkpt>
      <trkpt lat="46.17878" lon="5.96594">
        <ele>499.36</ele>
        <time>2014-10-19T13:23:57Z</time>
      </trkpt>
      <trkpt lat="46.17879" lon="5.96589">
        <ele>499.72</ele>
        <time>2014-10-19T13:23:58Z</time>
      </trkpt>
      <trkpt lat="46.17879" lon="5.96585">
        <ele>500.12</ele>
        <time>2014-10-19T13:23:59Z</time>
      </trkpt>
      <trkpt lat="46.1788" lon="5.9658">
        <ele>500.41</ele>
        <time>2014-10-19T13:24:00Z</time>
      </trkpt>
      <trkpt lat="46.17881" lon="5.96575">
        <ele>500.68</ele>
        <time>2014-10-19T13:24:01Z</time>
      </trkpt>
      <trkpt lat="46.17882" lon="5.9657">
        <ele>500.84</ele>
        <time>2014-10-19T13:24:02Z</time>
      </trkpt>
      <trkpt lat="46.17882" lon="5.96565">
        <ele>501.17</ele>
        <time>2014-10-19T13:24:03Z</time>
      </trkpt>
      <trkpt lat="46.17883" lon="5.96553">
        <ele>501.51</ele>
        <time>2014-10-19T13:24:05Z</time>
      </trkpt>
      <trkpt lat="46.17882" lon="5.96548">
        <ele>501.72</ele>
        <time>2014-10-19T13:24:06Z</time>
      </trkpt>
      <trkpt lat="46.17882" lon="5.96543">
        <ele>501.86</ele>
        <time>2014-10-19T13:24:07Z</time>
      </trkpt>
      <trkpt lat="46.1788" lon="5.96533">
        <ele>502.1</ele>
        <time>2014-10-19T13:24:09Z</time>
      </trkpt>
      <trkpt lat="46.17879" lon="5.96529">
        <ele>502.23</ele>
        <time>2014-10-19T13:24:10Z</time>
      </trkpt>
      <trkpt lat="46.17877" lon="5.96525">
        <ele>502.29</ele>
        <time>2014-10-19T13:24:11Z</time>
      </trkpt>
      <trkpt lat="46.17876" lon="5.9652">
        <ele>502.36</ele>
        <time>2014-10-19T13:24:12Z</time>
      </trkpt>
      <trkpt lat="46.17874" lon="5.96516">
        <ele>502.32</ele>
        <time>2014-10-19T13:24:13Z</time>
      </trkpt>
      <trkpt lat="46.17872" lon="5.96511">
        <ele>502.17</ele>
        <time>2014-10-19T13:24:14Z</time>
      </trkpt>
      <trkpt lat="46.17869" lon="5.96506">
        <ele>502.03</ele>
        <time>2014-10-19T13:24:15Z</time>
      </trkpt>
      <trkpt lat="46.17867" lon="5.96501">
        <ele>501.96</ele>
        <time>2014-10-19T13:24:16Z</time>
      </trkpt>
      <trkpt lat="46.17865" lon="5.96496">
        <ele>501.92</ele>
        <time>2014-10-19T13:24:17Z</time>
      </trkpt>
      <trkpt lat="46.17863" lon="5.9649">
        <ele>501.84</ele>
        <time>2014-10-19T13:24:18Z</time>
      </trkpt>
      <trkpt lat="46.17861" lon="5.96485">
        <ele>501.67</ele>
        <time>2014-10-19T13:24:19Z</time>
      </trkpt>
      <trkpt lat="46.17858" lon="5.9648">
        <ele>501.58</ele>
        <time>2014-10-19T13:24:20Z</time>
      </trkpt>
      <trkpt lat="46.17855" lon="5.96475">
        <ele>501.46</ele>
        <time>2014-10-19T13:24:21Z</time>
      </trkpt>
      <trkpt lat="46.17845" lon="5.96459">
        <ele>501.26</ele>
        <time>2014-10-19T13:24:24Z</time>
      </trkpt>
      <trkpt lat="46.17808" lon="5.96403">
        <ele>499.24</ele>
        <time>2014-10-19T13:24:36Z</time>
      </trkpt>
      <trkpt lat="46.17805" lon="5.96397">
        <ele>498.97</ele>
        <time>2014-10-19T13:24:37Z</time>
      </trkpt>
      <trkpt lat="46.17793" lon="5.96382">
        <ele>498.32</ele>
        <time>2014-10-19T13:24:40Z</time>
      </trkpt>
      <trkpt lat="46.17788" lon="5.96377">
        <ele>497.89</ele>
        <time>2014-10-19T13:24:41Z</time>
      </trkpt>
      <trkpt lat="46.17769" lon="5.9636">
        <ele>495.73</ele>
        <time>2014-10-19T13:24:45Z</time>
      </trkpt>
      <trkpt lat="46.17759" lon="5.96352">
        <ele>495.39</ele>
        <time>2014-10-19T13:24:47Z</time>
      </trkpt>
      <trkpt lat="46.17722" lon="5.96322">
        <ele>492.24</ele>
        <time>2014-10-19T13:24:55Z</time>
      </trkpt>
      <trkpt lat="46.17677" lon="5.96279">
        <ele>489.04</ele>
        <time>2014-10-19T13:25:04Z</time>
      </trkpt>
      <trkpt lat="46.17636" lon="5.96244">
        <ele>485.82</ele>
        <time>2014-10-19T13:25:12Z</time>
      </trkpt>
      <trkpt lat="46.17595" lon="5.96215">
        <ele>482.74</ele>
        <time>2014-10-19T13:25:19Z</time>
      </trkpt>
      <trkpt lat="46.17562" lon="5.96183">
        <ele>479.35</ele>
        <time>2014-10-19T13:25:24Z</time>
      </trkpt>
      <trkpt lat="46.17534" lon="5.9616">
        <ele>476.46</ele>
        <time>2014-10-19T13:25:29Z</time>
      </trkpt>
      <trkpt lat="46.17529" lon="5.96159">
        <ele>476.11</ele>
        <time>2014-10-19T13:25:30Z</time>
      </trkpt>
      <trkpt lat="46.17523" lon="5.96159">
        <ele>475.78</ele>
        <time>2014-10-19T13:25:31Z</time>
      </trkpt>
      <trkpt lat="46.17517" lon="5.96161">
        <ele>475.2</ele>
        <time>2014-10-19T13:25:32Z</time>
      </trkpt>
      <trkpt lat="46.17511" lon="5.96164">
        <ele>474.44</ele>
        <time>2014-10-19T13:25:33Z</time>
      </trkpt>
      <trkpt lat="46.17505" lon="5.96169">
        <ele>474.08</ele>
        <time>2014-10-19T13:25:34Z</time>
      </trkpt>
      <trkpt lat="46.17499" lon="5.96174">
        <ele>473.64</ele>
        <time>2014-10-19T13:25:35Z</time>
      </trkpt>
      <trkpt lat="46.17455" lon="5.96214">
        <ele>470.25</ele>
        <time>2014-10-19T13:25:42Z</time>
      </trkpt>
      <trkpt lat="46.17415" lon="5.9624">
        <ele>467.57</ele>
        <time>2014-10-19T13:25:48Z</time>
      </trkpt>
      <trkpt lat="46.17379" lon="5.96273">
        <ele>463.54</ele>
        <time>2014-10-19T13:25:54Z</time>
      </trkpt>
      <trkpt lat="46.17358" lon="5.96296">
        <ele>460.35</ele>
        <time>2014-10-19T13:25:58Z</time>
      </trkpt>
      <trkpt lat="46.17349" lon="5.96306">
        <ele>459.62</ele>
        <time>2014-10-19T13:26:00Z</time>
      </trkpt>
      <trkpt lat="46.17319" lon="5.9634">
        <ele>456.44</ele>
        <time>2014-10-19T13:26:10Z</time>
      </trkpt>
      <trkpt lat="46.17319" lon="5.96338">
        <ele>455.68</ele>
        <time>2014-10-19T13:26:39Z</time>
      </trkpt>
      <trkpt lat="46.17316" lon="5.96339">
        <ele>455.72</ele>
        <time>2014-10-19T13:27:00Z</time>
      </trkpt>
      <trkpt lat="46.17315" lon="5.9634">
        <ele>455.72</ele>
        <time>2014-10-19T13:27:01Z</time>
      </trkpt>
      <trkpt lat="46.17313" lon="5.96342">
        <ele>455.72</ele>
        <time>2014-10-19T13:27:02Z</time>
      </trkpt>
      <trkpt lat="46.1731" lon="5.96343">
        <ele>455.69</ele>
        <time>2014-10-19T13:27:03Z</time>
      </trkpt>
      <trkpt lat="46.17307" lon="5.96345">
        <ele>455.68</ele>
        <time>2014-10-19T13:27:04Z</time>
      </trkpt>
      <trkpt lat="46.17304" lon="5.96346">
        <ele>455.61</ele>
        <time>2014-10-19T13:27:05Z</time>
      </trkpt>
      <trkpt lat="46.173" lon="5.96347">
        <ele>455.51</ele>
        <time>2014-10-19T13:27:06Z</time>
      </trkpt>
      <trkpt lat="46.17296" lon="5.96348">
        <ele>455.34</ele>
        <time>2014-10-19T13:27:07Z</time>
      </trkpt>
      <trkpt lat="46.17291" lon="5.96349">
        <ele>455.23</ele>
        <time>2014-10-19T13:27:08Z</time>
      </trkpt>
      <trkpt lat="46.17211" lon="5.96351">
        <ele>452.8</ele>
        <time>2014-10-19T13:27:22Z</time>
      </trkpt>
      <trkpt lat="46.17178" lon="5.96351">
        <ele>451.89</ele>
        <time>2014-10-19T13:27:27Z</time>
      </trkpt>
      <trkpt lat="46.17171" lon="5.96348">
        <ele>451.51</ele>
        <time>2014-10-19T13:27:28Z</time>
      </trkpt>
      <trkpt lat="46.17165" lon="5.96344">
        <ele>451.18</ele>
        <time>2014-10-19T13:27:29Z</time>
      </trkpt>
      <trkpt lat="46.17137" lon="5.96332">
        <ele>450.12</ele>
        <time>2014-10-19T13:27:33Z</time>
      </trkpt>
      <trkpt lat="46.1713" lon="5.96331">
        <ele>449.95</ele>
        <time>2014-10-19T13:27:34Z</time>
      </trkpt>
      <trkpt lat="46.17115" lon="5.9633">
        <ele>449.02</ele>
        <time>2014-10-19T13:27:36Z</time>
      </trkpt>
      <trkpt lat="46.171" lon="5.96334">
        <ele>447.44</ele>
        <time>2014-10-19T13:27:38Z</time>
      </trkpt>
      <trkpt lat="46.17085" lon="5.96339">
        <ele>446.75</ele>
        <time>2014-10-19T13:27:40Z</time>
      </trkpt>
      <trkpt lat="46.17056" lon="5.96345">
        <ele>446.28</ele>
        <time>2014-10-19T13:27:44Z</time>
      </trkpt>
      <trkpt lat="46.17048" lon="5.96344">
        <ele>446.17</ele>
        <time>2014-10-19T13:27:45Z</time>
      </trkpt>
      <trkpt lat="46.17041" lon="5.96341">
        <ele>445.89</ele>
        <time>2014-10-19T13:27:46Z</time>
      </trkpt>
      <trkpt lat="46.17033" lon="5.96337">
        <ele>445.55</ele>
        <time>2014-10-19T13:27:47Z</time>
      </trkpt>
      <trkpt lat="46.17026" lon="5.96332">
        <ele>445.24</ele>
        <time>2014-10-19T13:27:48Z</time>
      </trkpt>
      <trkpt lat="46.17019" lon="5.96327">
        <ele>444.94</ele>
        <time>2014-10-19T13:27:49Z</time>
      </trkpt>
      <trkpt lat="46.17013" lon="5.96322">
        <ele>444.79</ele>
        <time>2014-10-19T13:27:50Z</time>
      </trkpt>
      <trkpt lat="46.16953" lon="5.9627">
        <ele>443.97</ele>
        <time>2014-10-19T13:27:59Z</time>
      </trkpt>
      <trkpt lat="46.16946" lon="5.96267">
        <ele>443.9</ele>
        <time>2014-10-19T13:28:00Z</time>
      </trkpt>
      <trkpt lat="46.16838" lon="5.96251">
        <ele>440.76</ele>
        <time>2014-10-19T13:28:13Z</time>
      </trkpt>
      <trkpt lat="46.16821" lon="5.96242">
        <ele>440.11</ele>
        <time>2014-10-19T13:28:15Z</time>
      </trkpt>
      <trkpt lat="46.16806" lon="5.96229">
        <ele>439.83</ele>
        <time>2014-10-19T13:28:17Z</time>
      </trkpt>
      <trkpt lat="46.16777" lon="5.96203">
        <ele>438.87</ele>
        <time>2014-10-19T13:28:21Z</time>
      </trkpt>
      <trkpt lat="46.16747" lon="5.96189">
        <ele>438.09</ele>
        <time>2014-10-19T13:28:25Z</time>
      </trkpt>
      <trkpt lat="46.16667" lon="5.96176">
        <ele>437.99</ele>
        <time>2014-10-19T13:28:35Z</time>
      </trkpt>
      <trkpt lat="46.16644" lon="5.96179">
        <ele>437.6</ele>
        <time>2014-10-19T13:28:38Z</time>
      </trkpt>
      <trkpt lat="46.16612" lon="5.96184">
        <ele>436.89</ele>
        <time>2014-10-19T13:28:42Z</time>
      </trkpt>
      <trkpt lat="46.16537" lon="5.96182">
        <ele>433.96</ele>
        <time>2014-10-19T13:28:51Z</time>
      </trkpt>
      <trkpt lat="46.16455" lon="5.96178">
        <ele>433.28</ele>
        <time>2014-10-19T13:29:01Z</time>
      </trkpt>
      <trkpt lat="46.16377" lon="5.96168">
        <ele>432.72</ele>
        <time>2014-10-19T13:29:11Z</time>
      </trkpt>
      <trkpt lat="46.16281" lon="5.96161">
        <ele>431.67</ele>
        <time>2014-10-19T13:29:23Z</time>
      </trkpt>
      <trkpt lat="46.16227" lon="5.96171">
        <ele>431.8</ele>
        <time>2014-10-19T13:29:30Z</time>
      </trkpt>
      <trkpt lat="46.16219" lon="5.96169">
        <ele>431.8</ele>
        <time>2014-10-19T13:29:31Z</time>
      </trkpt>
      <trkpt lat="46.16204" lon="5.96163">
        <ele>431.7</ele>
        <time>2014-10-19T13:29:33Z</time>
      </trkpt>
      <trkpt lat="46.16197" lon="5.9616">
        <ele>431.55</ele>
        <time>2014-10-19T13:29:34Z</time>
      </trkpt>
      <trkpt lat="46.1607" lon="5.961">
        <ele>430.39</ele>
        <time>2014-10-19T13:29:52Z</time>
      </trkpt>
      <trkpt lat="46.16004" lon="5.96059">
        <ele>430.3</ele>
        <time>2014-10-19T13:30:03Z</time>
      </trkpt>
      <trkpt lat="46.15952" lon="5.96018">
        <ele>429.94</ele>
        <time>2014-10-19T13:30:12Z</time>
      </trkpt>
      <trkpt lat="46.15876" lon="5.95951">
        <ele>429.3</ele>
        <time>2014-10-19T13:30:25Z</time>
      </trkpt>
      <trkpt lat="46.1578" lon="5.95861">
        <ele>428.92</ele>
        <time>2014-10-19T13:30:41Z</time>
      </trkpt>
      <trkpt lat="46.15736" lon="5.95824">
        <ele>428.65</ele>
        <time>2014-10-19T13:30:48Z</time>
      </trkpt>
      <trkpt lat="46.15729" lon="5.95818">
        <ele>428.65</ele>
        <time>2014-10-19T13:30:49Z</time>
      </trkpt>
      <trkpt lat="46.1563" lon="5.95735">
        <ele>429.93</ele>
        <time>2014-10-19T13:31:06Z</time>
      </trkpt>
      <trkpt lat="46.15536" lon="5.95642">
        <ele>430.87</ele>
        <time>2014-10-19T13:31:26Z</time>
      </trkpt>
      <trkpt lat="46.15458" lon="5.95585">
        <ele>428.16</ele>
        <time>2014-10-19T13:31:38Z</time>
      </trkpt>
      <trkpt lat="46.15334" lon="5.95466">
        <ele>425.98</ele>
        <time>2014-10-19T13:31:59Z</time>
      </trkpt>
      <trkpt lat="46.15246" lon="5.95393">
        <ele>425.57</ele>
        <time>2014-10-19T13:32:13Z</time>
      </trkpt>
      <trkpt lat="46.15239" lon="5.95389">
        <ele>425.48</ele>
        <time>2014-10-19T13:32:14Z</time>
      </trkpt>
      <trkpt lat="46.15178" lon="5.95361">
        <ele>424.85</ele>
        <time>2014-10-19T13:32:23Z</time>
      </trkpt>
      <trkpt lat="46.15171" lon="5.95357">
        <ele>424.83</ele>
        <time>2014-10-19T13:32:24Z</time>
      </trkpt>
      <trkpt lat="46.15109" lon="5.95311">
        <ele>424.3</ele>
        <time>2014-10-19T13:32:34Z</time>
      </trkpt>
      <trkpt lat="46.15103" lon="5.95306">
        <ele>424.18</ele>
        <time>2014-10-19T13:32:35Z</time>
      </trkpt>
      <trkpt lat="46.14996" lon="5.95256">
        <ele>421.23</ele>
        <time>2014-10-19T13:32:50Z</time>
      </trkpt>
      <trkpt lat="46.14957" lon="5.95243">
        <ele>420.66</ele>
        <time>2014-10-19T13:32:55Z</time>
      </trkpt>
      <trkpt lat="46.14949" lon="5.9524">
        <ele>420.12</ele>
        <time>2014-10-19T13:32:56Z</time>
      </trkpt>
      <trkpt lat="46.14933" lon="5.95235">
        <ele>419.34</ele>
        <time>2014-10-19T13:32:58Z</time>
      </trkpt>
      <trkpt lat="46.14872" lon="5.95214">
        <ele>416</ele>
        <time>2014-10-19T13:33:05Z</time>
      </trkpt>
      <trkpt lat="46.14813" lon="5.9518">
        <ele>412.97</ele>
        <time>2014-10-19T13:33:12Z</time>
      </trkpt>
      <trkpt lat="46.14742" lon="5.95142">
        <ele>412.11</ele>
        <time>2014-10-19T13:33:21Z</time>
      </trkpt>
      <trkpt lat="46.14714" lon="5.95137">
        <ele>411.83</ele>
        <time>2014-10-19T13:33:25Z</time>
      </trkpt>
      <trkpt lat="46.14706" lon="5.95137">
        <ele>411.73</ele>
        <time>2014-10-19T13:33:26Z</time>
      </trkpt>
      <trkpt lat="46.14698" lon="5.95139">
        <ele>411.59</ele>
        <time>2014-10-19T13:33:27Z</time>
      </trkpt>
      <trkpt lat="46.14691" lon="5.95143">
        <ele>411.45</ele>
        <time>2014-10-19T13:33:28Z</time>
      </trkpt>
      <trkpt lat="46.14683" lon="5.95149">
        <ele>411.09</ele>
        <time>2014-10-19T13:33:29Z</time>
      </trkpt>
      <trkpt lat="46.14676" lon="5.95157">
        <ele>410.53</ele>
        <time>2014-10-19T13:33:30Z</time>
      </trkpt>
      <trkpt lat="46.1467" lon="5.95167">
        <ele>410.05</ele>
        <time>2014-10-19T13:33:31Z</time>
      </trkpt>
      <trkpt lat="46.14664" lon="5.95178">
        <ele>409.65</ele>
        <time>2014-10-19T13:33:32Z</time>
      </trkpt>
      <trkpt lat="46.14659" lon="5.95189">
        <ele>409.16</ele>
        <time>2014-10-19T13:33:33Z</time>
      </trkpt>
      <trkpt lat="46.14648" lon="5.95213">
        <ele>407.74</ele>
        <time>2014-10-19T13:33:35Z</time>
      </trkpt>
      <trkpt lat="46.14642" lon="5.95225">
        <ele>407.13</ele>
        <time>2014-10-19T13:33:36Z</time>
      </trkpt>
      <trkpt lat="46.14634" lon="5.95235">
        <ele>406.73</ele>
        <time>2014-10-19T13:33:37Z</time>
      </trkpt>
      <trkpt lat="46.14592" lon="5.95288">
        <ele>403.42</ele>
        <time>2014-10-19T13:33:42Z</time>
      </trkpt>
      <trkpt lat="46.14554" lon="5.9534">
        <ele>399.86</ele>
        <time>2014-10-19T13:33:47Z</time>
      </trkpt>
      <trkpt lat="46.14519" lon="5.95404">
        <ele>396.33</ele>
        <time>2014-10-19T13:33:53Z</time>
      </trkpt>
      <trkpt lat="46.14515" lon="5.95417">
        <ele>395.77</ele>
        <time>2014-10-19T13:33:54Z</time>
      </trkpt>
      <trkpt lat="46.14511" lon="5.95432">
        <ele>395.18</ele>
        <time>2014-10-19T13:33:55Z</time>
      </trkpt>
      <trkpt lat="46.14508" lon="5.95448">
        <ele>394.39</ele>
        <time>2014-10-19T13:33:56Z</time>
      </trkpt>
      <trkpt lat="46.14506" lon="5.95465">
        <ele>393.32</ele>
        <time>2014-10-19T13:33:57Z</time>
      </trkpt>
      <trkpt lat="46.14504" lon="5.95481">
        <ele>393.32</ele>
        <time>2014-10-19T13:33:58Z</time>
      </trkpt>
      <trkpt lat="46.14495" lon="5.95529">
        <ele>389.88</ele>
        <time>2014-10-19T13:34:01Z</time>
      </trkpt>
      <trkpt lat="46.14477" lon="5.95587">
        <ele>386.8</ele>
        <time>2014-10-19T13:34:05Z</time>
      </trkpt>
      <trkpt lat="46.14465" lon="5.95607">
        <ele>384.96</ele>
        <time>2014-10-19T13:34:07Z</time>
      </trkpt>
      <trkpt lat="46.14456" lon="5.95613">
        <ele>384.07</ele>
        <time>2014-10-19T13:34:08Z</time>
      </trkpt>
      <trkpt lat="46.1443" lon="5.95626">
        <ele>382.4</ele>
        <time>2014-10-19T13:34:11Z</time>
      </trkpt>
      <trkpt lat="46.14421" lon="5.95631">
        <ele>382</ele>
        <time>2014-10-19T13:34:12Z</time>
      </trkpt>
      <trkpt lat="46.14413" lon="5.95639">
        <ele>381.57</ele>
        <time>2014-10-19T13:34:13Z</time>
      </trkpt>
      <trkpt lat="46.14406" lon="5.9565">
        <ele>381.16</ele>
        <time>2014-10-19T13:34:14Z</time>
      </trkpt>
      <trkpt lat="46.14399" lon="5.95662">
        <ele>380.54</ele>
        <time>2014-10-19T13:34:15Z</time>
      </trkpt>
      <trkpt lat="46.14393" lon="5.95675">
        <ele>379.58</ele>
        <time>2014-10-19T13:34:16Z</time>
      </trkpt>
      <trkpt lat="46.14387" lon="5.95688">
        <ele>378.53</ele>
        <time>2014-10-19T13:34:17Z</time>
      </trkpt>
      <trkpt lat="46.14367" lon="5.95725">
        <ele>375.47</ele>
        <time>2014-10-19T13:34:20Z</time>
      </trkpt>
      <trkpt lat="46.14359" lon="5.95734">
        <ele>374.63</ele>
        <time>2014-10-19T13:34:21Z</time>
      </trkpt>
      <trkpt lat="46.14352" lon="5.95742">
        <ele>373.95</ele>
        <time>2014-10-19T13:34:22Z</time>
      </trkpt>
      <trkpt lat="46.14338" lon="5.95754">
        <ele>373.06</ele>
        <time>2014-10-19T13:34:24Z</time>
      </trkpt>
      <trkpt lat="46.14333" lon="5.95762">
        <ele>372.77</ele>
        <time>2014-10-19T13:34:25Z</time>
      </trkpt>
      <trkpt lat="46.14331" lon="5.95771">
        <ele>372.67</ele>
        <time>2014-10-19T13:34:26Z</time>
      </trkpt>
      <trkpt lat="46.14333" lon="5.95791">
        <ele>372.51</ele>
        <time>2014-10-19T13:34:28Z</time>
      </trkpt>
      <trkpt lat="46.14337" lon="5.958">
        <ele>372.42</ele>
        <time>2014-10-19T13:34:29Z</time>
      </trkpt>
      <trkpt lat="46.14343" lon="5.95809">
        <ele>372.42</ele>
        <time>2014-10-19T13:34:30Z</time>
      </trkpt>
      <trkpt lat="46.14349" lon="5.95818">
        <ele>372.21</ele>
        <time>2014-10-19T13:34:31Z</time>
      </trkpt>
      <trkpt lat="46.14355" lon="5.95826">
        <ele>371.66</ele>
        <time>2014-10-19T13:34:32Z</time>
      </trkpt>
      <trkpt lat="46.14366" lon="5.95843">
        <ele>370.71</ele>
        <time>2014-10-19T13:34:34Z</time>
      </trkpt>
      <trkpt lat="46.14371" lon="5.95852">
        <ele>370.31</ele>
        <time>2014-10-19T13:34:35Z</time>
      </trkpt>
      <trkpt lat="46.14375" lon="5.95861">
        <ele>369.81</ele>
        <time>2014-10-19T13:34:36Z</time>
      </trkpt>
      <trkpt lat="46.14378" lon="5.95871">
        <ele>369.35</ele>
        <time>2014-10-19T13:34:37Z</time>
      </trkpt>
      <trkpt lat="46.14381" lon="5.95882">
        <ele>369.02</ele>
        <time>2014-10-19T13:34:38Z</time>
      </trkpt>
      <trkpt lat="46.14384" lon="5.95893">
        <ele>368.57</ele>
        <time>2014-10-19T13:34:39Z</time>
      </trkpt>
      <trkpt lat="46.144" lon="5.95961">
        <ele>365.43</ele>
        <time>2014-10-19T13:34:45Z</time>
      </trkpt>
      <trkpt lat="46.14406" lon="5.96017">
        <ele>361.9</ele>
        <time>2014-10-19T13:34:50Z</time>
      </trkpt>
      <trkpt lat="46.14406" lon="5.96046">
        <ele>360.54</ele>
        <time>2014-10-19T13:34:53Z</time>
      </trkpt>
      <trkpt lat="46.14405" lon="5.96054">
        <ele>360.16</ele>
        <time>2014-10-19T13:34:54Z</time>
      </trkpt>
      <trkpt lat="46.14404" lon="5.96061">
        <ele>359.74</ele>
        <time>2014-10-19T13:34:55Z</time>
      </trkpt>
      <trkpt lat="46.14404" lon="5.96067">
        <ele>359.26</ele>
        <time>2014-10-19T13:34:56Z</time>
      </trkpt>
      <trkpt lat="46.14403" lon="5.96072">
        <ele>358.62</ele>
        <time>2014-10-19T13:34:57Z</time>
      </trkpt>
      <trkpt lat="46.14402" lon="5.96075">
        <ele>358.06</ele>
        <time>2014-10-19T13:34:58Z</time>
      </trkpt>
      <trkpt lat="46.14402" lon="5.96078">
        <ele>357.69</ele>
        <time>2014-10-19T13:34:59Z</time>
      </trkpt>
      <trkpt lat="46.14401" lon="5.96081">
        <ele>357.38</ele>
        <time>2014-10-19T13:35:00Z</time>
      </trkpt>
      <trkpt lat="46.14402" lon="5.96085">
        <ele>357.22</ele>
        <time>2014-10-19T13:35:01Z</time>
      </trkpt>
      <trkpt lat="46.14402" lon="5.96089">
        <ele>357.04</ele>
        <time>2014-10-19T13:35:02Z</time>
      </trkpt>
      <trkpt lat="46.14403" lon="5.96094">
        <ele>357.04</ele>
        <time>2014-10-19T13:35:03Z</time>
      </trkpt>
      <trkpt lat="46.14403" lon="5.961">
        <ele>356.96</ele>
        <time>2014-10-19T13:35:04Z</time>
      </trkpt>
      <trkpt lat="46.14404" lon="5.96106">
        <ele>356.95</ele>
        <time>2014-10-19T13:35:05Z</time>
      </trkpt>
      <trkpt lat="46.14406" lon="5.96111">
        <ele>356.88</ele>
        <time>2014-10-19T13:35:06Z</time>
      </trkpt>
      <trkpt lat="46.14407" lon="5.96117">
        <ele>356.84</ele>
        <time>2014-10-19T13:35:07Z</time>
      </trkpt>
      <trkpt lat="46.1441" lon="5.96123">
        <ele>356.78</ele>
        <time>2014-10-19T13:35:08Z</time>
      </trkpt>
      <trkpt lat="46.14424" lon="5.9616">
        <ele>355.73</ele>
        <time>2014-10-19T13:35:13Z</time>
      </trkpt>
      <trkpt lat="46.14431" lon="5.9618">
        <ele>355.53</ele>
        <time>2014-10-19T13:35:15Z</time>
      </trkpt>
      <trkpt lat="46.1444" lon="5.96225">
        <ele>353.95</ele>
        <time>2014-10-19T13:35:19Z</time>
      </trkpt>
      <trkpt lat="46.14441" lon="5.96237">
        <ele>353.32</ele>
        <time>2014-10-19T13:35:20Z</time>
      </trkpt>
      <trkpt lat="46.14441" lon="5.96263">
        <ele>352.27</ele>
        <time>2014-10-19T13:35:22Z</time>
      </trkpt>
      <trkpt lat="46.14441" lon="5.96277">
        <ele>351.7</ele>
        <time>2014-10-19T13:35:23Z</time>
      </trkpt>
      <trkpt lat="46.14438" lon="5.96337">
        <ele>348.39</ele>
        <time>2014-10-19T13:35:27Z</time>
      </trkpt>
      <trkpt lat="46.14434" lon="5.964">
        <ele>345.36</ele>
        <time>2014-10-19T13:35:31Z</time>
      </trkpt>
      <trkpt lat="46.14424" lon="5.96555">
        <ele>343.78</ele>
        <time>2014-10-19T13:35:43Z</time>
      </trkpt>
      <trkpt lat="46.14426" lon="5.96565">
        <ele>343.83</ele>
        <time>2014-10-19T13:35:44Z</time>
      </trkpt>
      <trkpt lat="46.14429" lon="5.96575">
        <ele>343.86</ele>
        <time>2014-10-19T13:35:45Z</time>
      </trkpt>
      <trkpt lat="46.14434" lon="5.96583">
        <ele>343.7</ele>
        <time>2014-10-19T13:35:46Z</time>
      </trkpt>
      <trkpt lat="46.14439" lon="5.9659">
        <ele>343.49</ele>
        <time>2014-10-19T13:35:47Z</time>
      </trkpt>
      <trkpt lat="46.14446" lon="5.96595">
        <ele>343.29</ele>
        <time>2014-10-19T13:35:48Z</time>
      </trkpt>
      <trkpt lat="46.14453" lon="5.96599">
        <ele>343.22</ele>
        <time>2014-10-19T13:35:49Z</time>
      </trkpt>
      <trkpt lat="46.14544" lon="5.9664">
        <ele>341.91</ele>
        <time>2014-10-19T13:36:02Z</time>
      </trkpt>
      <trkpt lat="46.14647" lon="5.96718">
        <ele>341.28</ele>
        <time>2014-10-19T13:36:19Z</time>
      </trkpt>
      <trkpt lat="46.1473" lon="5.96782">
        <ele>343.14</ele>
        <time>2014-10-19T13:36:35Z</time>
      </trkpt>
      <trkpt lat="46.14787" lon="5.96826">
        <ele>345.74</ele>
        <time>2014-10-19T13:36:49Z</time>
      </trkpt>
      <trkpt lat="46.1479" lon="5.96829">
        <ele>346</ele>
        <time>2014-10-19T13:36:50Z</time>
      </trkpt>
      <trkpt lat="46.14819" lon="5.96864">
        <ele>348.57</ele>
        <time>2014-10-19T13:37:02Z</time>
      </trkpt>
      <trkpt lat="46.14846" lon="5.96889">
        <ele>350.89</ele>
        <time>2014-10-19T13:37:12Z</time>
      </trkpt>
      <trkpt lat="46.14858" lon="5.96899">
        <ele>351.43</ele>
        <time>2014-10-19T13:37:16Z</time>
      </trkpt>
      <trkpt lat="46.14868" lon="5.96906">
        <ele>351.66</ele>
        <time>2014-10-19T13:37:19Z</time>
      </trkpt>
      <trkpt lat="46.149" lon="5.96932">
        <ele>354.09</ele>
        <time>2014-10-19T13:37:30Z</time>
      </trkpt>
      <trkpt lat="46.14914" lon="5.96943">
        <ele>355.14</ele>
        <time>2014-10-19T13:37:35Z</time>
      </trkpt>
      <trkpt lat="46.14937" lon="5.96958">
        <ele>356.72</ele>
        <time>2014-10-19T13:37:42Z</time>
      </trkpt>
      <trkpt lat="46.14943" lon="5.96963">
        <ele>357.09</ele>
        <time>2014-10-19T13:37:44Z</time>
      </trkpt>
      <trkpt lat="46.14957" lon="5.96971">
        <ele>357.26</ele>
        <time>2014-10-19T13:37:48Z</time>
      </trkpt>
      <trkpt lat="46.14974" lon="5.9698">
        <ele>357.79</ele>
        <time>2014-10-19T13:37:53Z</time>
      </trkpt>
      <trkpt lat="46.15018" lon="5.9701">
        <ele>358.84</ele>
        <time>2014-10-19T13:38:06Z</time>
      </trkpt>
      <trkpt lat="46.15021" lon="5.97046">
        <ele>358.89</ele>
        <time>2014-10-19T13:38:13Z</time>
      </trkpt>
      <trkpt lat="46.15011" lon="5.97092">
        <ele>359.38</ele>
        <time>2014-10-19T13:38:21Z</time>
      </trkpt>
      <trkpt lat="46.15003" lon="5.97124">
        <ele>359.6</ele>
        <time>2014-10-19T13:38:26Z</time>
      </trkpt>
      <trkpt lat="46.14989" lon="5.9718">
        <ele>359.71</ele>
        <time>2014-10-19T13:38:34Z</time>
      </trkpt>
      <trkpt lat="46.14958" lon="5.97257">
        <ele>360.52</ele>
        <time>2014-10-19T13:38:46Z</time>
      </trkpt>
      <trkpt lat="46.14953" lon="5.97266">
        <ele>360.69</ele>
        <time>2014-10-19T13:38:48Z</time>
      </trkpt>
      <trkpt lat="46.14949" lon="5.97275">
        <ele>360.91</ele>
        <time>2014-10-19T13:38:50Z</time>
      </trkpt>
      <trkpt lat="46.1498" lon="5.97331">
        <ele>361</ele>
        <time>2014-10-19T13:39:01Z</time>
      </trkpt>
      <trkpt lat="46.14985" lon="5.97363">
        <ele>361.3</ele>
        <time>2014-10-19T13:39:06Z</time>
      </trkpt>
      <trkpt lat="46.14984" lon="5.97383">
        <ele>361.17</ele>
        <time>2014-10-19T13:39:09Z</time>
      </trkpt>
      <trkpt lat="46.14968" lon="5.97453">
        <ele>360.82</ele>
        <time>2014-10-19T13:39:19Z</time>
      </trkpt>
      <trkpt lat="46.14967" lon="5.9746">
        <ele>360.8</ele>
        <time>2014-10-19T13:39:20Z</time>
      </trkpt>
      <trkpt lat="46.14975" lon="5.97574">
        <ele>361.15</ele>
        <time>2014-10-19T13:39:36Z</time>
      </trkpt>
      <trkpt lat="46.14979" lon="5.97674">
        <ele>361.49</ele>
        <time>2014-10-19T13:39:49Z</time>
      </trkpt>
      <trkpt lat="46.14981" lon="5.97722">
        <ele>361.18</ele>
        <time>2014-10-19T13:39:55Z</time>
      </trkpt>
      <trkpt lat="46.15003" lon="5.97864">
        <ele>360.73</ele>
        <time>2014-10-19T13:40:13Z</time>
      </trkpt>
      <trkpt lat="46.15014" lon="5.97918">
        <ele>360.06</ele>
        <time>2014-10-19T13:40:21Z</time>
      </trkpt>
      <trkpt lat="46.15039" lon="5.98056">
        <ele>360.8</ele>
        <time>2014-10-19T13:40:40Z</time>
      </trkpt>
      <trkpt lat="46.15078" lon="5.98218">
        <ele>361.14</ele>
        <time>2014-10-19T13:41:01Z</time>
      </trkpt>
      <trkpt lat="46.15113" lon="5.98357">
        <ele>363.49</ele>
        <time>2014-10-19T13:41:21Z</time>
      </trkpt>
      <trkpt lat="46.15117" lon="5.98428">
        <ele>365.46</ele>
        <time>2014-10-19T13:41:34Z</time>
      </trkpt>
      <trkpt lat="46.15118" lon="5.98483">
        <ele>367.87</ele>
        <time>2014-10-19T13:41:46Z</time>
      </trkpt>
      <trkpt lat="46.15123" lon="5.98528">
        <ele>370.35</ele>
        <time>2014-10-19T13:41:58Z</time>
      </trkpt>
      <trkpt lat="46.15123" lon="5.98532">
        <ele>370.45</ele>
        <time>2014-10-19T13:41:59Z</time>
      </trkpt>
      <trkpt lat="46.15127" lon="5.98578">
        <ele>373.62</ele>
        <time>2014-10-19T13:42:12Z</time>
      </trkpt>
      <trkpt lat="46.15128" lon="5.98584">
        <ele>373.93</ele>
        <time>2014-10-19T13:42:14Z</time>
      </trkpt>
      <trkpt lat="46.15137" lon="5.9861">
        <ele>377.24</ele>
        <time>2014-10-19T13:42:24Z</time>
      </trkpt>
      <trkpt lat="46.15148" lon="5.98637">
        <ele>380.56</ele>
        <time>2014-10-19T13:42:34Z</time>
      </trkpt>
      <trkpt lat="46.15154" lon="5.98647">
        <ele>381.41</ele>
        <time>2014-10-19T13:42:38Z</time>
      </trkpt>
      <trkpt lat="46.1516" lon="5.9866">
        <ele>382.81</ele>
        <time>2014-10-19T13:42:43Z</time>
      </trkpt>
      <trkpt lat="46.15167" lon="5.98671">
        <ele>385.03</ele>
        <time>2014-10-19T13:42:48Z</time>
      </trkpt>
      <trkpt lat="46.1518" lon="5.98693">
        <ele>388.43</ele>
        <time>2014-10-19T13:42:57Z</time>
      </trkpt>
      <trkpt lat="46.1519" lon="5.98708">
        <ele>390.51</ele>
        <time>2014-10-19T13:43:03Z</time>
      </trkpt>
      <trkpt lat="46.15196" lon="5.98724">
        <ele>392.82</ele>
        <time>2014-10-19T13:43:09Z</time>
      </trkpt>
      <trkpt lat="46.15198" lon="5.98731">
        <ele>393.69</ele>
        <time>2014-10-19T13:43:12Z</time>
      </trkpt>
      <trkpt lat="46.152" lon="5.98743">
        <ele>395.08</ele>
        <time>2014-10-19T13:43:16Z</time>
      </trkpt>
      <trkpt lat="46.15204" lon="5.98771">
        <ele>398.29</ele>
        <time>2014-10-19T13:43:25Z</time>
      </trkpt>
      <trkpt lat="46.15205" lon="5.98778">
        <ele>399.07</ele>
        <time>2014-10-19T13:43:27Z</time>
      </trkpt>
      <trkpt lat="46.15213" lon="5.98807">
        <ele>401.7</ele>
        <time>2014-10-19T13:43:36Z</time>
      </trkpt>
      <trkpt lat="46.15222" lon="5.98852">
        <ele>404.64</ele>
        <time>2014-10-19T13:43:48Z</time>
      </trkpt>
      <trkpt lat="46.15228" lon="5.98883">
        <ele>405.61</ele>
        <time>2014-10-19T13:43:56Z</time>
      </trkpt>
      <trkpt lat="46.15238" lon="5.98902">
        <ele>408.01</ele>
        <time>2014-10-19T13:44:04Z</time>
      </trkpt>
      <trkpt lat="46.15243" lon="5.98914">
        <ele>409.04</ele>
        <time>2014-10-19T13:44:08Z</time>
      </trkpt>
      <trkpt lat="46.15245" lon="5.98923">
        <ele>409.45</ele>
        <time>2014-10-19T13:44:24Z</time>
      </trkpt>
      <trkpt lat="46.15241" lon="5.98922">
        <ele>408.99</ele>
        <time>2014-10-19T13:44:39Z</time>
      </trkpt>
      <trkpt lat="46.15243" lon="5.98938">
        <ele>408.48</ele>
        <time>2014-10-19T13:45:04Z</time>
      </trkpt>
      <trkpt lat="46.15243" lon="5.98936">
        <ele>408.13</ele>
        <time>2014-10-19T13:45:44Z</time>
      </trkpt>
      <trkpt lat="46.15242" lon="5.98934">
        <ele>408.19</ele>
        <time>2014-10-19T13:46:14Z</time>
      </trkpt>
      <trkpt lat="46.15225" lon="5.98913">
        <ele>408.93</ele>
        <time>2014-10-19T13:46:26Z</time>
      </trkpt>
      <trkpt lat="46.15215" lon="5.98903">
        <ele>408.95</ele>
        <time>2014-10-19T13:46:30Z</time>
      </trkpt>
      <trkpt lat="46.15198" lon="5.98894">
        <ele>408.92</ele>
        <time>2014-10-19T13:46:36Z</time>
      </trkpt>
      <trkpt lat="46.15177" lon="5.98894">
        <ele>408.71</ele>
        <time>2014-10-19T13:46:42Z</time>
      </trkpt>
      <trkpt lat="46.15161" lon="5.98898">
        <ele>409.63</ele>
        <time>2014-10-19T13:46:47Z</time>
      </trkpt>
      <trkpt lat="46.15141" lon="5.98939">
        <ele>410.18</ele>
        <time>2014-10-19T13:46:57Z</time>
      </trkpt>
      <trkpt lat="46.15136" lon="5.98952">
        <ele>410.18</ele>
        <time>2014-10-19T13:47:00Z</time>
      </trkpt>
      <trkpt lat="46.15125" lon="5.9897">
        <ele>410.33</ele>
        <time>2014-10-19T13:47:05Z</time>
      </trkpt>
      <trkpt lat="46.15122" lon="5.98974">
        <ele>410.66</ele>
        <time>2014-10-19T13:47:06Z</time>
      </trkpt>
      <trkpt lat="46.151" lon="5.9902">
        <ele>410.23</ele>
        <time>2014-10-19T13:47:14Z</time>
      </trkpt>
      <trkpt lat="46.15099" lon="5.99051">
        <ele>409.82</ele>
        <time>2014-10-19T13:47:18Z</time>
      </trkpt>
      <trkpt lat="46.15102" lon="5.9907">
        <ele>409.51</ele>
        <time>2014-10-19T13:47:20Z</time>
      </trkpt>
      <trkpt lat="46.15132" lon="5.99185">
        <ele>407.82</ele>
        <time>2014-10-19T13:47:34Z</time>
      </trkpt>
      <trkpt lat="46.15134" lon="5.99192">
        <ele>408.13</ele>
        <time>2014-10-19T13:47:35Z</time>
      </trkpt>
      <trkpt lat="46.15132" lon="5.99225">
        <ele>408.54</ele>
        <time>2014-10-19T13:47:41Z</time>
      </trkpt>
      <trkpt lat="46.15129" lon="5.99241">
        <ele>408.66</ele>
        <time>2014-10-19T13:47:44Z</time>
      </trkpt>
      <trkpt lat="46.15117" lon="5.99272">
        <ele>408.61</ele>
        <time>2014-10-19T13:47:49Z</time>
      </trkpt>
      <trkpt lat="46.15054" lon="5.99356">
        <ele>405.5</ele>
        <time>2014-10-19T13:48:01Z</time>
      </trkpt>
      <trkpt lat="46.15022" lon="5.99393">
        <ele>405.09</ele>
        <time>2014-10-19T13:48:09Z</time>
      </trkpt>
      <trkpt lat="46.15024" lon="5.99409">
        <ele>404.99</ele>
        <time>2014-10-19T13:48:12Z</time>
      </trkpt>
      <trkpt lat="46.15037" lon="5.99435">
        <ele>405.28</ele>
        <time>2014-10-19T13:48:17Z</time>
      </trkpt>
      <trkpt lat="46.15103" lon="5.99504">
        <ele>406.81</ele>
        <time>2014-10-19T13:48:35Z</time>
      </trkpt>
      <trkpt lat="46.15127" lon="5.99526">
        <ele>407.83</ele>
        <time>2014-10-19T13:48:41Z</time>
      </trkpt>
      <trkpt lat="46.15141" lon="5.99545">
        <ele>408.15</ele>
        <time>2014-10-19T13:48:45Z</time>
      </trkpt>
      <trkpt lat="46.15144" lon="5.99559">
        <ele>408.18</ele>
        <time>2014-10-19T13:48:47Z</time>
      </trkpt>
      <trkpt lat="46.15147" lon="5.99685">
        <ele>404.58</ele>
        <time>2014-10-19T13:48:59Z</time>
      </trkpt>
      <trkpt lat="46.15132" lon="5.99791">
        <ele>401.75</ele>
        <time>2014-10-19T13:49:07Z</time>
      </trkpt>
      <trkpt lat="46.15093" lon="5.99875">
        <ele>397.95</ele>
        <time>2014-10-19T13:49:14Z</time>
      </trkpt>
      <trkpt lat="46.15041" lon="5.99875">
        <ele>395.23</ele>
        <time>2014-10-19T13:49:19Z</time>
      </trkpt>
      <trkpt lat="46.15022" lon="5.99856">
        <ele>393.52</ele>
        <time>2014-10-19T13:49:21Z</time>
      </trkpt>
      <trkpt lat="46.14989" lon="5.99812">
        <ele>390.48</ele>
        <time>2014-10-19T13:49:25Z</time>
      </trkpt>
      <trkpt lat="46.14951" lon="5.99788">
        <ele>389.06</ele>
        <time>2014-10-19T13:49:29Z</time>
      </trkpt>
      <trkpt lat="46.14892" lon="5.99812">
        <ele>387.69</ele>
        <time>2014-10-19T13:49:36Z</time>
      </trkpt>
      <trkpt lat="46.14813" lon="5.99915">
        <ele>384.95</ele>
        <time>2014-10-19T13:49:48Z</time>
      </trkpt>
      <trkpt lat="46.14807" lon="5.99922">
        <ele>384.83</ele>
        <time>2014-10-19T13:49:49Z</time>
      </trkpt>
      <trkpt lat="46.14747" lon="5.99999">
        <ele>386.33</ele>
        <time>2014-10-19T13:50:01Z</time>
      </trkpt>
      <trkpt lat="46.14713" lon="6.00041">
        <ele>389.59</ele>
        <time>2014-10-19T13:50:11Z</time>
      </trkpt>
      <trkpt lat="46.14676" lon="6.00086">
        <ele>392.65</ele>
        <time>2014-10-19T13:50:24Z</time>
      </trkpt>
      <trkpt lat="46.14673" lon="6.00089">
        <ele>392.9</ele>
        <time>2014-10-19T13:50:25Z</time>
      </trkpt>
      <trkpt lat="46.14671" lon="6.00091">
        <ele>393.26</ele>
        <time>2014-10-19T13:50:26Z</time>
      </trkpt>
      <trkpt lat="46.14669" lon="6.00094">
        <ele>393.63</ele>
        <time>2014-10-19T13:50:27Z</time>
      </trkpt>
      <trkpt lat="46.14667" lon="6.00097">
        <ele>393.91</ele>
        <time>2014-10-19T13:50:28Z</time>
      </trkpt>
      <trkpt lat="46.14664" lon="6.001">
        <ele>394.08</ele>
        <time>2014-10-19T13:50:29Z</time>
      </trkpt>
      <trkpt lat="46.14662" lon="6.00103">
        <ele>394.22</ele>
        <time>2014-10-19T13:50:30Z</time>
      </trkpt>
      <trkpt lat="46.14655" lon="6.00112">
        <ele>394.94</ele>
        <time>2014-10-19T13:50:33Z</time>
      </trkpt>
      <trkpt lat="46.14653" lon="6.00115">
        <ele>395.21</ele>
        <time>2014-10-19T13:50:34Z</time>
      </trkpt>
      <trkpt lat="46.1465" lon="6.00118">
        <ele>395.47</ele>
        <time>2014-10-19T13:50:35Z</time>
      </trkpt>
      <trkpt lat="46.14648" lon="6.00121">
        <ele>395.73</ele>
        <time>2014-10-19T13:50:36Z</time>
      </trkpt>
      <trkpt lat="46.14646" lon="6.00124">
        <ele>395.99</ele>
        <time>2014-10-19T13:50:37Z</time>
      </trkpt>
      <trkpt lat="46.14643" lon="6.00126">
        <ele>396.21</ele>
        <time>2014-10-19T13:50:38Z</time>
      </trkpt>
      <trkpt lat="46.14641" lon="6.00129">
        <ele>396.39</ele>
        <time>2014-10-19T13:50:39Z</time>
      </trkpt>
      <trkpt lat="46.14638" lon="6.00133">
        <ele>396.58</ele>
        <time>2014-10-19T13:50:40Z</time>
      </trkpt>
      <trkpt lat="46.14627" lon="6.00146">
        <ele>397.17</ele>
        <time>2014-10-19T13:50:44Z</time>
      </trkpt>
      <trkpt lat="46.14625" lon="6.00149">
        <ele>397.32</ele>
        <time>2014-10-19T13:50:45Z</time>
      </trkpt>
      <trkpt lat="46.14622" lon="6.00152">
        <ele>397.57</ele>
        <time>2014-10-19T13:50:46Z</time>
      </trkpt>
      <trkpt lat="46.1462" lon="6.00155">
        <ele>397.98</ele>
        <time>2014-10-19T13:50:47Z</time>
      </trkpt>
      <trkpt lat="46.14617" lon="6.00158">
        <ele>398.38</ele>
        <time>2014-10-19T13:50:48Z</time>
      </trkpt>
      <trkpt lat="46.14615" lon="6.00161">
        <ele>398.61</ele>
        <time>2014-10-19T13:50:49Z</time>
      </trkpt>
      <trkpt lat="46.14612" lon="6.00164">
        <ele>398.72</ele>
        <time>2014-10-19T13:50:50Z</time>
      </trkpt>
      <trkpt lat="46.1461" lon="6.00167">
        <ele>398.82</ele>
        <time>2014-10-19T13:50:51Z</time>
      </trkpt>
      <trkpt lat="46.14589" lon="6.00204">
        <ele>400.61</ele>
        <time>2014-10-19T13:51:02Z</time>
      </trkpt>
      <trkpt lat="46.14587" lon="6.00226">
        <ele>401.84</ele>
        <time>2014-10-19T13:51:07Z</time>
      </trkpt>
      <trkpt lat="46.14587" lon="6.0023">
        <ele>402.05</ele>
        <time>2014-10-19T13:51:08Z</time>
      </trkpt>
      <trkpt lat="46.14587" lon="6.00233">
        <ele>402.25</ele>
        <time>2014-10-19T13:51:09Z</time>
      </trkpt>
      <trkpt lat="46.14587" lon="6.00238">
        <ele>402.47</ele>
        <time>2014-10-19T13:51:10Z</time>
      </trkpt>
      <trkpt lat="46.14587" lon="6.00241">
        <ele>402.65</ele>
        <time>2014-10-19T13:51:11Z</time>
      </trkpt>
      <trkpt lat="46.14588" lon="6.00245">
        <ele>402.77</ele>
        <time>2014-10-19T13:51:12Z</time>
      </trkpt>
      <trkpt lat="46.14588" lon="6.00249">
        <ele>402.77</ele>
        <time>2014-10-19T13:51:13Z</time>
      </trkpt>
      <trkpt lat="46.14589" lon="6.00252">
        <ele>402.97</ele>
        <time>2014-10-19T13:51:14Z</time>
      </trkpt>
      <trkpt lat="46.1459" lon="6.00259">
        <ele>403.35</ele>
        <time>2014-10-19T13:51:16Z</time>
      </trkpt>
      <trkpt lat="46.1459" lon="6.00263">
        <ele>403.53</ele>
        <time>2014-10-19T13:51:17Z</time>
      </trkpt>
      <trkpt lat="46.1459" lon="6.00266">
        <ele>403.73</ele>
        <time>2014-10-19T13:51:18Z</time>
      </trkpt>
      <trkpt lat="46.1459" lon="6.00269">
        <ele>403.9</ele>
        <time>2014-10-19T13:51:19Z</time>
      </trkpt>
      <trkpt lat="46.14591" lon="6.00273">
        <ele>404.09</ele>
        <time>2014-10-19T13:51:20Z</time>
      </trkpt>
      <trkpt lat="46.14591" lon="6.00276">
        <ele>404.28</ele>
        <time>2014-10-19T13:51:21Z</time>
      </trkpt>
      <trkpt lat="46.1459" lon="6.0028">
        <ele>404.5</ele>
        <time>2014-10-19T13:51:22Z</time>
      </trkpt>
      <trkpt lat="46.14577" lon="6.00332">
        <ele>406.67</ele>
        <time>2014-10-19T13:51:34Z</time>
      </trkpt>
      <trkpt lat="46.14574" lon="6.00343">
        <ele>407.35</ele>
        <time>2014-10-19T13:51:37Z</time>
      </trkpt>
      <trkpt lat="46.14573" lon="6.00346">
        <ele>407.5</ele>
        <time>2014-10-19T13:51:38Z</time>
      </trkpt>
      <trkpt lat="46.14571" lon="6.00349">
        <ele>407.62</ele>
        <time>2014-10-19T13:51:39Z</time>
      </trkpt>
      <trkpt lat="46.14569" lon="6.00352">
        <ele>407.67</ele>
        <time>2014-10-19T13:51:40Z</time>
      </trkpt>
      <trkpt lat="46.14568" lon="6.00355">
        <ele>407.74</ele>
        <time>2014-10-19T13:51:41Z</time>
      </trkpt>
      <trkpt lat="46.14567" lon="6.00358">
        <ele>407.86</ele>
        <time>2014-10-19T13:51:42Z</time>
      </trkpt>
      <trkpt lat="46.14566" lon="6.00362">
        <ele>408.02</ele>
        <time>2014-10-19T13:51:43Z</time>
      </trkpt>
      <trkpt lat="46.14565" lon="6.00366">
        <ele>408.1</ele>
        <time>2014-10-19T13:51:44Z</time>
      </trkpt>
      <trkpt lat="46.14564" lon="6.00369">
        <ele>408.2</ele>
        <time>2014-10-19T13:51:45Z</time>
      </trkpt>
      <trkpt lat="46.14548" lon="6.00411">
        <ele>409.22</ele>
        <time>2014-10-19T13:51:57Z</time>
      </trkpt>
      <trkpt lat="46.14528" lon="6.00475">
        <ele>409.81</ele>
        <time>2014-10-19T13:52:15Z</time>
      </trkpt>
      <trkpt lat="46.14513" lon="6.00526">
        <ele>410.69</ele>
        <time>2014-10-19T13:52:28Z</time>
      </trkpt>
      <trkpt lat="46.14506" lon="6.00546">
        <ele>410.91</ele>
        <time>2014-10-19T13:52:33Z</time>
      </trkpt>
      <trkpt lat="46.14504" lon="6.00549">
        <ele>410.87</ele>
        <time>2014-10-19T13:52:34Z</time>
      </trkpt>
      <trkpt lat="46.14502" lon="6.00552">
        <ele>410.85</ele>
        <time>2014-10-19T13:52:35Z</time>
      </trkpt>
      <trkpt lat="46.14483" lon="6.0061">
        <ele>411</ele>
        <time>2014-10-19T13:52:49Z</time>
      </trkpt>
      <trkpt lat="46.14481" lon="6.00619">
        <ele>410.97</ele>
        <time>2014-10-19T13:52:51Z</time>
      </trkpt>
      <trkpt lat="46.1448" lon="6.00624">
        <ele>410.88</ele>
        <time>2014-10-19T13:52:52Z</time>
      </trkpt>
      <trkpt lat="46.14479" lon="6.00629">
        <ele>410.97</ele>
        <time>2014-10-19T13:52:53Z</time>
      </trkpt>
      <trkpt lat="46.14478" lon="6.00639">
        <ele>410.98</ele>
        <time>2014-10-19T13:52:55Z</time>
      </trkpt>
      <trkpt lat="46.14477" lon="6.00644">
        <ele>411.1</ele>
        <time>2014-10-19T13:52:56Z</time>
      </trkpt>
      <trkpt lat="46.14475" lon="6.00654">
        <ele>411.13</ele>
        <time>2014-10-19T13:52:58Z</time>
      </trkpt>
      <trkpt lat="46.14475" lon="6.00658">
        <ele>411.3</ele>
        <time>2014-10-19T13:52:59Z</time>
      </trkpt>
      <trkpt lat="46.14474" lon="6.00663">
        <ele>411.36</ele>
        <time>2014-10-19T13:53:00Z</time>
      </trkpt>
      <trkpt lat="46.1447" lon="6.00733">
        <ele>412.13</ele>
        <time>2014-10-19T13:53:14Z</time>
      </trkpt>
      <trkpt lat="46.14467" lon="6.00755">
        <ele>412.24</ele>
        <time>2014-10-19T13:53:18Z</time>
      </trkpt>
      <trkpt lat="46.14466" lon="6.00761">
        <ele>412.29</ele>
        <time>2014-10-19T13:53:19Z</time>
      </trkpt>
      <trkpt lat="46.14465" lon="6.00766">
        <ele>412.38</ele>
        <time>2014-10-19T13:53:20Z</time>
      </trkpt>
      <trkpt lat="46.14464" lon="6.00772">
        <ele>412.43</ele>
        <time>2014-10-19T13:53:21Z</time>
      </trkpt>
      <trkpt lat="46.14463" lon="6.00778">
        <ele>412.35</ele>
        <time>2014-10-19T13:53:22Z</time>
      </trkpt>
      <trkpt lat="46.14454" lon="6.00811">
        <ele>411.99</ele>
        <time>2014-10-19T13:53:28Z</time>
      </trkpt>
      <trkpt lat="46.14452" lon="6.00817">
        <ele>411.91</ele>
        <time>2014-10-19T13:53:29Z</time>
      </trkpt>
      <trkpt lat="46.14451" lon="6.00824">
        <ele>411.87</ele>
        <time>2014-10-19T13:53:30Z</time>
      </trkpt>
      <trkpt lat="46.14446" lon="6.00845">
        <ele>411.77</ele>
        <time>2014-10-19T13:53:33Z</time>
      </trkpt>
      <trkpt lat="46.14438" lon="6.00875">
        <ele>411.01</ele>
        <time>2014-10-19T13:53:37Z</time>
      </trkpt>
      <trkpt lat="46.14432" lon="6.00903">
        <ele>409.71</ele>
        <time>2014-10-19T13:53:41Z</time>
      </trkpt>
      <trkpt lat="46.14431" lon="6.00912">
        <ele>409.38</ele>
        <time>2014-10-19T13:53:43Z</time>
      </trkpt>
      <trkpt lat="46.1443" lon="6.00915">
        <ele>409.09</ele>
        <time>2014-10-19T13:53:44Z</time>
      </trkpt>
      <trkpt lat="46.1443" lon="6.00919">
        <ele>408.82</ele>
        <time>2014-10-19T13:53:45Z</time>
      </trkpt>
      <trkpt lat="46.1443" lon="6.00921">
        <ele>408.59</ele>
        <time>2014-10-19T13:53:46Z</time>
      </trkpt>
      <trkpt lat="46.1443" lon="6.00924">
        <ele>408.37</ele>
        <time>2014-10-19T13:53:47Z</time>
      </trkpt>
      <trkpt lat="46.14433" lon="6.00924">
        <ele>407.68</ele>
        <time>2014-10-19T13:54:02Z</time>
      </trkpt>
      <trkpt lat="46.14435" lon="6.00925">
        <ele>407.58</ele>
        <time>2014-10-19T13:54:22Z</time>
      </trkpt>
      <trkpt lat="46.14434" lon="6.00927">
        <ele>407.66</ele>
        <time>2014-10-19T13:55:00Z</time>
      </trkpt>
      <trkpt lat="46.14433" lon="6.00928">
        <ele>407.77</ele>
        <time>2014-10-19T13:55:01Z</time>
      </trkpt>
      <trkpt lat="46.14427" lon="6.0094">
        <ele>407.6</ele>
        <time>2014-10-19T13:55:07Z</time>
      </trkpt>
      <trkpt lat="46.14424" lon="6.00949">
        <ele>407.53</ele>
        <time>2014-10-19T13:55:09Z</time>
      </trkpt>
      <trkpt lat="46.14422" lon="6.00954">
        <ele>407.45</ele>
        <time>2014-10-19T13:55:10Z</time>
      </trkpt>
      <trkpt lat="46.1442" lon="6.0096">
        <ele>407.35</ele>
        <time>2014-10-19T13:55:11Z</time>
      </trkpt>
      <trkpt lat="46.14419" lon="6.00965">
        <ele>407.2</ele>
        <time>2014-10-19T13:55:12Z</time>
      </trkpt>
      <trkpt lat="46.14417" lon="6.00971">
        <ele>407.1</ele>
        <time>2014-10-19T13:55:13Z</time>
      </trkpt>
      <trkpt lat="46.14415" lon="6.00977">
        <ele>407.02</ele>
        <time>2014-10-19T13:55:14Z</time>
      </trkpt>
      <trkpt lat="46.14413" lon="6.00984">
        <ele>406.98</ele>
        <time>2014-10-19T13:55:15Z</time>
      </trkpt>
      <trkpt lat="46.14412" lon="6.0099">
        <ele>406.96</ele>
        <time>2014-10-19T13:55:16Z</time>
      </trkpt>
      <trkpt lat="46.14409" lon="6.01003">
        <ele>407.04</ele>
        <time>2014-10-19T13:55:18Z</time>
      </trkpt>
      <trkpt lat="46.14402" lon="6.01034">
        <ele>407.19</ele>
        <time>2014-10-19T13:55:23Z</time>
      </trkpt>
      <trkpt lat="46.14401" lon="6.0104">
        <ele>407.11</ele>
        <time>2014-10-19T13:55:24Z</time>
      </trkpt>
      <trkpt lat="46.14395" lon="6.01066">
        <ele>407.12</ele>
        <time>2014-10-19T13:55:28Z</time>
      </trkpt>
      <trkpt lat="46.14394" lon="6.01072">
        <ele>407.3</ele>
        <time>2014-10-19T13:55:29Z</time>
      </trkpt>
      <trkpt lat="46.14394" lon="6.01077">
        <ele>407.38</ele>
        <time>2014-10-19T13:55:30Z</time>
      </trkpt>
      <trkpt lat="46.14395" lon="6.01083">
        <ele>407.52</ele>
        <time>2014-10-19T13:55:31Z</time>
      </trkpt>
      <trkpt lat="46.14397" lon="6.01089">
        <ele>407.65</ele>
        <time>2014-10-19T13:55:32Z</time>
      </trkpt>
      <trkpt lat="46.144" lon="6.01092">
        <ele>407.76</ele>
        <time>2014-10-19T13:55:33Z</time>
      </trkpt>
      <trkpt lat="46.14404" lon="6.01095">
        <ele>407.76</ele>
        <time>2014-10-19T13:55:34Z</time>
      </trkpt>
      <trkpt lat="46.14407" lon="6.01098">
        <ele>407.84</ele>
        <time>2014-10-19T13:55:35Z</time>
      </trkpt>
      <trkpt lat="46.14413" lon="6.01105">
        <ele>408.25</ele>
        <time>2014-10-19T13:55:37Z</time>
      </trkpt>
      <trkpt lat="46.14415" lon="6.0111">
        <ele>408.46</ele>
        <time>2014-10-19T13:55:38Z</time>
      </trkpt>
      <trkpt lat="46.14415" lon="6.01115">
        <ele>408.68</ele>
        <time>2014-10-19T13:55:39Z</time>
      </trkpt>
      <trkpt lat="46.14417" lon="6.01126">
        <ele>408.77</ele>
        <time>2014-10-19T13:55:41Z</time>
      </trkpt>
      <trkpt lat="46.14418" lon="6.01131">
        <ele>408.85</ele>
        <time>2014-10-19T13:55:42Z</time>
      </trkpt>
      <trkpt lat="46.14419" lon="6.01136">
        <ele>408.98</ele>
        <time>2014-10-19T13:55:43Z</time>
      </trkpt>
      <trkpt lat="46.14421" lon="6.01141">
        <ele>409.21</ele>
        <time>2014-10-19T13:55:44Z</time>
      </trkpt>
      <trkpt lat="46.14423" lon="6.01146">
        <ele>409.31</ele>
        <time>2014-10-19T13:55:45Z</time>
      </trkpt>
      <trkpt lat="46.14431" lon="6.01181">
        <ele>411.56</ele>
        <time>2014-10-19T13:55:53Z</time>
      </trkpt>
      <trkpt lat="46.14442" lon="6.01214">
        <ele>414.05</ele>
        <time>2014-10-19T13:56:02Z</time>
      </trkpt>
      <trkpt lat="46.14442" lon="6.01218">
        <ele>414.53</ele>
        <time>2014-10-19T13:56:03Z</time>
      </trkpt>
      <trkpt lat="46.14443" lon="6.01222">
        <ele>414.93</ele>
        <time>2014-10-19T13:56:04Z</time>
      </trkpt>
      <trkpt lat="46.14444" lon="6.01226">
        <ele>414.93</ele>
        <time>2014-10-19T13:56:05Z</time>
      </trkpt>
      <trkpt lat="46.14445" lon="6.01229">
        <ele>415.24</ele>
        <time>2014-10-19T13:56:06Z</time>
      </trkpt>
      <trkpt lat="46.14447" lon="6.01237">
        <ele>415.82</ele>
        <time>2014-10-19T13:56:08Z</time>
      </trkpt>
      <trkpt lat="46.14458" lon="6.01291">
        <ele>418.32</ele>
        <time>2014-10-19T13:56:21Z</time>
      </trkpt>
      <trkpt lat="46.14461" lon="6.01366">
        <ele>421.14</ele>
        <time>2014-10-19T13:56:38Z</time>
      </trkpt>
      <trkpt lat="46.14459" lon="6.01443">
        <ele>423.66</ele>
        <time>2014-10-19T13:56:58Z</time>
      </trkpt>
      <trkpt lat="46.14452" lon="6.01497">
        <ele>424.91</ele>
        <time>2014-10-19T13:57:14Z</time>
      </trkpt>
      <trkpt lat="46.14445" lon="6.01542">
        <ele>425.33</ele>
        <time>2014-10-19T13:57:28Z</time>
      </trkpt>
      <trkpt lat="46.14445" lon="6.01546">
        <ele>425.28</ele>
        <time>2014-10-19T13:57:29Z</time>
      </trkpt>
      <trkpt lat="46.14444" lon="6.01549">
        <ele>425.25</ele>
        <time>2014-10-19T13:57:30Z</time>
      </trkpt>
      <trkpt lat="46.14444" lon="6.01553">
        <ele>425.34</ele>
        <time>2014-10-19T13:57:31Z</time>
      </trkpt>
      <trkpt lat="46.14443" lon="6.01557">
        <ele>425.39</ele>
        <time>2014-10-19T13:57:32Z</time>
      </trkpt>
      <trkpt lat="46.14442" lon="6.01561">
        <ele>425.54</ele>
        <time>2014-10-19T13:57:33Z</time>
      </trkpt>
      <trkpt lat="46.14442" lon="6.01565">
        <ele>425.64</ele>
        <time>2014-10-19T13:57:34Z</time>
      </trkpt>
      <trkpt lat="46.14441" lon="6.01568">
        <ele>425.7</ele>
        <time>2014-10-19T13:57:35Z</time>
      </trkpt>
      <trkpt lat="46.14428" lon="6.01636">
        <ele>425.69</ele>
        <time>2014-10-19T13:57:50Z</time>
      </trkpt>
      <trkpt lat="46.1442" lon="6.01674">
        <ele>425.61</ele>
        <time>2014-10-19T13:57:57Z</time>
      </trkpt>
      <trkpt lat="46.144" lon="6.01738">
        <ele>426.42</ele>
        <time>2014-10-19T13:58:08Z</time>
      </trkpt>
      <trkpt lat="46.14399" lon="6.01745">
        <ele>426.39</ele>
        <time>2014-10-19T13:58:09Z</time>
      </trkpt>
      <trkpt lat="46.14365" lon="6.01848">
        <ele>427.11</ele>
        <time>2014-10-19T13:58:26Z</time>
      </trkpt>
      <trkpt lat="46.14364" lon="6.01854">
        <ele>427.11</ele>
        <time>2014-10-19T13:58:27Z</time>
      </trkpt>
      <trkpt lat="46.14361" lon="6.01873">
        <ele>427.59</ele>
        <time>2014-10-19T13:58:30Z</time>
      </trkpt>
      <trkpt lat="46.14361" lon="6.01879">
        <ele>427.74</ele>
        <time>2014-10-19T13:58:31Z</time>
      </trkpt>
      <trkpt lat="46.14368" lon="6.01959">
        <ele>428.39</ele>
        <time>2014-10-19T13:58:43Z</time>
      </trkpt>
      <trkpt lat="46.14368" lon="6.01966">
        <ele>428.52</ele>
        <time>2014-10-19T13:58:44Z</time>
      </trkpt>
      <trkpt lat="46.14368" lon="6.02009">
        <ele>428.64</ele>
        <time>2014-10-19T13:58:50Z</time>
      </trkpt>
      <trkpt lat="46.14368" lon="6.02015">
        <ele>428.6</ele>
        <time>2014-10-19T13:58:51Z</time>
      </trkpt>
      <trkpt lat="46.14369" lon="6.02056">
        <ele>429.17</ele>
        <time>2014-10-19T13:58:58Z</time>
      </trkpt>
      <trkpt lat="46.14377" lon="6.0218">
        <ele>431.29</ele>
        <time>2014-10-19T13:59:17Z</time>
      </trkpt>
      <trkpt lat="46.14374" lon="6.02199">
        <ele>431.67</ele>
        <time>2014-10-19T13:59:20Z</time>
      </trkpt>
      <trkpt lat="46.14371" lon="6.02211">
        <ele>431.78</ele>
        <time>2014-10-19T13:59:22Z</time>
      </trkpt>
      <trkpt lat="46.1437" lon="6.02217">
        <ele>431.86</ele>
        <time>2014-10-19T13:59:23Z</time>
      </trkpt>
      <trkpt lat="46.14363" lon="6.02271">
        <ele>433.14</ele>
        <time>2014-10-19T13:59:36Z</time>
      </trkpt>
      <trkpt lat="46.14355" lon="6.02331">
        <ele>433.57</ele>
        <time>2014-10-19T13:59:47Z</time>
      </trkpt>
      <trkpt lat="46.14355" lon="6.02336">
        <ele>433.6</ele>
        <time>2014-10-19T13:59:48Z</time>
      </trkpt>
      <trkpt lat="46.14339" lon="6.02446">
        <ele>434.09</ele>
        <time>2014-10-19T14:00:05Z</time>
      </trkpt>
      <trkpt lat="46.14338" lon="6.02453">
        <ele>434.15</ele>
        <time>2014-10-19T14:00:06Z</time>
      </trkpt>
      <trkpt lat="46.14316" lon="6.02575">
        <ele>435.06</ele>
        <time>2014-10-19T14:00:24Z</time>
      </trkpt>
      <trkpt lat="46.14314" lon="6.02604">
        <ele>435.13</ele>
        <time>2014-10-19T14:00:28Z</time>
      </trkpt>
      <trkpt lat="46.14314" lon="6.02611">
        <ele>435.09</ele>
        <time>2014-10-19T14:00:29Z</time>
      </trkpt>
      <trkpt lat="46.14314" lon="6.02619">
        <ele>435.08</ele>
        <time>2014-10-19T14:00:30Z</time>
      </trkpt>
      <trkpt lat="46.14323" lon="6.02695">
        <ele>434.14</ele>
        <time>2014-10-19T14:00:39Z</time>
      </trkpt>
      <trkpt lat="46.14324" lon="6.02704">
        <ele>434.03</ele>
        <time>2014-10-19T14:00:40Z</time>
      </trkpt>
      <trkpt lat="46.14324" lon="6.02712">
        <ele>433.88</ele>
        <time>2014-10-19T14:00:41Z</time>
      </trkpt>
      <trkpt lat="46.14323" lon="6.02721">
        <ele>433.68</ele>
        <time>2014-10-19T14:00:42Z</time>
      </trkpt>
      <trkpt lat="46.14322" lon="6.02729">
        <ele>433.56</ele>
        <time>2014-10-19T14:00:43Z</time>
      </trkpt>
      <trkpt lat="46.1432" lon="6.02737">
        <ele>433.51</ele>
        <time>2014-10-19T14:00:44Z</time>
      </trkpt>
      <trkpt lat="46.14318" lon="6.02744">
        <ele>433.58</ele>
        <time>2014-10-19T14:00:45Z</time>
      </trkpt>
      <trkpt lat="46.14316" lon="6.02751">
        <ele>433.62</ele>
        <time>2014-10-19T14:00:46Z</time>
      </trkpt>
      <trkpt lat="46.14294" lon="6.02821">
        <ele>434.37</ele>
        <time>2014-10-19T14:00:57Z</time>
      </trkpt>
      <trkpt lat="46.1429" lon="6.02832">
        <ele>434.58</ele>
        <time>2014-10-19T14:00:59Z</time>
      </trkpt>
      <trkpt lat="46.14288" lon="6.02838">
        <ele>434.72</ele>
        <time>2014-10-19T14:01:00Z</time>
      </trkpt>
      <trkpt lat="46.14286" lon="6.02842">
        <ele>434.84</ele>
        <time>2014-10-19T14:01:01Z</time>
      </trkpt>
      <trkpt lat="46.14239" lon="6.02965">
        <ele>436.54</ele>
        <time>2014-10-19T14:01:21Z</time>
      </trkpt>
      <trkpt lat="46.14221" lon="6.03025">
        <ele>437.45</ele>
        <time>2014-10-19T14:01:30Z</time>
      </trkpt>
      <trkpt lat="46.14219" lon="6.03032">
        <ele>437.45</ele>
        <time>2014-10-19T14:01:31Z</time>
      </trkpt>
      <trkpt lat="46.14195" lon="6.03169">
        <ele>439.54</ele>
        <time>2014-10-19T14:01:51Z</time>
      </trkpt>
      <trkpt lat="46.14171" lon="6.03292">
        <ele>441.02</ele>
        <time>2014-10-19T14:02:10Z</time>
      </trkpt>
      <trkpt lat="46.14163" lon="6.03334">
        <ele>441.3</ele>
        <time>2014-10-19T14:02:17Z</time>
      </trkpt>
      <trkpt lat="46.14163" lon="6.0334">
        <ele>441.5</ele>
        <time>2014-10-19T14:02:18Z</time>
      </trkpt>
      <trkpt lat="46.14163" lon="6.03346">
        <ele>441.61</ele>
        <time>2014-10-19T14:02:19Z</time>
      </trkpt>
      <trkpt lat="46.14163" lon="6.03351">
        <ele>441.72</ele>
        <time>2014-10-19T14:02:20Z</time>
      </trkpt>
      <trkpt lat="46.14163" lon="6.03357">
        <ele>441.78</ele>
        <time>2014-10-19T14:02:21Z</time>
      </trkpt>
      <trkpt lat="46.14171" lon="6.03404">
        <ele>441.99</ele>
        <time>2014-10-19T14:02:30Z</time>
      </trkpt>
      <trkpt lat="46.14173" lon="6.03409">
        <ele>441.94</ele>
        <time>2014-10-19T14:02:31Z</time>
      </trkpt>
      <trkpt lat="46.14175" lon="6.03415">
        <ele>441.92</ele>
        <time>2014-10-19T14:02:32Z</time>
      </trkpt>
      <trkpt lat="46.1421" lon="6.03506">
        <ele>441.93</ele>
        <time>2014-10-19T14:02:47Z</time>
      </trkpt>
      <trkpt lat="46.14247" lon="6.03653">
        <ele>440.84</ele>
        <time>2014-10-19T14:03:06Z</time>
      </trkpt>
      <trkpt lat="46.14254" lon="6.03703">
        <ele>440.74</ele>
        <time>2014-10-19T14:03:12Z</time>
      </trkpt>
      <trkpt lat="46.14263" lon="6.03831">
        <ele>441.78</ele>
        <time>2014-10-19T14:03:29Z</time>
      </trkpt>
      <trkpt lat="46.14274" lon="6.03903">
        <ele>442.68</ele>
        <time>2014-10-19T14:03:40Z</time>
      </trkpt>
      <trkpt lat="46.14277" lon="6.03904">
        <ele>442.68</ele>
        <time>2014-10-19T14:03:41Z</time>
      </trkpt>
      <trkpt lat="46.14282" lon="6.03903">
        <ele>442.85</ele>
        <time>2014-10-19T14:03:42Z</time>
      </trkpt>
      <trkpt lat="46.14287" lon="6.03901">
        <ele>442.9</ele>
        <time>2014-10-19T14:03:43Z</time>
      </trkpt>
      <trkpt lat="46.14292" lon="6.03896">
        <ele>442.93</ele>
        <time>2014-10-19T14:03:44Z</time>
      </trkpt>
      <trkpt lat="46.14296" lon="6.0389">
        <ele>442.62</ele>
        <time>2014-10-19T14:03:45Z</time>
      </trkpt>
      <trkpt lat="46.14301" lon="6.03884">
        <ele>442.06</ele>
        <time>2014-10-19T14:03:46Z</time>
      </trkpt>
      <trkpt lat="46.14312" lon="6.03872">
        <ele>441.36</ele>
        <time>2014-10-19T14:03:48Z</time>
      </trkpt>
      <trkpt lat="46.14339" lon="6.03843">
        <ele>440.68</ele>
        <time>2014-10-19T14:03:53Z</time>
      </trkpt>
      <trkpt lat="46.14345" lon="6.03841">
        <ele>440.5</ele>
        <time>2014-10-19T14:03:54Z</time>
      </trkpt>
      <trkpt lat="46.14351" lon="6.03841">
        <ele>440.4</ele>
        <time>2014-10-19T14:03:55Z</time>
      </trkpt>
      <trkpt lat="46.14357" lon="6.03844">
        <ele>440.19</ele>
        <time>2014-10-19T14:03:56Z</time>
      </trkpt>
      <trkpt lat="46.14362" lon="6.03849">
        <ele>439.96</ele>
        <time>2014-10-19T14:03:57Z</time>
      </trkpt>
      <trkpt lat="46.14366" lon="6.03856">
        <ele>439.94</ele>
        <time>2014-10-19T14:03:58Z</time>
      </trkpt>
      <trkpt lat="46.1437" lon="6.03863">
        <ele>439.94</ele>
        <time>2014-10-19T14:03:59Z</time>
      </trkpt>
      <trkpt lat="46.14418" lon="6.03945">
        <ele>440.09</ele>
        <time>2014-10-19T14:04:12Z</time>
      </trkpt>
      <trkpt lat="46.14463" lon="6.04017">
        <ele>440.46</ele>
        <time>2014-10-19T14:04:25Z</time>
      </trkpt>
      <trkpt lat="46.14478" lon="6.04043">
        <ele>440.9</ele>
        <time>2014-10-19T14:04:31Z</time>
      </trkpt>
      <trkpt lat="46.14484" lon="6.04051">
        <ele>440.94</ele>
        <time>2014-10-19T14:04:33Z</time>
      </trkpt>
      <trkpt lat="46.14486" lon="6.04055">
        <ele>441.06</ele>
        <time>2014-10-19T14:04:34Z</time>
      </trkpt>
      <trkpt lat="46.14489" lon="6.0406">
        <ele>441.01</ele>
        <time>2014-10-19T14:04:35Z</time>
      </trkpt>
      <trkpt lat="46.14492" lon="6.04064">
        <ele>441.08</ele>
        <time>2014-10-19T14:04:36Z</time>
      </trkpt>
      <trkpt lat="46.14494" lon="6.04068">
        <ele>441.16</ele>
        <time>2014-10-19T14:04:37Z</time>
      </trkpt>
      <trkpt lat="46.14497" lon="6.04073">
        <ele>441.2</ele>
        <time>2014-10-19T14:04:38Z</time>
      </trkpt>
      <trkpt lat="46.14516" lon="6.04102">
        <ele>440.72</ele>
        <time>2014-10-19T14:04:44Z</time>
      </trkpt>
      <trkpt lat="46.1452" lon="6.04107">
        <ele>440.61</ele>
        <time>2014-10-19T14:04:45Z</time>
      </trkpt>
      <trkpt lat="46.14529" lon="6.04123">
        <ele>440.41</ele>
        <time>2014-10-19T14:04:48Z</time>
      </trkpt>
      <trkpt lat="46.14538" lon="6.04139">
        <ele>440.4</ele>
        <time>2014-10-19T14:04:51Z</time>
      </trkpt>
      <trkpt lat="46.14562" lon="6.04162">
        <ele>440.73</ele>
        <time>2014-10-19T14:05:01Z</time>
      </trkpt>
      <trkpt lat="46.1457" lon="6.04152">
        <ele>440.65</ele>
        <time>2014-10-19T14:05:04Z</time>
      </trkpt>
      <trkpt lat="46.14573" lon="6.04147">
        <ele>440.65</ele>
        <time>2014-10-19T14:05:05Z</time>
      </trkpt>
      <trkpt lat="46.14576" lon="6.04142">
        <ele>440.65</ele>
        <time>2014-10-19T14:05:06Z</time>
      </trkpt>
      <trkpt lat="46.14579" lon="6.04137">
        <ele>440.64</ele>
        <time>2014-10-19T14:05:07Z</time>
      </trkpt>
      <trkpt lat="46.14638" lon="6.04033">
        <ele>442.18</ele>
        <time>2014-10-19T14:05:24Z</time>
      </trkpt>
      <trkpt lat="46.1469" lon="6.0389">
        <ele>442.06</ele>
        <time>2014-10-19T14:05:43Z</time>
      </trkpt>
      <trkpt lat="46.14776" lon="6.03774">
        <ele>441.57</ele>
        <time>2014-10-19T14:06:01Z</time>
      </trkpt>
      <trkpt lat="46.14803" lon="6.03742">
        <ele>440.98</ele>
        <time>2014-10-19T14:06:06Z</time>
      </trkpt>
      <trkpt lat="46.14899" lon="6.03668">
        <ele>438.72</ele>
        <time>2014-10-19T14:06:20Z</time>
      </trkpt>
      <trkpt lat="46.15008" lon="6.03597">
        <ele>437.68</ele>
        <time>2014-10-19T14:06:35Z</time>
      </trkpt>
      <trkpt lat="46.15135" lon="6.03494">
        <ele>437.45</ele>
        <time>2014-10-19T14:06:54Z</time>
      </trkpt>
      <trkpt lat="46.15237" lon="6.03398">
        <ele>434.44</ele>
        <time>2014-10-19T14:07:09Z</time>
      </trkpt>
      <trkpt lat="46.15244" lon="6.03391">
        <ele>434.27</ele>
        <time>2014-10-19T14:07:10Z</time>
      </trkpt>
      <trkpt lat="46.15355" lon="6.0332">
        <ele>431.44</ele>
        <time>2014-10-19T14:07:23Z</time>
      </trkpt>
      <trkpt lat="46.15398" lon="6.03295">
        <ele>429.43</ele>
        <time>2014-10-19T14:07:28Z</time>
      </trkpt>
      <trkpt lat="46.1546" lon="6.03231">
        <ele>428.23</ele>
        <time>2014-10-19T14:07:39Z</time>
      </trkpt>
      <trkpt lat="46.15471" lon="6.03219">
        <ele>427.62</ele>
        <time>2014-10-19T14:07:48Z</time>
      </trkpt>
      <trkpt lat="46.15474" lon="6.03214">
        <ele>427.26</ele>
        <time>2014-10-19T14:08:04Z</time>
      </trkpt>
      <trkpt lat="46.15479" lon="6.03209">
        <ele>427.32</ele>
        <time>2014-10-19T14:08:08Z</time>
      </trkpt>
      <trkpt lat="46.1549" lon="6.03197">
        <ele>427.68</ele>
        <time>2014-10-19T14:08:14Z</time>
      </trkpt>
      <trkpt lat="46.15501" lon="6.0319">
        <ele>427.48</ele>
        <time>2014-10-19T14:08:21Z</time>
      </trkpt>
      <trkpt lat="46.15515" lon="6.03199">
        <ele>427.7</ele>
        <time>2014-10-19T14:08:28Z</time>
      </trkpt>
      <trkpt lat="46.15521" lon="6.03213">
        <ele>427.61</ele>
        <time>2014-10-19T14:08:34Z</time>
      </trkpt>
      <trkpt lat="46.15524" lon="6.03219">
        <ele>427.47</ele>
        <time>2014-10-19T14:08:37Z</time>
      </trkpt>
      <trkpt lat="46.15524" lon="6.03224">
        <ele>427.35</ele>
        <time>2014-10-19T14:08:51Z</time>
      </trkpt>
      <trkpt lat="46.15525" lon="6.03225">
        <ele>427.1</ele>
        <time>2014-10-19T14:09:21Z</time>
      </trkpt>
      <trkpt lat="46.15527" lon="6.03224">
        <ele>427.26</ele>
        <time>2014-10-19T14:09:29Z</time>
      </trkpt>
      <trkpt lat="46.15528" lon="6.0323">
        <ele>427.19</ele>
        <time>2014-10-19T14:09:41Z</time>
      </trkpt>
      <trkpt lat="46.15529" lon="6.03232">
        <ele>427.67</ele>
        <time>2014-10-19T14:10:03Z</time>
      </trkpt>
      <trkpt lat="46.15534" lon="6.03231">
        <ele>427.46</ele>
        <time>2014-10-19T14:10:07Z</time>
      </trkpt>
      <trkpt lat="46.15554" lon="6.03251">
        <ele>427.21</ele>
        <time>2014-10-19T14:10:14Z</time>
      </trkpt>
      <trkpt lat="46.15619" lon="6.03347">
        <ele>425.82</ele>
        <time>2014-10-19T14:10:30Z</time>
      </trkpt>
      <trkpt lat="46.15674" lon="6.03429">
        <ele>428.52</ele>
        <time>2014-10-19T14:10:46Z</time>
      </trkpt>
      <trkpt lat="46.15675" lon="6.03439">
        <ele>428.72</ele>
        <time>2014-10-19T14:10:48Z</time>
      </trkpt>
      <trkpt lat="46.15694" lon="6.03438">
        <ele>429.1</ele>
        <time>2014-10-19T14:10:54Z</time>
      </trkpt>
      <trkpt lat="46.15708" lon="6.03418">
        <ele>429.68</ele>
        <time>2014-10-19T14:10:58Z</time>
      </trkpt>
      <trkpt lat="46.15804" lon="6.03339">
        <ele>429.43</ele>
        <time>2014-10-19T14:11:16Z</time>
      </trkpt>
      <trkpt lat="46.15915" lon="6.03271">
        <ele>431.02</ele>
        <time>2014-10-19T14:11:36Z</time>
      </trkpt>
      <trkpt lat="46.16027" lon="6.03174">
        <ele>430.05</ele>
        <time>2014-10-19T14:11:57Z</time>
      </trkpt>
      <trkpt lat="46.16108" lon="6.03072">
        <ele>429.19</ele>
        <time>2014-10-19T14:12:14Z</time>
      </trkpt>
      <trkpt lat="46.16182" lon="6.02996">
        <ele>429.59</ele>
        <time>2014-10-19T14:12:29Z</time>
      </trkpt>
      <trkpt lat="46.16227" lon="6.02971">
        <ele>429.93</ele>
        <time>2014-10-19T14:12:37Z</time>
      </trkpt>
      <trkpt lat="46.16312" lon="6.02939">
        <ele>430.07</ele>
        <time>2014-10-19T14:12:51Z</time>
      </trkpt>
      <trkpt lat="46.16393" lon="6.02831">
        <ele>430.17</ele>
        <time>2014-10-19T14:13:08Z</time>
      </trkpt>
      <trkpt lat="46.16497" lon="6.02657">
        <ele>428.77</ele>
        <time>2014-10-19T14:13:32Z</time>
      </trkpt>
      <trkpt lat="46.1657" lon="6.02562">
        <ele>427.75</ele>
        <time>2014-10-19T14:13:48Z</time>
      </trkpt>
      <trkpt lat="46.16591" lon="6.02548">
        <ele>427.84</ele>
        <time>2014-10-19T14:13:52Z</time>
      </trkpt>
      <trkpt lat="46.16609" lon="6.02521">
        <ele>427.42</ele>
        <time>2014-10-19T14:13:57Z</time>
      </trkpt>
      <trkpt lat="46.16709" lon="6.02401">
        <ele>425.49</ele>
        <time>2014-10-19T14:14:16Z</time>
      </trkpt>
      <trkpt lat="46.16766" lon="6.02347">
        <ele>425.77</ele>
        <time>2014-10-19T14:14:26Z</time>
      </trkpt>
      <trkpt lat="46.16873" lon="6.02258">
        <ele>426.54</ele>
        <time>2014-10-19T14:14:45Z</time>
      </trkpt>
      <trkpt lat="46.16991" lon="6.02166">
        <ele>425.65</ele>
        <time>2014-10-19T14:15:05Z</time>
      </trkpt>
      <trkpt lat="46.17105" lon="6.02104">
        <ele>425.11</ele>
        <time>2014-10-19T14:15:24Z</time>
      </trkpt>
      <trkpt lat="46.17227" lon="6.02046">
        <ele>425.04</ele>
        <time>2014-10-19T14:15:44Z</time>
      </trkpt>
      <trkpt lat="46.17297" lon="6.02021">
        <ele>423.97</ele>
        <time>2014-10-19T14:15:56Z</time>
      </trkpt>
      <trkpt lat="46.17307" lon="6.0202">
        <ele>423.36</ele>
        <time>2014-10-19T14:15:58Z</time>
      </trkpt>
      <trkpt lat="46.17353" lon="6.02042">
        <ele>421.83</ele>
        <time>2014-10-19T14:16:07Z</time>
      </trkpt>
      <trkpt lat="46.17363" lon="6.02066">
        <ele>421.47</ele>
        <time>2014-10-19T14:16:11Z</time>
      </trkpt>
      <trkpt lat="46.17364" lon="6.02096">
        <ele>421.3</ele>
        <time>2014-10-19T14:16:15Z</time>
      </trkpt>
      <trkpt lat="46.17367" lon="6.02145">
        <ele>421.45</ele>
        <time>2014-10-19T14:16:22Z</time>
      </trkpt>
      <trkpt lat="46.17371" lon="6.02163">
        <ele>422.39</ele>
        <time>2014-10-19T14:16:25Z</time>
      </trkpt>
      <trkpt lat="46.17385" lon="6.02186">
        <ele>423.28</ele>
        <time>2014-10-19T14:16:30Z</time>
      </trkpt>
      <trkpt lat="46.17398" lon="6.02205">
        <ele>423.41</ele>
        <time>2014-10-19T14:16:34Z</time>
      </trkpt>
      <trkpt lat="46.17407" lon="6.02219">
        <ele>423.47</ele>
        <time>2014-10-19T14:16:37Z</time>
      </trkpt>
      <trkpt lat="46.1745" lon="6.02289">
        <ele>423.75</ele>
        <time>2014-10-19T14:16:53Z</time>
      </trkpt>
      <trkpt lat="46.17451" lon="6.02293">
        <ele>423.44</ele>
        <time>2014-10-19T14:16:54Z</time>
      </trkpt>
      <trkpt lat="46.17447" lon="6.0232">
        <ele>423.52</ele>
        <time>2014-10-19T14:17:00Z</time>
      </trkpt>
      <trkpt lat="46.17448" lon="6.02339">
        <ele>423.72</ele>
        <time>2014-10-19T14:17:04Z</time>
      </trkpt>
      <trkpt lat="46.17466" lon="6.0236">
        <ele>423.66</ele>
        <time>2014-10-19T14:17:09Z</time>
      </trkpt>
      <trkpt lat="46.17473" lon="6.02377">
        <ele>423.35</ele>
        <time>2014-10-19T14:17:12Z</time>
      </trkpt>
      <trkpt lat="46.17496" lon="6.0248">
        <ele>424.15</ele>
        <time>2014-10-19T14:17:26Z</time>
      </trkpt>
      <trkpt lat="46.17527" lon="6.02622">
        <ele>423.72</ele>
        <time>2014-10-19T14:17:43Z</time>
      </trkpt>
      <trkpt lat="46.17555" lon="6.02755">
        <ele>423.39</ele>
        <time>2014-10-19T14:17:59Z</time>
      </trkpt>
      <trkpt lat="46.17584" lon="6.02888">
        <ele>423.46</ele>
        <time>2014-10-19T14:18:14Z</time>
      </trkpt>
      <trkpt lat="46.17637" lon="6.03126">
        <ele>423.94</ele>
        <time>2014-10-19T14:18:39Z</time>
      </trkpt>
      <trkpt lat="46.17683" lon="6.03314">
        <ele>424.46</ele>
        <time>2014-10-19T14:18:59Z</time>
      </trkpt>
      <trkpt lat="46.177" lon="6.03358">
        <ele>424.67</ele>
        <time>2014-10-19T14:19:04Z</time>
      </trkpt>
      <trkpt lat="46.17776" lon="6.03482">
        <ele>423.88</ele>
        <time>2014-10-19T14:19:20Z</time>
      </trkpt>
      <trkpt lat="46.17875" lon="6.03593">
        <ele>421.95</ele>
        <time>2014-10-19T14:19:36Z</time>
      </trkpt>
      <trkpt lat="46.17954" lon="6.0368">
        <ele>418.62</ele>
        <time>2014-10-19T14:19:47Z</time>
      </trkpt>
      <trkpt lat="46.18045" lon="6.03781">
        <ele>415.22</ele>
        <time>2014-10-19T14:19:58Z</time>
      </trkpt>
      <trkpt lat="46.18153" lon="6.039">
        <ele>411.89</ele>
        <time>2014-10-19T14:20:09Z</time>
      </trkpt>
      <trkpt lat="46.18235" lon="6.03999">
        <ele>408.65</ele>
        <time>2014-10-19T14:20:17Z</time>
      </trkpt>
      <trkpt lat="46.18333" lon="6.0414">
        <ele>404.39</ele>
        <time>2014-10-19T14:20:27Z</time>
      </trkpt>
      <trkpt lat="46.18383" lon="6.0424">
        <ele>401.35</ele>
        <time>2014-10-19T14:20:33Z</time>
      </trkpt>
      <trkpt lat="46.18431" lon="6.04346">
        <ele>397.9</ele>
        <time>2014-10-19T14:20:39Z</time>
      </trkpt>
      <trkpt lat="46.18474" lon="6.04434">
        <ele>394.51</ele>
        <time>2014-10-19T14:20:44Z</time>
      </trkpt>
      <trkpt lat="46.18515" lon="6.04496">
        <ele>391.43</ele>
        <time>2014-10-19T14:20:48Z</time>
      </trkpt>
      <trkpt lat="46.18591" lon="6.04565">
        <ele>386.84</ele>
        <time>2014-10-19T14:20:54Z</time>
      </trkpt>
      <trkpt lat="46.18618" lon="6.04578">
        <ele>384.66</ele>
        <time>2014-10-19T14:20:56Z</time>
      </trkpt>
      <trkpt lat="46.18659" lon="6.0459">
        <ele>382.95</ele>
        <time>2014-10-19T14:20:59Z</time>
      </trkpt>
      <trkpt lat="46.18686" lon="6.04595">
        <ele>382.19</ele>
        <time>2014-10-19T14:21:01Z</time>
      </trkpt>
      <trkpt lat="46.18767" lon="6.04603">
        <ele>379.06</ele>
        <time>2014-10-19T14:21:08Z</time>
      </trkpt>
      <trkpt lat="46.18782" lon="6.04604">
        <ele>378.85</ele>
        <time>2014-10-19T14:21:10Z</time>
      </trkpt>
      <trkpt lat="46.18793" lon="6.04607">
        <ele>378.23</ele>
        <time>2014-10-19T14:21:12Z</time>
      </trkpt>
      <trkpt lat="46.18804" lon="6.0462">
        <ele>377.43</ele>
        <time>2014-10-19T14:21:15Z</time>
      </trkpt>
      <trkpt lat="46.18808" lon="6.04623">
        <ele>377.27</ele>
        <time>2014-10-19T14:21:16Z</time>
      </trkpt>
      <trkpt lat="46.18827" lon="6.04608">
        <ele>377.05</ele>
        <time>2014-10-19T14:21:21Z</time>
      </trkpt>
      <trkpt lat="46.18855" lon="6.04571">
        <ele>376.08</ele>
        <time>2014-10-19T14:21:31Z</time>
      </trkpt>
      <trkpt lat="46.18903" lon="6.0449">
        <ele>374.82</ele>
        <time>2014-10-19T14:21:48Z</time>
      </trkpt>
      <trkpt lat="46.18956" lon="6.04413">
        <ele>374.12</ele>
        <time>2014-10-19T14:22:03Z</time>
      </trkpt>
      <trkpt lat="46.18985" lon="6.04376">
        <ele>373.68</ele>
        <time>2014-10-19T14:22:10Z</time>
      </trkpt>
      <trkpt lat="46.19037" lon="6.04315">
        <ele>371.92</ele>
        <time>2014-10-19T14:22:21Z</time>
      </trkpt>
      <trkpt lat="46.19046" lon="6.04304">
        <ele>371.66</ele>
        <time>2014-10-19T14:22:23Z</time>
      </trkpt>
      <trkpt lat="46.1909" lon="6.04298">
        <ele>371.38</ele>
        <time>2014-10-19T14:22:31Z</time>
      </trkpt>
      <trkpt lat="46.19156" lon="6.04351">
        <ele>371.01</ele>
        <time>2014-10-19T14:22:45Z</time>
      </trkpt>
      <trkpt lat="46.19171" lon="6.0436">
        <ele>371.12</ele>
        <time>2014-10-19T14:22:48Z</time>
      </trkpt>
      <trkpt lat="46.19235" lon="6.04356">
        <ele>370.64</ele>
        <time>2014-10-19T14:23:00Z</time>
      </trkpt>
      <trkpt lat="46.19276" lon="6.04359">
        <ele>370.54</ele>
        <time>2014-10-19T14:23:07Z</time>
      </trkpt>
      <trkpt lat="46.19327" lon="6.04383">
        <ele>369.62</ele>
        <time>2014-10-19T14:23:17Z</time>
      </trkpt>
      <trkpt lat="46.19334" lon="6.04392">
        <ele>369.89</ele>
        <time>2014-10-19T14:23:27Z</time>
      </trkpt>
      <trkpt lat="46.19347" lon="6.04406">
        <ele>369.84</ele>
        <time>2014-10-19T14:23:33Z</time>
      </trkpt>
      <trkpt lat="46.1936" lon="6.04408">
        <ele>369.73</ele>
        <time>2014-10-19T14:23:36Z</time>
      </trkpt>
      <trkpt lat="46.19373" lon="6.04411">
        <ele>369.84</ele>
        <time>2014-10-19T14:23:39Z</time>
      </trkpt>
      <trkpt lat="46.19416" lon="6.04435">
        <ele>371.26</ele>
        <time>2014-10-19T14:23:49Z</time>
      </trkpt>
      <trkpt lat="46.19516" lon="6.04491">
        <ele>373.43</ele>
        <time>2014-10-19T14:24:11Z</time>
      </trkpt>
      <trkpt lat="46.19608" lon="6.04544">
        <ele>372.94</ele>
        <time>2014-10-19T14:24:28Z</time>
      </trkpt>
      <trkpt lat="46.19713" lon="6.04579">
        <ele>370.16</ele>
        <time>2014-10-19T14:24:43Z</time>
      </trkpt>
      <trkpt lat="46.19772" lon="6.04568">
        <ele>368.8</ele>
        <time>2014-10-19T14:24:52Z</time>
      </trkpt>
      <trkpt lat="46.19795" lon="6.04568">
        <ele>368.63</ele>
        <time>2014-10-19T14:24:56Z</time>
      </trkpt>
      <trkpt lat="46.19806" lon="6.04564">
        <ele>368.66</ele>
        <time>2014-10-19T14:24:58Z</time>
      </trkpt>
      <trkpt lat="46.19872" lon="6.04501">
        <ele>368.33</ele>
        <time>2014-10-19T14:25:11Z</time>
      </trkpt>
      <trkpt lat="46.19956" lon="6.0446">
        <ele>367.19</ele>
        <time>2014-10-19T14:25:24Z</time>
      </trkpt>
      <trkpt lat="46.20023" lon="6.04447">
        <ele>366.79</ele>
        <time>2014-10-19T14:25:34Z</time>
      </trkpt>
      <trkpt lat="46.20043" lon="6.04441">
        <ele>366.78</ele>
        <time>2014-10-19T14:25:37Z</time>
      </trkpt>
      <trkpt lat="46.20055" lon="6.04434">
        <ele>366.78</ele>
        <time>2014-10-19T14:25:39Z</time>
      </trkpt>
      <trkpt lat="46.2006" lon="6.0443">
        <ele>366.67</ele>
        <time>2014-10-19T14:25:40Z</time>
      </trkpt>
      <trkpt lat="46.20083" lon="6.04396">
        <ele>366.22</ele>
        <time>2014-10-19T14:25:45Z</time>
      </trkpt>
      <trkpt lat="46.20109" lon="6.04312">
        <ele>366.5</ele>
        <time>2014-10-19T14:25:55Z</time>
      </trkpt>
      <trkpt lat="46.20152" lon="6.04274">
        <ele>366.83</ele>
        <time>2014-10-19T14:26:04Z</time>
      </trkpt>
      <trkpt lat="46.20158" lon="6.04273">
        <ele>366.97</ele>
        <time>2014-10-19T14:26:05Z</time>
      </trkpt>
      <trkpt lat="46.20192" lon="6.0426">
        <ele>367.4</ele>
        <time>2014-10-19T14:26:11Z</time>
      </trkpt>
      <trkpt lat="46.20212" lon="6.04243">
        <ele>367.51</ele>
        <time>2014-10-19T14:26:15Z</time>
      </trkpt>
      <trkpt lat="46.20237" lon="6.04214">
        <ele>367.41</ele>
        <time>2014-10-19T14:26:20Z</time>
      </trkpt>
      <trkpt lat="46.20266" lon="6.04188">
        <ele>367.23</ele>
        <time>2014-10-19T14:26:25Z</time>
      </trkpt>
      <trkpt lat="46.20289" lon="6.04171">
        <ele>366.85</ele>
        <time>2014-10-19T14:26:29Z</time>
      </trkpt>
      <trkpt lat="46.20301" lon="6.04166">
        <ele>366.91</ele>
        <time>2014-10-19T14:26:31Z</time>
      </trkpt>
      <trkpt lat="46.2035" lon="6.04151">
        <ele>367.26</ele>
        <time>2014-10-19T14:26:39Z</time>
      </trkpt>
      <trkpt lat="46.20409" lon="6.04136">
        <ele>368.77</ele>
        <time>2014-10-19T14:26:50Z</time>
      </trkpt>
      <trkpt lat="46.20427" lon="6.04125">
        <ele>369.9</ele>
        <time>2014-10-19T14:26:54Z</time>
      </trkpt>
      <trkpt lat="46.20476" lon="6.04073">
        <ele>371.81</ele>
        <time>2014-10-19T14:27:07Z</time>
      </trkpt>
      <trkpt lat="46.20501" lon="6.04044">
        <ele>373.45</ele>
        <time>2014-10-19T14:27:15Z</time>
      </trkpt>
      <trkpt lat="46.20515" lon="6.04031">
        <ele>374.93</ele>
        <time>2014-10-19T14:27:21Z</time>
      </trkpt>
      <trkpt lat="46.20536" lon="6.04021">
        <ele>377.78</ele>
        <time>2014-10-19T14:27:30Z</time>
      </trkpt>
      <trkpt lat="46.20567" lon="6.0401">
        <ele>380.44</ele>
        <time>2014-10-19T14:27:40Z</time>
      </trkpt>
      <trkpt lat="46.20597" lon="6.03993">
        <ele>382.78</ele>
        <time>2014-10-19T14:27:50Z</time>
      </trkpt>
      <trkpt lat="46.20623" lon="6.03959">
        <ele>385.68</ele>
        <time>2014-10-19T14:28:03Z</time>
      </trkpt>
      <trkpt lat="46.20638" lon="6.03916">
        <ele>387.98</ele>
        <time>2014-10-19T14:28:14Z</time>
      </trkpt>
      <trkpt lat="46.20645" lon="6.03891">
        <ele>389.6</ele>
        <time>2014-10-19T14:28:21Z</time>
      </trkpt>
      <trkpt lat="46.20651" lon="6.03875">
        <ele>390.34</ele>
        <time>2014-10-19T14:28:25Z</time>
      </trkpt>
      <trkpt lat="46.20656" lon="6.03862">
        <ele>391.14</ele>
        <time>2014-10-19T14:28:28Z</time>
      </trkpt>
      <trkpt lat="46.20687" lon="6.03807">
        <ele>393.42</ele>
        <time>2014-10-19T14:28:43Z</time>
      </trkpt>
      <trkpt lat="46.20716" lon="6.03774">
        <ele>395.06</ele>
        <time>2014-10-19T14:28:56Z</time>
      </trkpt>
      <trkpt lat="46.20767" lon="6.03735">
        <ele>395.95</ele>
        <time>2014-10-19T14:29:12Z</time>
      </trkpt>
      <trkpt lat="46.20825" lon="6.03709">
        <ele>396.15</ele>
        <time>2014-10-19T14:29:29Z</time>
      </trkpt>
      <trkpt lat="46.20857" lon="6.03693">
        <ele>396.21</ele>
        <time>2014-10-19T14:29:40Z</time>
      </trkpt>
      <trkpt lat="46.20871" lon="6.03687">
        <ele>396.29</ele>
        <time>2014-10-19T14:29:46Z</time>
      </trkpt>
      <trkpt lat="46.20902" lon="6.03672">
        <ele>396.82</ele>
        <time>2014-10-19T14:29:57Z</time>
      </trkpt>
      <trkpt lat="46.20934" lon="6.0365">
        <ele>397.35</ele>
        <time>2014-10-19T14:30:06Z</time>
      </trkpt>
      <trkpt lat="46.20961" lon="6.03624">
        <ele>397.18</ele>
        <time>2014-10-19T14:30:13Z</time>
      </trkpt>
      <trkpt lat="46.21026" lon="6.03545">
        <ele>397.79</ele>
        <time>2014-10-19T14:30:30Z</time>
      </trkpt>
      <trkpt lat="46.21054" lon="6.03512">
        <ele>397.73</ele>
        <time>2014-10-19T14:30:37Z</time>
      </trkpt>
      <trkpt lat="46.21066" lon="6.03496">
        <ele>397.86</ele>
        <time>2014-10-19T14:30:40Z</time>
      </trkpt>
      <trkpt lat="46.21078" lon="6.03482">
        <ele>398.27</ele>
        <time>2014-10-19T14:30:43Z</time>
      </trkpt>
      <trkpt lat="46.21108" lon="6.03458">
        <ele>398.61</ele>
        <time>2014-10-19T14:30:50Z</time>
      </trkpt>
      <trkpt lat="46.21146" lon="6.03455">
        <ele>399.63</ele>
        <time>2014-10-19T14:30:59Z</time>
      </trkpt>
      <trkpt lat="46.21189" lon="6.03476">
        <ele>402.05</ele>
        <time>2014-10-19T14:31:10Z</time>
      </trkpt>
      <trkpt lat="46.21207" lon="6.03489">
        <ele>403.78</ele>
        <time>2014-10-19T14:31:16Z</time>
      </trkpt>
      <trkpt lat="46.21241" lon="6.03519">
        <ele>405.21</ele>
        <time>2014-10-19T14:31:27Z</time>
      </trkpt>
      <trkpt lat="46.21266" lon="6.03543">
        <ele>405.24</ele>
        <time>2014-10-19T14:31:34Z</time>
      </trkpt>
      <trkpt lat="46.21321" lon="6.03603">
        <ele>405.79</ele>
        <time>2014-10-19T14:31:49Z</time>
      </trkpt>
      <trkpt lat="46.21353" lon="6.03642">
        <ele>406.57</ele>
        <time>2014-10-19T14:31:58Z</time>
      </trkpt>
      <trkpt lat="46.21397" lon="6.03698">
        <ele>407.49</ele>
        <time>2014-10-19T14:32:11Z</time>
      </trkpt>
      <trkpt lat="46.21403" lon="6.03705">
        <ele>407.51</ele>
        <time>2014-10-19T14:32:13Z</time>
      </trkpt>
      <trkpt lat="46.21461" lon="6.03776">
        <ele>408.11</ele>
        <time>2014-10-19T14:32:29Z</time>
      </trkpt>
      <trkpt lat="46.21499" lon="6.03818">
        <ele>408.58</ele>
        <time>2014-10-19T14:32:39Z</time>
      </trkpt>
      <trkpt lat="46.21509" lon="6.03831">
        <ele>409.22</ele>
        <time>2014-10-19T14:32:42Z</time>
      </trkpt>
      <trkpt lat="46.21526" lon="6.03842">
        <ele>409.67</ele>
        <time>2014-10-19T14:32:46Z</time>
      </trkpt>
      <trkpt lat="46.21545" lon="6.03838">
        <ele>409.55</ele>
        <time>2014-10-19T14:32:50Z</time>
      </trkpt>
      <trkpt lat="46.21592" lon="6.03795">
        <ele>411.68</ele>
        <time>2014-10-19T14:33:04Z</time>
      </trkpt>
      <trkpt lat="46.21607" lon="6.03776">
        <ele>412.2</ele>
        <time>2014-10-19T14:33:09Z</time>
      </trkpt>
      <trkpt lat="46.21642" lon="6.0371">
        <ele>414.75</ele>
        <time>2014-10-19T14:33:24Z</time>
      </trkpt>
      <trkpt lat="46.21663" lon="6.0366">
        <ele>417.97</ele>
        <time>2014-10-19T14:33:36Z</time>
      </trkpt>
      <trkpt lat="46.21686" lon="6.03609">
        <ele>421.06</ele>
        <time>2014-10-19T14:33:50Z</time>
      </trkpt>
      <trkpt lat="46.2169" lon="6.03598">
        <ele>421.98</ele>
        <time>2014-10-19T14:33:53Z</time>
      </trkpt>
      <trkpt lat="46.21699" lon="6.03584">
        <ele>422.82</ele>
        <time>2014-10-19T14:33:58Z</time>
      </trkpt>
      <trkpt lat="46.21722" lon="6.03586">
        <ele>424.34</ele>
        <time>2014-10-19T14:34:08Z</time>
      </trkpt>
      <trkpt lat="46.21738" lon="6.03622">
        <ele>424.07</ele>
        <time>2014-10-19T14:34:18Z</time>
      </trkpt>
      <trkpt lat="46.21744" lon="6.03638">
        <ele>423.9</ele>
        <time>2014-10-19T14:34:22Z</time>
      </trkpt>
      <trkpt lat="46.2178" lon="6.03733">
        <ele>422.08</ele>
        <time>2014-10-19T14:34:37Z</time>
      </trkpt>
      <trkpt lat="46.21805" lon="6.03819">
        <ele>418.88</ele>
        <time>2014-10-19T14:34:45Z</time>
      </trkpt>
      <trkpt lat="46.21809" lon="6.03831">
        <ele>418.64</ele>
        <time>2014-10-19T14:34:46Z</time>
      </trkpt>
      <trkpt lat="46.21864" lon="6.03968">
        <ele>416.13</ele>
        <time>2014-10-19T14:34:59Z</time>
      </trkpt>
      <trkpt lat="46.21894" lon="6.04043">
        <ele>417.54</ele>
        <time>2014-10-19T14:35:09Z</time>
      </trkpt>
      <trkpt lat="46.21906" lon="6.04072">
        <ele>417.36</ele>
        <time>2014-10-19T14:35:18Z</time>
      </trkpt>
      <trkpt lat="46.21913" lon="6.04086">
        <ele>417.52</ele>
        <time>2014-10-19T14:35:23Z</time>
      </trkpt>
      <trkpt lat="46.21918" lon="6.04097">
        <ele>417.59</ele>
        <time>2014-10-19T14:35:25Z</time>
      </trkpt>
      <trkpt lat="46.21934" lon="6.04136">
        <ele>417.38</ele>
        <time>2014-10-19T14:35:31Z</time>
      </trkpt>
      <trkpt lat="46.21978" lon="6.0423">
        <ele>417.15</ele>
        <time>2014-10-19T14:35:45Z</time>
      </trkpt>
      <trkpt lat="46.21981" lon="6.04237">
        <ele>417.07</ele>
        <time>2014-10-19T14:35:46Z</time>
      </trkpt>
      <trkpt lat="46.21985" lon="6.04242">
        <ele>416.94</ele>
        <time>2014-10-19T14:35:47Z</time>
      </trkpt>
      <trkpt lat="46.21995" lon="6.04247">
        <ele>416.94</ele>
        <time>2014-10-19T14:35:49Z</time>
      </trkpt>
      <trkpt lat="46.22007" lon="6.04237">
        <ele>417.17</ele>
        <time>2014-10-19T14:35:52Z</time>
      </trkpt>
      <trkpt lat="46.22054" lon="6.04168">
        <ele>420.41</ele>
        <time>2014-10-19T14:36:10Z</time>
      </trkpt>
      <trkpt lat="46.22098" lon="6.04104">
        <ele>423.23</ele>
        <time>2014-10-19T14:36:28Z</time>
      </trkpt>
      <trkpt lat="46.2215" lon="6.04029">
        <ele>426.23</ele>
        <time>2014-10-19T14:36:50Z</time>
      </trkpt>
      <trkpt lat="46.22191" lon="6.03975">
        <ele>429.27</ele>
        <time>2014-10-19T14:37:07Z</time>
      </trkpt>
      <trkpt lat="46.22229" lon="6.03929">
        <ele>431.97</ele>
        <time>2014-10-19T14:37:23Z</time>
      </trkpt>
      <trkpt lat="46.22265" lon="6.03894">
        <ele>434.51</ele>
        <time>2014-10-19T14:37:37Z</time>
      </trkpt>
      <trkpt lat="46.2228" lon="6.0389">
        <ele>435.78</ele>
        <time>2014-10-19T14:37:42Z</time>
      </trkpt>
      <trkpt lat="46.22302" lon="6.03912">
        <ele>437.74</ele>
        <time>2014-10-19T14:37:52Z</time>
      </trkpt>
      <trkpt lat="46.22317" lon="6.03917">
        <ele>439.51</ele>
        <time>2014-10-19T14:37:58Z</time>
      </trkpt>
      <trkpt lat="46.22322" lon="6.03911">
        <ele>440.11</ele>
        <time>2014-10-19T14:38:00Z</time>
      </trkpt>
      <trkpt lat="46.22337" lon="6.03894">
        <ele>441.46</ele>
        <time>2014-10-19T14:38:06Z</time>
      </trkpt>
      <trkpt lat="46.2236" lon="6.03863">
        <ele>443.78</ele>
        <time>2014-10-19T14:38:20Z</time>
      </trkpt>
      <trkpt lat="46.22364" lon="6.0386">
        <ele>444.04</ele>
        <time>2014-10-19T14:38:33Z</time>
      </trkpt>
      <trkpt lat="46.22387" lon="6.03869">
        <ele>444.43</ele>
        <time>2014-10-19T14:38:44Z</time>
      </trkpt>
      <trkpt lat="46.22436" lon="6.03867">
        <ele>446.33</ele>
        <time>2014-10-19T14:38:59Z</time>
      </trkpt>
      <trkpt lat="46.22486" lon="6.03864">
        <ele>448.39</ele>
        <time>2014-10-19T14:39:15Z</time>
      </trkpt>
      <trkpt lat="46.22503" lon="6.03859">
        <ele>449.21</ele>
        <time>2014-10-19T14:39:21Z</time>
      </trkpt>
      <trkpt lat="46.2255" lon="6.03826">
        <ele>452.08</ele>
        <time>2014-10-19T14:39:37Z</time>
      </trkpt>
      <trkpt lat="46.22559" lon="6.03822">
        <ele>452.35</ele>
        <time>2014-10-19T14:39:40Z</time>
      </trkpt>
      <trkpt lat="46.22595" lon="6.03844">
        <ele>453.49</ele>
        <time>2014-10-19T14:39:54Z</time>
      </trkpt>
      <trkpt lat="46.22623" lon="6.03861">
        <ele>453.32</ele>
        <time>2014-10-19T14:40:02Z</time>
      </trkpt>
      <trkpt lat="46.22678" lon="6.03887">
        <ele>452.96</ele>
        <time>2014-10-19T14:40:15Z</time>
      </trkpt>
      <trkpt lat="46.22687" lon="6.03892">
        <ele>453.03</ele>
        <time>2014-10-19T14:40:17Z</time>
      </trkpt>
      <trkpt lat="46.22725" lon="6.03891">
        <ele>452.93</ele>
        <time>2014-10-19T14:40:25Z</time>
      </trkpt>
      <trkpt lat="46.2276" lon="6.03848">
        <ele>454.18</ele>
        <time>2014-10-19T14:40:35Z</time>
      </trkpt>
      <trkpt lat="46.22781" lon="6.03847">
        <ele>454.45</ele>
        <time>2014-10-19T14:40:40Z</time>
      </trkpt>
      <trkpt lat="46.22807" lon="6.03877">
        <ele>455.24</ele>
        <time>2014-10-19T14:40:47Z</time>
      </trkpt>
      <trkpt lat="46.22815" lon="6.03886">
        <ele>455.27</ele>
        <time>2014-10-19T14:40:49Z</time>
      </trkpt>
      <trkpt lat="46.22838" lon="6.03909">
        <ele>455.16</ele>
        <time>2014-10-19T14:40:54Z</time>
      </trkpt>
      <trkpt lat="46.22858" lon="6.03924">
        <ele>454.88</ele>
        <time>2014-10-19T14:40:58Z</time>
      </trkpt>
      <trkpt lat="46.22874" lon="6.0393">
        <ele>454.74</ele>
        <time>2014-10-19T14:41:01Z</time>
      </trkpt>
      <trkpt lat="46.22891" lon="6.03929">
        <ele>454.68</ele>
        <time>2014-10-19T14:41:04Z</time>
      </trkpt>
      <trkpt lat="46.2291" lon="6.03915">
        <ele>454.91</ele>
        <time>2014-10-19T14:41:08Z</time>
      </trkpt>
      <trkpt lat="46.22921" lon="6.039">
        <ele>455.43</ele>
        <time>2014-10-19T14:41:11Z</time>
      </trkpt>
      <trkpt lat="46.22938" lon="6.03878">
        <ele>455.87</ele>
        <time>2014-10-19T14:41:16Z</time>
      </trkpt>
      <trkpt lat="46.22959" lon="6.03854">
        <ele>456.82</ele>
        <time>2014-10-19T14:41:22Z</time>
      </trkpt>
      <trkpt lat="46.22968" lon="6.0384">
        <ele>457.3</ele>
        <time>2014-10-19T14:41:25Z</time>
      </trkpt>
      <trkpt lat="46.22978" lon="6.03823">
        <ele>458.44</ele>
        <time>2014-10-19T14:41:29Z</time>
      </trkpt>
      <trkpt lat="46.22985" lon="6.0381">
        <ele>458.94</ele>
        <time>2014-10-19T14:41:32Z</time>
      </trkpt>
      <trkpt lat="46.23019" lon="6.0375">
        <ele>460.86</ele>
        <time>2014-10-19T14:41:46Z</time>
      </trkpt>
      <trkpt lat="46.23024" lon="6.03743">
        <ele>461.43</ele>
        <time>2014-10-19T14:41:48Z</time>
      </trkpt>
      <trkpt lat="46.23041" lon="6.03726">
        <ele>461.93</ele>
        <time>2014-10-19T14:41:54Z</time>
      </trkpt>
      <trkpt lat="46.23051" lon="6.0371">
        <ele>461.77</ele>
        <time>2014-10-19T14:41:58Z</time>
      </trkpt>
      <trkpt lat="46.23065" lon="6.03689">
        <ele>462.15</ele>
        <time>2014-10-19T14:42:05Z</time>
      </trkpt>
      <trkpt lat="46.23095" lon="6.03638">
        <ele>462.28</ele>
        <time>2014-10-19T14:42:19Z</time>
      </trkpt>
      <trkpt lat="46.23108" lon="6.03619">
        <ele>461.75</ele>
        <time>2014-10-19T14:42:24Z</time>
      </trkpt>
      <trkpt lat="46.23124" lon="6.03594">
        <ele>460.76</ele>
        <time>2014-10-19T14:42:29Z</time>
      </trkpt>
      <trkpt lat="46.23135" lon="6.03575">
        <ele>460.17</ele>
        <time>2014-10-19T14:42:32Z</time>
      </trkpt>
      <trkpt lat="46.23207" lon="6.03477">
        <ele>456.93</ele>
        <time>2014-10-19T14:42:46Z</time>
      </trkpt>
      <trkpt lat="46.23268" lon="6.03402">
        <ele>453.48</ele>
        <time>2014-10-19T14:42:55Z</time>
      </trkpt>
      <trkpt lat="46.23319" lon="6.03338">
        <ele>450.22</ele>
        <time>2014-10-19T14:43:02Z</time>
      </trkpt>
      <trkpt lat="46.23391" lon="6.03256">
        <ele>447.07</ele>
        <time>2014-10-19T14:43:11Z</time>
      </trkpt>
      <trkpt lat="46.23455" lon="6.03202">
        <ele>444.03</ele>
        <time>2014-10-19T14:43:18Z</time>
      </trkpt>
      <trkpt lat="46.23512" lon="6.03156">
        <ele>440.91</ele>
        <time>2014-10-19T14:43:24Z</time>
      </trkpt>
      <trkpt lat="46.23549" lon="6.03125">
        <ele>438.43</ele>
        <time>2014-10-19T14:43:28Z</time>
      </trkpt>
      <trkpt lat="46.23585" lon="6.03096">
        <ele>437.04</ele>
        <time>2014-10-19T14:43:32Z</time>
      </trkpt>
      <trkpt lat="46.23649" lon="6.03045">
        <ele>435.39</ele>
        <time>2014-10-19T14:43:42Z</time>
      </trkpt>
      <trkpt lat="46.23657" lon="6.03043">
        <ele>434.86</ele>
        <time>2014-10-19T14:43:46Z</time>
      </trkpt>
      <trkpt lat="46.23658" lon="6.03042">
        <ele>434.74</ele>
        <time>2014-10-19T14:43:47Z</time>
      </trkpt>
      <trkpt lat="46.23657" lon="6.03038">
        <ele>434.74</ele>
        <time>2014-10-19T14:43:49Z</time>
      </trkpt>
      <trkpt lat="46.23657" lon="6.03037">
        <ele>434.7</ele>
        <time>2014-10-19T14:43:50Z</time>
      </trkpt>
      <trkpt lat="46.23653" lon="6.03022">
        <ele>434.62</ele>
        <time>2014-10-19T14:44:03Z</time>
      </trkpt>
      <trkpt lat="46.23634" lon="6.02996">
        <ele>434.28</ele>
        <time>2014-10-19T14:44:10Z</time>
      </trkpt>
      <trkpt lat="46.23631" lon="6.02993">
        <ele>434.5</ele>
        <time>2014-10-19T14:44:11Z</time>
      </trkpt>
      <trkpt lat="46.2359" lon="6.02944">
        <ele>435.05</ele>
        <time>2014-10-19T14:44:23Z</time>
      </trkpt>
      <trkpt lat="46.23533" lon="6.02854">
        <ele>434.74</ele>
        <time>2014-10-19T14:44:37Z</time>
      </trkpt>
      <trkpt lat="46.2345" lon="6.02681">
        <ele>433.25</ele>
        <time>2014-10-19T14:44:59Z</time>
      </trkpt>
      <trkpt lat="46.23411" lon="6.02578">
        <ele>431.22</ele>
        <time>2014-10-19T14:45:10Z</time>
      </trkpt>
      <trkpt lat="46.23407" lon="6.02571">
        <ele>431.29</ele>
        <time>2014-10-19T14:45:11Z</time>
      </trkpt>
      <trkpt lat="46.23388" lon="6.02537">
        <ele>432.29</ele>
        <time>2014-10-19T14:45:16Z</time>
      </trkpt>
      <trkpt lat="46.23385" lon="6.02529">
        <ele>432.55</ele>
        <time>2014-10-19T14:45:17Z</time>
      </trkpt>
      <trkpt lat="46.23325" lon="6.02349">
        <ele>431.95</ele>
        <time>2014-10-19T14:45:38Z</time>
      </trkpt>
      <trkpt lat="46.23281" lon="6.02182">
        <ele>430.11</ele>
        <time>2014-10-19T14:45:55Z</time>
      </trkpt>
      <trkpt lat="46.23245" lon="6.02013">
        <ele>428.88</ele>
        <time>2014-10-19T14:46:12Z</time>
      </trkpt>
      <trkpt lat="46.23241" lon="6.02005">
        <ele>428.95</ele>
        <time>2014-10-19T14:46:13Z</time>
      </trkpt>
      <trkpt lat="46.23237" lon="6.01997">
        <ele>428.86</ele>
        <time>2014-10-19T14:46:14Z</time>
      </trkpt>
      <trkpt lat="46.2322" lon="6.0197">
        <ele>427.78</ele>
        <time>2014-10-19T14:46:18Z</time>
      </trkpt>
      <trkpt lat="46.23218" lon="6.01963">
        <ele>427.49</ele>
        <time>2014-10-19T14:46:19Z</time>
      </trkpt>
      <trkpt lat="46.23203" lon="6.01924">
        <ele>425.81</ele>
        <time>2014-10-19T14:46:29Z</time>
      </trkpt>
      <trkpt lat="46.23202" lon="6.01913">
        <ele>425.56</ele>
        <time>2014-10-19T14:46:31Z</time>
      </trkpt>
      <trkpt lat="46.23201" lon="6.01907">
        <ele>425.72</ele>
        <time>2014-10-19T14:46:32Z</time>
      </trkpt>
      <trkpt lat="46.232" lon="6.01902">
        <ele>425.8</ele>
        <time>2014-10-19T14:46:33Z</time>
      </trkpt>
      <trkpt lat="46.232" lon="6.01895">
        <ele>425.97</ele>
        <time>2014-10-19T14:46:34Z</time>
      </trkpt>
      <trkpt lat="46.232" lon="6.01889">
        <ele>425.95</ele>
        <time>2014-10-19T14:46:35Z</time>
      </trkpt>
      <trkpt lat="46.23202" lon="6.01883">
        <ele>426.07</ele>
        <time>2014-10-19T14:46:36Z</time>
      </trkpt>
      <trkpt lat="46.23204" lon="6.01877">
        <ele>426.26</ele>
        <time>2014-10-19T14:46:37Z</time>
      </trkpt>
      <trkpt lat="46.23206" lon="6.01872">
        <ele>426.45</ele>
        <time>2014-10-19T14:46:38Z</time>
      </trkpt>
      <trkpt lat="46.2321" lon="6.01867">
        <ele>426.64</ele>
        <time>2014-10-19T14:46:39Z</time>
      </trkpt>
      <trkpt lat="46.23214" lon="6.01863">
        <ele>426.73</ele>
        <time>2014-10-19T14:46:40Z</time>
      </trkpt>
      <trkpt lat="46.23218" lon="6.0186">
        <ele>426.81</ele>
        <time>2014-10-19T14:46:41Z</time>
      </trkpt>
      <trkpt lat="46.23223" lon="6.01858">
        <ele>426.85</ele>
        <time>2014-10-19T14:46:42Z</time>
      </trkpt>
      <trkpt lat="46.23228" lon="6.01856">
        <ele>426.9</ele>
        <time>2014-10-19T14:46:43Z</time>
      </trkpt>
      <trkpt lat="46.23232" lon="6.01855">
        <ele>427.02</ele>
        <time>2014-10-19T14:46:44Z</time>
      </trkpt>
      <trkpt lat="46.2329" lon="6.01847">
        <ele>428.89</ele>
        <time>2014-10-19T14:46:56Z</time>
      </trkpt>
      <trkpt lat="46.23294" lon="6.01848">
        <ele>429.08</ele>
        <time>2014-10-19T14:46:57Z</time>
      </trkpt>
      <trkpt lat="46.23303" lon="6.0185">
        <ele>429.46</ele>
        <time>2014-10-19T14:46:59Z</time>
      </trkpt>
      <trkpt lat="46.23308" lon="6.01852">
        <ele>429.59</ele>
        <time>2014-10-19T14:47:00Z</time>
      </trkpt>
      <trkpt lat="46.23316" lon="6.01857">
        <ele>429.77</ele>
        <time>2014-10-19T14:47:02Z</time>
      </trkpt>
      <trkpt lat="46.2332" lon="6.0186">
        <ele>429.94</ele>
        <time>2014-10-19T14:47:03Z</time>
      </trkpt>
      <trkpt lat="46.23325" lon="6.01862">
        <ele>430.13</ele>
        <time>2014-10-19T14:47:04Z</time>
      </trkpt>
      <trkpt lat="46.23329" lon="6.01863">
        <ele>430.25</ele>
        <time>2014-10-19T14:47:05Z</time>
      </trkpt>
      <trkpt lat="46.23334" lon="6.01863">
        <ele>430.31</ele>
        <time>2014-10-19T14:47:06Z</time>
      </trkpt>
      <trkpt lat="46.23338" lon="6.01862">
        <ele>430.34</ele>
        <time>2014-10-19T14:47:07Z</time>
      </trkpt>
      <trkpt lat="46.23343" lon="6.01861">
        <ele>430.38</ele>
        <time>2014-10-19T14:47:08Z</time>
      </trkpt>
      <trkpt lat="46.23347" lon="6.0186">
        <ele>430.41</ele>
        <time>2014-10-19T14:47:09Z</time>
      </trkpt>
      <trkpt lat="46.23352" lon="6.01859">
        <ele>430.38</ele>
        <time>2014-10-19T14:47:10Z</time>
      </trkpt>
      <trkpt lat="46.23356" lon="6.0186">
        <ele>430.41</ele>
        <time>2014-10-19T14:47:11Z</time>
      </trkpt>
      <trkpt lat="46.2336" lon="6.01862">
        <ele>430.42</ele>
        <time>2014-10-19T14:47:12Z</time>
      </trkpt>
      <trkpt lat="46.23364" lon="6.01865">
        <ele>430.51</ele>
        <time>2014-10-19T14:47:13Z</time>
      </trkpt>
      <trkpt lat="46.23368" lon="6.01869">
        <ele>430.59</ele>
        <time>2014-10-19T14:47:14Z</time>
      </trkpt>
      <trkpt lat="46.2337" lon="6.01875">
        <ele>430.74</ele>
        <time>2014-10-19T14:47:15Z</time>
      </trkpt>
      <trkpt lat="46.23373" lon="6.01881">
        <ele>430.92</ele>
        <time>2014-10-19T14:47:16Z</time>
      </trkpt>
      <trkpt lat="46.23384" lon="6.01919">
        <ele>431.31</ele>
        <time>2014-10-19T14:47:22Z</time>
      </trkpt>
      <trkpt lat="46.23391" lon="6.01944">
        <ele>431.13</ele>
        <time>2014-10-19T14:47:26Z</time>
      </trkpt>
      <trkpt lat="46.23392" lon="6.0195">
        <ele>431.13</ele>
        <time>2014-10-19T14:47:27Z</time>
      </trkpt>
      <trkpt lat="46.23392" lon="6.01957">
        <ele>430.95</ele>
        <time>2014-10-19T14:47:28Z</time>
      </trkpt>
      <trkpt lat="46.23393" lon="6.01964">
        <ele>430.86</ele>
        <time>2014-10-19T14:47:29Z</time>
      </trkpt>
      <trkpt lat="46.23394" lon="6.0197">
        <ele>430.73</ele>
        <time>2014-10-19T14:47:30Z</time>
      </trkpt>
      <trkpt lat="46.23396" lon="6.01977">
        <ele>430.72</ele>
        <time>2014-10-19T14:47:31Z</time>
      </trkpt>
      <trkpt lat="46.23399" lon="6.01982">
        <ele>430.66</ele>
        <time>2014-10-19T14:47:32Z</time>
      </trkpt>
      <trkpt lat="46.23403" lon="6.01986">
        <ele>430.63</ele>
        <time>2014-10-19T14:47:33Z</time>
      </trkpt>
      <trkpt lat="46.23407" lon="6.0199">
        <ele>430.58</ele>
        <time>2014-10-19T14:47:34Z</time>
      </trkpt>
      <trkpt lat="46.23416" lon="6.01996">
        <ele>430.6</ele>
        <time>2014-10-19T14:47:36Z</time>
      </trkpt>
      <trkpt lat="46.23421" lon="6.01999">
        <ele>430.63</ele>
        <time>2014-10-19T14:47:37Z</time>
      </trkpt>
      <trkpt lat="46.23457" lon="6.02014">
        <ele>431.23</ele>
        <time>2014-10-19T14:47:44Z</time>
      </trkpt>
      <trkpt lat="46.23467" lon="6.02018">
        <ele>431.26</ele>
        <time>2014-10-19T14:47:46Z</time>
      </trkpt>
      <trkpt lat="46.23477" lon="6.02023">
        <ele>431.28</ele>
        <time>2014-10-19T14:47:48Z</time>
      </trkpt>
      <trkpt lat="46.23482" lon="6.02027">
        <ele>431.32</ele>
        <time>2014-10-19T14:47:49Z</time>
      </trkpt>
      <trkpt lat="46.23492" lon="6.02034">
        <ele>431.18</ele>
        <time>2014-10-19T14:47:51Z</time>
      </trkpt>
      <trkpt lat="46.23565" lon="6.02117">
        <ele>431.83</ele>
        <time>2014-10-19T14:48:08Z</time>
      </trkpt>
      <trkpt lat="46.23629" lon="6.02222">
        <ele>430.77</ele>
        <time>2014-10-19T14:48:26Z</time>
      </trkpt>
      <trkpt lat="46.23631" lon="6.02229">
        <ele>430.71</ele>
        <time>2014-10-19T14:48:27Z</time>
      </trkpt>
      <trkpt lat="46.23642" lon="6.02283">
        <ele>431.05</ele>
        <time>2014-10-19T14:48:34Z</time>
      </trkpt>
      <trkpt lat="46.23648" lon="6.02303">
        <ele>431.71</ele>
        <time>2014-10-19T14:48:37Z</time>
      </trkpt>
      <trkpt lat="46.23651" lon="6.02309">
        <ele>431.88</ele>
        <time>2014-10-19T14:48:38Z</time>
      </trkpt>
      <trkpt lat="46.23654" lon="6.02315">
        <ele>432.01</ele>
        <time>2014-10-19T14:48:39Z</time>
      </trkpt>
      <trkpt lat="46.23686" lon="6.02368">
        <ele>432.96</ele>
        <time>2014-10-19T14:48:49Z</time>
      </trkpt>
      <trkpt lat="46.23687" lon="6.02374">
        <ele>433</ele>
        <time>2014-10-19T14:48:50Z</time>
      </trkpt>
      <trkpt lat="46.23687" lon="6.0238">
        <ele>433.06</ele>
        <time>2014-10-19T14:48:51Z</time>
      </trkpt>
      <trkpt lat="46.23687" lon="6.02385">
        <ele>433.06</ele>
        <time>2014-10-19T14:48:52Z</time>
      </trkpt>
      <trkpt lat="46.23686" lon="6.02389">
        <ele>433.05</ele>
        <time>2014-10-19T14:48:53Z</time>
      </trkpt>
      <trkpt lat="46.23685" lon="6.02391">
        <ele>433.05</ele>
        <time>2014-10-19T14:48:54Z</time>
      </trkpt>
      <trkpt lat="46.23683" lon="6.02394">
        <ele>432.98</ele>
        <time>2014-10-19T14:48:55Z</time>
      </trkpt>
      <trkpt lat="46.23682" lon="6.02396">
        <ele>432.98</ele>
        <time>2014-10-19T14:48:56Z</time>
      </trkpt>
      <trkpt lat="46.2368" lon="6.02398">
        <ele>433.03</ele>
        <time>2014-10-19T14:48:57Z</time>
      </trkpt>
      <trkpt lat="46.23679" lon="6.024">
        <ele>433.06</ele>
        <time>2014-10-19T14:48:58Z</time>
      </trkpt>
      <trkpt lat="46.23678" lon="6.02402">
        <ele>433.1</ele>
        <time>2014-10-19T14:48:59Z</time>
      </trkpt>
      <trkpt lat="46.23678" lon="6.02403">
        <ele>433.18</ele>
        <time>2014-10-19T14:49:00Z</time>
      </trkpt>
      <trkpt lat="46.2368" lon="6.02404">
        <ele>433.15</ele>
        <time>2014-10-19T14:49:01Z</time>
      </trkpt>
      <trkpt lat="46.23682" lon="6.024">
        <ele>433.14</ele>
        <time>2014-10-19T14:49:03Z</time>
      </trkpt>
      <trkpt lat="46.23686" lon="6.02396">
        <ele>433.14</ele>
        <time>2014-10-19T14:49:05Z</time>
      </trkpt>
      <trkpt lat="46.23688" lon="6.02394">
        <ele>433.14</ele>
        <time>2014-10-19T14:49:06Z</time>
      </trkpt>
      <trkpt lat="46.23691" lon="6.02392">
        <ele>433.13</ele>
        <time>2014-10-19T14:49:07Z</time>
      </trkpt>
      <trkpt lat="46.23693" lon="6.02392">
        <ele>433.13</ele>
        <time>2014-10-19T14:49:08Z</time>
      </trkpt>
      <trkpt lat="46.23696" lon="6.02391">
        <ele>433.08</ele>
        <time>2014-10-19T14:49:09Z</time>
      </trkpt>
      <trkpt lat="46.237" lon="6.02392">
        <ele>432.96</ele>
        <time>2014-10-19T14:49:11Z</time>
      </trkpt>
      <trkpt lat="46.23707" lon="6.02396">
        <ele>433.04</ele>
        <time>2014-10-19T14:49:14Z</time>
      </trkpt>
      <trkpt lat="46.23711" lon="6.024">
        <ele>433.03</ele>
        <time>2014-10-19T14:49:16Z</time>
      </trkpt>
      <trkpt lat="46.23713" lon="6.02403">
        <ele>433.05</ele>
        <time>2014-10-19T14:49:17Z</time>
      </trkpt>
      <trkpt lat="46.23716" lon="6.02407">
        <ele>433.02</ele>
        <time>2014-10-19T14:49:18Z</time>
      </trkpt>
      <trkpt lat="46.23718" lon="6.0241">
        <ele>433</ele>
        <time>2014-10-19T14:49:19Z</time>
      </trkpt>
      <trkpt lat="46.23724" lon="6.02419">
        <ele>433.03</ele>
        <time>2014-10-19T14:49:21Z</time>
      </trkpt>
      <trkpt lat="46.23726" lon="6.02424">
        <ele>433.03</ele>
        <time>2014-10-19T14:49:22Z</time>
      </trkpt>
      <trkpt lat="46.23729" lon="6.02429">
        <ele>433</ele>
        <time>2014-10-19T14:49:23Z</time>
      </trkpt>
      <trkpt lat="46.23752" lon="6.02463">
        <ele>432.81</ele>
        <time>2014-10-19T14:49:30Z</time>
      </trkpt>
      <trkpt lat="46.23755" lon="6.02468">
        <ele>432.87</ele>
        <time>2014-10-19T14:49:31Z</time>
      </trkpt>
      <trkpt lat="46.23758" lon="6.02473">
        <ele>432.9</ele>
        <time>2014-10-19T14:49:32Z</time>
      </trkpt>
      <trkpt lat="46.23779" lon="6.0252">
        <ele>432.71</ele>
        <time>2014-10-19T14:49:42Z</time>
      </trkpt>
      <trkpt lat="46.23785" lon="6.02537">
        <ele>432.21</ele>
        <time>2014-10-19T14:49:45Z</time>
      </trkpt>
      <trkpt lat="46.23786" lon="6.02543">
        <ele>432.06</ele>
        <time>2014-10-19T14:49:46Z</time>
      </trkpt>
      <trkpt lat="46.23805" lon="6.0258">
        <ele>433.01</ele>
        <time>2014-10-19T14:49:55Z</time>
      </trkpt>
      <trkpt lat="46.23808" lon="6.02584">
        <ele>433.07</ele>
        <time>2014-10-19T14:49:56Z</time>
      </trkpt>
      <trkpt lat="46.23811" lon="6.02587">
        <ele>433.1</ele>
        <time>2014-10-19T14:49:57Z</time>
      </trkpt>
      <trkpt lat="46.23814" lon="6.02591">
        <ele>433.06</ele>
        <time>2014-10-19T14:49:58Z</time>
      </trkpt>
      <trkpt lat="46.23821" lon="6.026">
        <ele>432.92</ele>
        <time>2014-10-19T14:50:00Z</time>
      </trkpt>
      <trkpt lat="46.23825" lon="6.02605">
        <ele>432.65</ele>
        <time>2014-10-19T14:50:01Z</time>
      </trkpt>
      <trkpt lat="46.23829" lon="6.0261">
        <ele>432.32</ele>
        <time>2014-10-19T14:50:02Z</time>
      </trkpt>
      <trkpt lat="46.23832" lon="6.02615">
        <ele>432.12</ele>
        <time>2014-10-19T14:50:03Z</time>
      </trkpt>
      <trkpt lat="46.23836" lon="6.0262">
        <ele>432.02</ele>
        <time>2014-10-19T14:50:04Z</time>
      </trkpt>
      <trkpt lat="46.2387" lon="6.02671">
        <ele>432.03</ele>
        <time>2014-10-19T14:50:12Z</time>
      </trkpt>
      <trkpt lat="46.2392" lon="6.02751">
        <ele>432.68</ele>
        <time>2014-10-19T14:50:27Z</time>
      </trkpt>
      <trkpt lat="46.23924" lon="6.02753">
        <ele>432.73</ele>
        <time>2014-10-19T14:50:28Z</time>
      </trkpt>
      <trkpt lat="46.23927" lon="6.02753">
        <ele>432.76</ele>
        <time>2014-10-19T14:50:29Z</time>
      </trkpt>
      <trkpt lat="46.2393" lon="6.02752">
        <ele>432.63</ele>
        <time>2014-10-19T14:50:30Z</time>
      </trkpt>
      <trkpt lat="46.23934" lon="6.02751">
        <ele>432.59</ele>
        <time>2014-10-19T14:50:31Z</time>
      </trkpt>
      <trkpt lat="46.23937" lon="6.0275">
        <ele>432.71</ele>
        <time>2014-10-19T14:50:32Z</time>
      </trkpt>
      <trkpt lat="46.23939" lon="6.02749">
        <ele>432.5</ele>
        <time>2014-10-19T14:50:33Z</time>
      </trkpt>
      <trkpt lat="46.23942" lon="6.02748">
        <ele>432.52</ele>
        <time>2014-10-19T14:50:34Z</time>
      </trkpt>
      <trkpt lat="46.23945" lon="6.02748">
        <ele>432.39</ele>
        <time>2014-10-19T14:50:35Z</time>
      </trkpt>
      <trkpt lat="46.23948" lon="6.02748">
        <ele>432.32</ele>
        <time>2014-10-19T14:50:36Z</time>
      </trkpt>
      <trkpt lat="46.23952" lon="6.0275">
        <ele>432.29</ele>
        <time>2014-10-19T14:50:37Z</time>
      </trkpt>
      <trkpt lat="46.23956" lon="6.02751">
        <ele>432.17</ele>
        <time>2014-10-19T14:50:38Z</time>
      </trkpt>
      <trkpt lat="46.2396" lon="6.02753">
        <ele>432.08</ele>
        <time>2014-10-19T14:50:39Z</time>
      </trkpt>
      <trkpt lat="46.23964" lon="6.02756">
        <ele>432.03</ele>
        <time>2014-10-19T14:50:40Z</time>
      </trkpt>
      <trkpt lat="46.23968" lon="6.02759">
        <ele>431.97</ele>
        <time>2014-10-19T14:50:41Z</time>
      </trkpt>
      <trkpt lat="46.23972" lon="6.02763">
        <ele>431.84</ele>
        <time>2014-10-19T14:50:42Z</time>
      </trkpt>
      <trkpt lat="46.23973" lon="6.02768">
        <ele>431.77</ele>
        <time>2014-10-19T14:50:43Z</time>
      </trkpt>
      <trkpt lat="46.23976" lon="6.02773">
        <ele>431.77</ele>
        <time>2014-10-19T14:50:44Z</time>
      </trkpt>
      <trkpt lat="46.23984" lon="6.0279">
        <ele>431.89</ele>
        <time>2014-10-19T14:50:48Z</time>
      </trkpt>
      <trkpt lat="46.23987" lon="6.02794">
        <ele>432.01</ele>
        <time>2014-10-19T14:50:49Z</time>
      </trkpt>
      <trkpt lat="46.2399" lon="6.02797">
        <ele>432.09</ele>
        <time>2014-10-19T14:50:50Z</time>
      </trkpt>
      <trkpt lat="46.23992" lon="6.028">
        <ele>432.14</ele>
        <time>2014-10-19T14:50:51Z</time>
      </trkpt>
      <trkpt lat="46.23995" lon="6.02803">
        <ele>432.12</ele>
        <time>2014-10-19T14:50:52Z</time>
      </trkpt>
      <trkpt lat="46.23998" lon="6.02807">
        <ele>432.17</ele>
        <time>2014-10-19T14:50:53Z</time>
      </trkpt>
      <trkpt lat="46.24001" lon="6.02811">
        <ele>432.2</ele>
        <time>2014-10-19T14:50:54Z</time>
      </trkpt>
      <trkpt lat="46.24004" lon="6.02814">
        <ele>432.27</ele>
        <time>2014-10-19T14:50:55Z</time>
      </trkpt>
      <trkpt lat="46.24007" lon="6.02817">
        <ele>432.24</ele>
        <time>2014-10-19T14:50:56Z</time>
      </trkpt>
      <trkpt lat="46.24011" lon="6.02821">
        <ele>432.18</ele>
        <time>2014-10-19T14:50:57Z</time>
      </trkpt>
      <trkpt lat="46.24015" lon="6.02825">
        <ele>432.16</ele>
        <time>2014-10-19T14:50:58Z</time>
      </trkpt>
      <trkpt lat="46.24018" lon="6.02829">
        <ele>432.23</ele>
        <time>2014-10-19T14:50:59Z</time>
      </trkpt>
      <trkpt lat="46.24021" lon="6.02834">
        <ele>432.2</ele>
        <time>2014-10-19T14:51:00Z</time>
      </trkpt>
      <trkpt lat="46.24029" lon="6.02842">
        <ele>432.1</ele>
        <time>2014-10-19T14:51:02Z</time>
      </trkpt>
      <trkpt lat="46.24036" lon="6.02851">
        <ele>432.08</ele>
        <time>2014-10-19T14:51:04Z</time>
      </trkpt>
      <trkpt lat="46.24045" lon="6.02864">
        <ele>431.83</ele>
        <time>2014-10-19T14:51:07Z</time>
      </trkpt>
      <trkpt lat="46.24055" lon="6.02875">
        <ele>431.8</ele>
        <time>2014-10-19T14:51:10Z</time>
      </trkpt>
      <trkpt lat="46.24057" lon="6.02878">
        <ele>431.89</ele>
        <time>2014-10-19T14:51:11Z</time>
      </trkpt>
      <trkpt lat="46.2406" lon="6.02881">
        <ele>431.95</ele>
        <time>2014-10-19T14:51:12Z</time>
      </trkpt>
      <trkpt lat="46.24063" lon="6.02883">
        <ele>431.98</ele>
        <time>2014-10-19T14:51:13Z</time>
      </trkpt>
      <trkpt lat="46.24066" lon="6.02886">
        <ele>431.91</ele>
        <time>2014-10-19T14:51:14Z</time>
      </trkpt>
      <trkpt lat="46.24071" lon="6.02891">
        <ele>431.77</ele>
        <time>2014-10-19T14:51:16Z</time>
      </trkpt>
      <trkpt lat="46.24074" lon="6.02894">
        <ele>431.77</ele>
        <time>2014-10-19T14:51:17Z</time>
      </trkpt>
      <trkpt lat="46.24076" lon="6.02897">
        <ele>431.69</ele>
        <time>2014-10-19T14:51:18Z</time>
      </trkpt>
      <trkpt lat="46.24078" lon="6.02899">
        <ele>431.6</ele>
        <time>2014-10-19T14:51:19Z</time>
      </trkpt>
      <trkpt lat="46.2408" lon="6.029">
        <ele>431.49</ele>
        <time>2014-10-19T14:51:20Z</time>
      </trkpt>
      <trkpt lat="46.24083" lon="6.02901">
        <ele>431.34</ele>
        <time>2014-10-19T14:51:22Z</time>
      </trkpt>
      <trkpt lat="46.24085" lon="6.02901">
        <ele>431.32</ele>
        <time>2014-10-19T14:51:23Z</time>
      </trkpt>
      <trkpt lat="46.24087" lon="6.02899">
        <ele>431.31</ele>
        <time>2014-10-19T14:51:24Z</time>
      </trkpt>
      <trkpt lat="46.24089" lon="6.02897">
        <ele>431.36</ele>
        <time>2014-10-19T14:51:25Z</time>
      </trkpt>
      <trkpt lat="46.24091" lon="6.02893">
        <ele>431.39</ele>
        <time>2014-10-19T14:51:26Z</time>
      </trkpt>
      <trkpt lat="46.24093" lon="6.02889">
        <ele>431.46</ele>
        <time>2014-10-19T14:51:27Z</time>
      </trkpt>
      <trkpt lat="46.24095" lon="6.02883">
        <ele>431.46</ele>
        <time>2014-10-19T14:51:28Z</time>
      </trkpt>
      <trkpt lat="46.24101" lon="6.02869">
        <ele>431.14</ele>
        <time>2014-10-19T14:51:30Z</time>
      </trkpt>
      <trkpt lat="46.24103" lon="6.02861">
        <ele>431.09</ele>
        <time>2014-10-19T14:51:31Z</time>
      </trkpt>
      <trkpt lat="46.24137" lon="6.02743">
        <ele>430.42</ele>
        <time>2014-10-19T14:51:46Z</time>
      </trkpt>
      <trkpt lat="46.24176" lon="6.02623">
        <ele>428.63</ele>
        <time>2014-10-19T14:52:00Z</time>
      </trkpt>
      <trkpt lat="46.24195" lon="6.02571">
        <ele>429.1</ele>
        <time>2014-10-19T14:52:10Z</time>
      </trkpt>
      <trkpt lat="46.242" lon="6.02566">
        <ele>429.3</ele>
        <time>2014-10-19T14:52:12Z</time>
      </trkpt>
      <trkpt lat="46.24202" lon="6.02563">
        <ele>429.37</ele>
        <time>2014-10-19T14:52:13Z</time>
      </trkpt>
      <trkpt lat="46.24204" lon="6.02553">
        <ele>429.56</ele>
        <time>2014-10-19T14:52:15Z</time>
      </trkpt>
      <trkpt lat="46.24204" lon="6.02547">
        <ele>429.62</ele>
        <time>2014-10-19T14:52:16Z</time>
      </trkpt>
      <trkpt lat="46.24203" lon="6.02541">
        <ele>429.75</ele>
        <time>2014-10-19T14:52:17Z</time>
      </trkpt>
      <trkpt lat="46.24202" lon="6.02534">
        <ele>429.8</ele>
        <time>2014-10-19T14:52:18Z</time>
      </trkpt>
      <trkpt lat="46.24202" lon="6.02528">
        <ele>429.83</ele>
        <time>2014-10-19T14:52:19Z</time>
      </trkpt>
      <trkpt lat="46.24203" lon="6.02522">
        <ele>429.88</ele>
        <time>2014-10-19T14:52:20Z</time>
      </trkpt>
      <trkpt lat="46.2422" lon="6.02458">
        <ele>430.49</ele>
        <time>2014-10-19T14:52:30Z</time>
      </trkpt>
      <trkpt lat="46.24229" lon="6.02424">
        <ele>431.3</ele>
        <time>2014-10-19T14:52:36Z</time>
      </trkpt>
      <trkpt lat="46.24237" lon="6.02386">
        <ele>432.25</ele>
        <time>2014-10-19T14:52:43Z</time>
      </trkpt>
      <trkpt lat="46.24239" lon="6.02382">
        <ele>432.34</ele>
        <time>2014-10-19T14:52:44Z</time>
      </trkpt>
      <trkpt lat="46.2424" lon="6.02377">
        <ele>432.39</ele>
        <time>2014-10-19T14:52:45Z</time>
      </trkpt>
      <trkpt lat="46.24242" lon="6.02372">
        <ele>432.54</ele>
        <time>2014-10-19T14:52:46Z</time>
      </trkpt>
      <trkpt lat="46.24244" lon="6.02366">
        <ele>432.67</ele>
        <time>2014-10-19T14:52:47Z</time>
      </trkpt>
      <trkpt lat="46.24245" lon="6.02361">
        <ele>432.85</ele>
        <time>2014-10-19T14:52:48Z</time>
      </trkpt>
      <trkpt lat="46.24266" lon="6.0228">
        <ele>436.08</ele>
        <time>2014-10-19T14:53:04Z</time>
      </trkpt>
      <trkpt lat="46.24273" lon="6.0225">
        <ele>437.26</ele>
        <time>2014-10-19T14:53:10Z</time>
      </trkpt>
      <trkpt lat="46.24275" lon="6.02246">
        <ele>437.6</ele>
        <time>2014-10-19T14:53:11Z</time>
      </trkpt>
      <trkpt lat="46.24284" lon="6.02217">
        <ele>439.27</ele>
        <time>2014-10-19T14:53:18Z</time>
      </trkpt>
      <trkpt lat="46.24286" lon="6.02208">
        <ele>439.67</ele>
        <time>2014-10-19T14:53:20Z</time>
      </trkpt>
      <trkpt lat="46.24287" lon="6.02203">
        <ele>439.74</ele>
        <time>2014-10-19T14:53:21Z</time>
      </trkpt>
      <trkpt lat="46.24288" lon="6.02199">
        <ele>439.87</ele>
        <time>2014-10-19T14:53:22Z</time>
      </trkpt>
      <trkpt lat="46.24288" lon="6.02195">
        <ele>440.09</ele>
        <time>2014-10-19T14:53:23Z</time>
      </trkpt>
      <trkpt lat="46.24289" lon="6.02192">
        <ele>440.28</ele>
        <time>2014-10-19T14:53:24Z</time>
      </trkpt>
      <trkpt lat="46.24291" lon="6.02184">
        <ele>440.52</ele>
        <time>2014-10-19T14:53:26Z</time>
      </trkpt>
      <trkpt lat="46.24292" lon="6.0218">
        <ele>440.56</ele>
        <time>2014-10-19T14:53:27Z</time>
      </trkpt>
      <trkpt lat="46.24293" lon="6.02175">
        <ele>440.56</ele>
        <time>2014-10-19T14:53:28Z</time>
      </trkpt>
      <trkpt lat="46.24294" lon="6.02171">
        <ele>440.65</ele>
        <time>2014-10-19T14:53:29Z</time>
      </trkpt>
      <trkpt lat="46.24295" lon="6.02167">
        <ele>440.81</ele>
        <time>2014-10-19T14:53:30Z</time>
      </trkpt>
      <trkpt lat="46.24295" lon="6.02163">
        <ele>441.06</ele>
        <time>2014-10-19T14:53:31Z</time>
      </trkpt>
      <trkpt lat="46.24296" lon="6.0216">
        <ele>441.3</ele>
        <time>2014-10-19T14:53:32Z</time>
      </trkpt>
      <trkpt lat="46.24297" lon="6.02157">
        <ele>441.57</ele>
        <time>2014-10-19T14:53:33Z</time>
      </trkpt>
      <trkpt lat="46.24298" lon="6.02153">
        <ele>441.74</ele>
        <time>2014-10-19T14:53:34Z</time>
      </trkpt>
      <trkpt lat="46.24298" lon="6.0215">
        <ele>441.92</ele>
        <time>2014-10-19T14:53:35Z</time>
      </trkpt>
      <trkpt lat="46.24305" lon="6.02121">
        <ele>442.48</ele>
        <time>2014-10-19T14:53:42Z</time>
      </trkpt>
      <trkpt lat="46.24306" lon="6.02114">
        <ele>442.55</ele>
        <time>2014-10-19T14:53:44Z</time>
      </trkpt>
      <trkpt lat="46.2431" lon="6.02107">
        <ele>442.45</ele>
        <time>2014-10-19T14:53:46Z</time>
      </trkpt>
      <trkpt lat="46.24311" lon="6.02104">
        <ele>442.47</ele>
        <time>2014-10-19T14:53:47Z</time>
      </trkpt>
      <trkpt lat="46.24315" lon="6.02101">
        <ele>442.41</ele>
        <time>2014-10-19T14:53:48Z</time>
      </trkpt>
      <trkpt lat="46.24321" lon="6.02097">
        <ele>442.42</ele>
        <time>2014-10-19T14:53:50Z</time>
      </trkpt>
      <trkpt lat="46.24323" lon="6.02095">
        <ele>442.44</ele>
        <time>2014-10-19T14:53:51Z</time>
      </trkpt>
      <trkpt lat="46.24325" lon="6.02094">
        <ele>442.45</ele>
        <time>2014-10-19T14:53:52Z</time>
      </trkpt>
      <trkpt lat="46.24344" lon="6.02118">
        <ele>442.1</ele>
        <time>2014-10-19T14:54:00Z</time>
      </trkpt>
      <trkpt lat="46.24353" lon="6.0213">
        <ele>442.48</ele>
        <time>2014-10-19T14:54:03Z</time>
      </trkpt>
      <trkpt lat="46.24358" lon="6.02134">
        <ele>442.64</ele>
        <time>2014-10-19T14:54:04Z</time>
      </trkpt>
      <trkpt lat="46.24361" lon="6.02138">
        <ele>442.99</ele>
        <time>2014-10-19T14:54:05Z</time>
      </trkpt>
      <trkpt lat="46.24373" lon="6.02154">
        <ele>443.49</ele>
        <time>2014-10-19T14:54:09Z</time>
      </trkpt>
      <trkpt lat="46.24377" lon="6.02158">
        <ele>443.41</ele>
        <time>2014-10-19T14:54:10Z</time>
      </trkpt>
      <trkpt lat="46.2438" lon="6.02162">
        <ele>443.43</ele>
        <time>2014-10-19T14:54:11Z</time>
      </trkpt>
      <trkpt lat="46.24383" lon="6.02165">
        <ele>443.44</ele>
        <time>2014-10-19T14:54:12Z</time>
      </trkpt>
      <trkpt lat="46.24387" lon="6.02168">
        <ele>443.5</ele>
        <time>2014-10-19T14:54:13Z</time>
      </trkpt>
      <trkpt lat="46.2439" lon="6.02171">
        <ele>443.57</ele>
        <time>2014-10-19T14:54:14Z</time>
      </trkpt>
      <trkpt lat="46.2441" lon="6.02184">
        <ele>444.51</ele>
        <time>2014-10-19T14:54:20Z</time>
      </trkpt>
      <trkpt lat="46.24414" lon="6.02183">
        <ele>444.6</ele>
        <time>2014-10-19T14:54:21Z</time>
      </trkpt>
      <trkpt lat="46.24417" lon="6.0218">
        <ele>444.65</ele>
        <time>2014-10-19T14:54:22Z</time>
      </trkpt>
      <trkpt lat="46.2442" lon="6.02175">
        <ele>444.68</ele>
        <time>2014-10-19T14:54:23Z</time>
      </trkpt>
      <trkpt lat="46.24422" lon="6.0217">
        <ele>444.69</ele>
        <time>2014-10-19T14:54:24Z</time>
      </trkpt>
      <trkpt lat="46.24424" lon="6.02165">
        <ele>444.62</ele>
        <time>2014-10-19T14:54:25Z</time>
      </trkpt>
      <trkpt lat="46.24427" lon="6.02159">
        <ele>444.56</ele>
        <time>2014-10-19T14:54:26Z</time>
      </trkpt>
      <trkpt lat="46.24431" lon="6.02154">
        <ele>444.48</ele>
        <time>2014-10-19T14:54:27Z</time>
      </trkpt>
      <trkpt lat="46.24481" lon="6.02089">
        <ele>443.17</ele>
        <time>2014-10-19T14:54:39Z</time>
      </trkpt>
      <trkpt lat="46.24486" lon="6.02083">
        <ele>443.07</ele>
        <time>2014-10-19T14:54:40Z</time>
      </trkpt>
      <trkpt lat="46.2454" lon="6.02023">
        <ele>440.54</ele>
        <time>2014-10-19T14:54:50Z</time>
      </trkpt>
      <trkpt lat="46.24546" lon="6.02016">
        <ele>440.36</ele>
        <time>2014-10-19T14:54:51Z</time>
      </trkpt>
      <trkpt lat="46.24551" lon="6.02009">
        <ele>440.21</ele>
        <time>2014-10-19T14:54:52Z</time>
      </trkpt>
      <trkpt lat="46.2457" lon="6.01983">
        <ele>439.91</ele>
        <time>2014-10-19T14:54:56Z</time>
      </trkpt>
      <trkpt lat="46.24581" lon="6.01972">
        <ele>439.6</ele>
        <time>2014-10-19T14:54:58Z</time>
      </trkpt>
      <trkpt lat="46.24587" lon="6.01968">
        <ele>439.43</ele>
        <time>2014-10-19T14:54:59Z</time>
      </trkpt>
      <trkpt lat="46.24592" lon="6.01948">
        <ele>439.23</ele>
        <time>2014-10-19T14:55:02Z</time>
      </trkpt>
      <trkpt lat="46.24568" lon="6.0193">
        <ele>439.13</ele>
        <time>2014-10-19T14:55:07Z</time>
      </trkpt>
      <trkpt lat="46.24564" lon="6.01924">
        <ele>439.19</ele>
        <time>2014-10-19T14:55:08Z</time>
      </trkpt>
      <trkpt lat="46.2456" lon="6.01918">
        <ele>439.23</ele>
        <time>2014-10-19T14:55:09Z</time>
      </trkpt>
      <trkpt lat="46.24557" lon="6.01911">
        <ele>439.25</ele>
        <time>2014-10-19T14:55:10Z</time>
      </trkpt>
      <trkpt lat="46.24555" lon="6.01903">
        <ele>439.18</ele>
        <time>2014-10-19T14:55:11Z</time>
      </trkpt>
      <trkpt lat="46.24552" lon="6.01896">
        <ele>439.14</ele>
        <time>2014-10-19T14:55:12Z</time>
      </trkpt>
      <trkpt lat="46.24549" lon="6.01888">
        <ele>439.23</ele>
        <time>2014-10-19T14:55:13Z</time>
      </trkpt>
      <trkpt lat="46.24494" lon="6.01751">
        <ele>437.9</ele>
        <time>2014-10-19T14:55:30Z</time>
      </trkpt>
      <trkpt lat="46.24492" lon="6.01742">
        <ele>437.89</ele>
        <time>2014-10-19T14:55:31Z</time>
      </trkpt>
      <trkpt lat="46.24491" lon="6.01728">
        <ele>437.63</ele>
        <time>2014-10-19T14:55:33Z</time>
      </trkpt>
      <trkpt lat="46.24492" lon="6.01721">
        <ele>437.36</ele>
        <time>2014-10-19T14:55:34Z</time>
      </trkpt>
      <trkpt lat="46.24494" lon="6.01715">
        <ele>437.09</ele>
        <time>2014-10-19T14:55:35Z</time>
      </trkpt>
      <trkpt lat="46.24496" lon="6.01709">
        <ele>436.78</ele>
        <time>2014-10-19T14:55:36Z</time>
      </trkpt>
      <trkpt lat="46.24503" lon="6.01686">
        <ele>436.39</ele>
        <time>2014-10-19T14:55:39Z</time>
      </trkpt>
      <trkpt lat="46.24513" lon="6.01661">
        <ele>435.92</ele>
        <time>2014-10-19T14:55:42Z</time>
      </trkpt>
      <trkpt lat="46.24581" lon="6.01547">
        <ele>434.28</ele>
        <time>2014-10-19T14:55:56Z</time>
      </trkpt>
      <trkpt lat="46.24588" lon="6.0153">
        <ele>434.3</ele>
        <time>2014-10-19T14:55:58Z</time>
      </trkpt>
      <trkpt lat="46.24593" lon="6.01522">
        <ele>434.43</ele>
        <time>2014-10-19T14:55:59Z</time>
      </trkpt>
      <trkpt lat="46.24598" lon="6.01516">
        <ele>434.55</ele>
        <time>2014-10-19T14:56:00Z</time>
      </trkpt>
      <trkpt lat="46.24614" lon="6.01498">
        <ele>434.82</ele>
        <time>2014-10-19T14:56:03Z</time>
      </trkpt>
      <trkpt lat="46.24673" lon="6.0141">
        <ele>437.26</ele>
        <time>2014-10-19T14:56:19Z</time>
      </trkpt>
      <trkpt lat="46.24686" lon="6.01393">
        <ele>437.9</ele>
        <time>2014-10-19T14:56:23Z</time>
      </trkpt>
      <trkpt lat="46.2469" lon="6.01388">
        <ele>438.11</ele>
        <time>2014-10-19T14:56:24Z</time>
      </trkpt>
      <trkpt lat="46.2474" lon="6.01312">
        <ele>439.49</ele>
        <time>2014-10-19T14:56:40Z</time>
      </trkpt>
      <trkpt lat="46.248" lon="6.01213">
        <ele>441.23</ele>
        <time>2014-10-19T14:57:00Z</time>
      </trkpt>
      <trkpt lat="46.24856" lon="6.01117">
        <ele>442.13</ele>
        <time>2014-10-19T14:57:19Z</time>
      </trkpt>
      <trkpt lat="46.24868" lon="6.01098">
        <ele>442.67</ele>
        <time>2014-10-19T14:57:23Z</time>
      </trkpt>
      <trkpt lat="46.24884" lon="6.0107">
        <ele>443.19</ele>
        <time>2014-10-19T14:57:29Z</time>
      </trkpt>
      <trkpt lat="46.2489" lon="6.01061">
        <ele>443.35</ele>
        <time>2014-10-19T14:57:31Z</time>
      </trkpt>
      <trkpt lat="46.24901" lon="6.01042">
        <ele>443.65</ele>
        <time>2014-10-19T14:57:35Z</time>
      </trkpt>
      <trkpt lat="46.24903" lon="6.01037">
        <ele>443.7</ele>
        <time>2014-10-19T14:57:36Z</time>
      </trkpt>
      <trkpt lat="46.24906" lon="6.01031">
        <ele>443.74</ele>
        <time>2014-10-19T14:57:37Z</time>
      </trkpt>
      <trkpt lat="46.2491" lon="6.01019">
        <ele>443.83</ele>
        <time>2014-10-19T14:57:39Z</time>
      </trkpt>
      <trkpt lat="46.24913" lon="6.01013">
        <ele>443.8</ele>
        <time>2014-10-19T14:57:40Z</time>
      </trkpt>
      <trkpt lat="46.24943" lon="6.00907">
        <ele>445.16</ele>
        <time>2014-10-19T14:57:58Z</time>
      </trkpt>
      <trkpt lat="46.24966" lon="6.00823">
        <ele>446.79</ele>
        <time>2014-10-19T14:58:13Z</time>
      </trkpt>
      <trkpt lat="46.24967" lon="6.00818">
        <ele>446.82</ele>
        <time>2014-10-19T14:58:14Z</time>
      </trkpt>
      <trkpt lat="46.24981" lon="6.00753">
        <ele>447.25</ele>
        <time>2014-10-19T14:58:25Z</time>
      </trkpt>
      <trkpt lat="46.25006" lon="6.0064">
        <ele>449.33</ele>
        <time>2014-10-19T14:58:44Z</time>
      </trkpt>
      <trkpt lat="46.25008" lon="6.00634">
        <ele>449.45</ele>
        <time>2014-10-19T14:58:45Z</time>
      </trkpt>
      <trkpt lat="46.25024" lon="6.00557">
        <ele>450.84</ele>
        <time>2014-10-19T14:58:58Z</time>
      </trkpt>
      <trkpt lat="46.25026" lon="6.00552">
        <ele>450.96</ele>
        <time>2014-10-19T14:58:59Z</time>
      </trkpt>
      <trkpt lat="46.25032" lon="6.00524">
        <ele>450.86</ele>
        <time>2014-10-19T14:59:04Z</time>
      </trkpt>
      <trkpt lat="46.25033" lon="6.00518">
        <ele>451.02</ele>
        <time>2014-10-19T14:59:05Z</time>
      </trkpt>
      <trkpt lat="46.25037" lon="6.00507">
        <ele>451.4</ele>
        <time>2014-10-19T14:59:07Z</time>
      </trkpt>
      <trkpt lat="46.25041" lon="6.00496">
        <ele>451.47</ele>
        <time>2014-10-19T14:59:09Z</time>
      </trkpt>
      <trkpt lat="46.25044" lon="6.00491">
        <ele>451.43</ele>
        <time>2014-10-19T14:59:10Z</time>
      </trkpt>
      <trkpt lat="46.25092" lon="6.0041">
        <ele>453.07</ele>
        <time>2014-10-19T14:59:27Z</time>
      </trkpt>
      <trkpt lat="46.25098" lon="6.004">
        <ele>453.07</ele>
        <time>2014-10-19T14:59:29Z</time>
      </trkpt>
      <trkpt lat="46.25103" lon="6.00391">
        <ele>453.12</ele>
        <time>2014-10-19T14:59:31Z</time>
      </trkpt>
      <trkpt lat="46.25142" lon="6.00336">
        <ele>454.6</ele>
        <time>2014-10-19T14:59:45Z</time>
      </trkpt>
      <trkpt lat="46.25153" lon="6.0032">
        <ele>454.82</ele>
        <time>2014-10-19T14:59:49Z</time>
      </trkpt>
      <trkpt lat="46.25157" lon="6.00316">
        <ele>454.88</ele>
        <time>2014-10-19T14:59:50Z</time>
      </trkpt>
      <trkpt lat="46.2516" lon="6.00312">
        <ele>454.91</ele>
        <time>2014-10-19T14:59:51Z</time>
      </trkpt>
      <trkpt lat="46.25162" lon="6.00308">
        <ele>454.92</ele>
        <time>2014-10-19T14:59:52Z</time>
      </trkpt>
      <trkpt lat="46.2518" lon="6.00282">
        <ele>454.95</ele>
        <time>2014-10-19T14:59:58Z</time>
      </trkpt>
      <trkpt lat="46.25201" lon="6.00253">
        <ele>455.84</ele>
        <time>2014-10-19T15:00:05Z</time>
      </trkpt>
      <trkpt lat="46.25205" lon="6.00249">
        <ele>455.91</ele>
        <time>2014-10-19T15:00:06Z</time>
      </trkpt>
      <trkpt lat="46.25208" lon="6.00245">
        <ele>455.98</ele>
        <time>2014-10-19T15:00:07Z</time>
      </trkpt>
      <trkpt lat="46.25212" lon="6.00242">
        <ele>456</ele>
        <time>2014-10-19T15:00:08Z</time>
      </trkpt>
      <trkpt lat="46.25215" lon="6.00239">
        <ele>455.95</ele>
        <time>2014-10-19T15:00:09Z</time>
      </trkpt>
      <trkpt lat="46.25275" lon="6.0017">
        <ele>457.59</ele>
        <time>2014-10-19T15:00:28Z</time>
      </trkpt>
      <trkpt lat="46.25317" lon="6.00113">
        <ele>458.7</ele>
        <time>2014-10-19T15:00:43Z</time>
      </trkpt>
      <trkpt lat="46.25345" lon="6.00065">
        <ele>459.69</ele>
        <time>2014-10-19T15:00:54Z</time>
      </trkpt>
      <trkpt lat="46.25347" lon="6.0006">
        <ele>459.81</ele>
        <time>2014-10-19T15:00:55Z</time>
      </trkpt>
      <trkpt lat="46.25349" lon="6.00025">
        <ele>460.75</ele>
        <time>2014-10-19T15:01:02Z</time>
      </trkpt>
      <trkpt lat="46.25348" lon="6.0002">
        <ele>460.91</ele>
        <time>2014-10-19T15:01:03Z</time>
      </trkpt>
      <trkpt lat="46.25345" lon="6.00012">
        <ele>461.17</ele>
        <time>2014-10-19T15:01:05Z</time>
      </trkpt>
      <trkpt lat="46.25343" lon="6.00008">
        <ele>461.39</ele>
        <time>2014-10-19T15:01:06Z</time>
      </trkpt>
      <trkpt lat="46.25341" lon="6.00004">
        <ele>461.39</ele>
        <time>2014-10-19T15:01:07Z</time>
      </trkpt>
      <trkpt lat="46.25336" lon="5.99997">
        <ele>461.71</ele>
        <time>2014-10-19T15:01:09Z</time>
      </trkpt>
      <trkpt lat="46.25334" lon="5.99993">
        <ele>461.89</ele>
        <time>2014-10-19T15:01:10Z</time>
      </trkpt>
      <trkpt lat="46.25331" lon="5.9999">
        <ele>462</ele>
        <time>2014-10-19T15:01:11Z</time>
      </trkpt>
      <trkpt lat="46.25328" lon="5.99988">
        <ele>462.06</ele>
        <time>2014-10-19T15:01:12Z</time>
      </trkpt>
      <trkpt lat="46.25325" lon="5.99985">
        <ele>462.13</ele>
        <time>2014-10-19T15:01:13Z</time>
      </trkpt>
      <trkpt lat="46.25322" lon="5.99982">
        <ele>462.26</ele>
        <time>2014-10-19T15:01:14Z</time>
      </trkpt>
      <trkpt lat="46.25319" lon="5.9998">
        <ele>462.41</ele>
        <time>2014-10-19T15:01:15Z</time>
      </trkpt>
      <trkpt lat="46.25316" lon="5.99977">
        <ele>462.5</ele>
        <time>2014-10-19T15:01:16Z</time>
      </trkpt>
      <trkpt lat="46.25313" lon="5.99975">
        <ele>462.56</ele>
        <time>2014-10-19T15:01:17Z</time>
      </trkpt>
      <trkpt lat="46.25305" lon="5.99967">
        <ele>462.89</ele>
        <time>2014-10-19T15:01:20Z</time>
      </trkpt>
      <trkpt lat="46.25302" lon="5.99964">
        <ele>463.06</ele>
        <time>2014-10-19T15:01:21Z</time>
      </trkpt>
      <trkpt lat="46.25299" lon="5.99961">
        <ele>463.3</ele>
        <time>2014-10-19T15:01:22Z</time>
      </trkpt>
      <trkpt lat="46.25293" lon="5.99955">
        <ele>463.39</ele>
        <time>2014-10-19T15:01:24Z</time>
      </trkpt>
      <trkpt lat="46.2529" lon="5.99952">
        <ele>463.53</ele>
        <time>2014-10-19T15:01:25Z</time>
      </trkpt>
      <trkpt lat="46.25288" lon="5.99949">
        <ele>463.6</ele>
        <time>2014-10-19T15:01:26Z</time>
      </trkpt>
      <trkpt lat="46.25285" lon="5.99946">
        <ele>463.77</ele>
        <time>2014-10-19T15:01:27Z</time>
      </trkpt>
      <trkpt lat="46.25282" lon="5.99944">
        <ele>463.81</ele>
        <time>2014-10-19T15:01:28Z</time>
      </trkpt>
      <trkpt lat="46.25279" lon="5.99941">
        <ele>463.84</ele>
        <time>2014-10-19T15:01:29Z</time>
      </trkpt>
      <trkpt lat="46.25277" lon="5.99938">
        <ele>463.85</ele>
        <time>2014-10-19T15:01:30Z</time>
      </trkpt>
      <trkpt lat="46.25268" lon="5.9993">
        <ele>463.83</ele>
        <time>2014-10-19T15:01:33Z</time>
      </trkpt>
      <trkpt lat="46.25266" lon="5.99926">
        <ele>463.85</ele>
        <time>2014-10-19T15:01:34Z</time>
      </trkpt>
      <trkpt lat="46.25265" lon="5.99921">
        <ele>463.86</ele>
        <time>2014-10-19T15:01:35Z</time>
      </trkpt>
      <trkpt lat="46.25264" lon="5.99916">
        <ele>463.86</ele>
        <time>2014-10-19T15:01:36Z</time>
      </trkpt>
      <trkpt lat="46.25265" lon="5.99911">
        <ele>463.89</ele>
        <time>2014-10-19T15:01:37Z</time>
      </trkpt>
      <trkpt lat="46.25266" lon="5.99906">
        <ele>464</ele>
        <time>2014-10-19T15:01:38Z</time>
      </trkpt>
      <trkpt lat="46.25267" lon="5.99902">
        <ele>464.09</ele>
        <time>2014-10-19T15:01:39Z</time>
      </trkpt>
      <trkpt lat="46.25269" lon="5.99898">
        <ele>464.14</ele>
        <time>2014-10-19T15:01:40Z</time>
      </trkpt>
      <trkpt lat="46.25271" lon="5.99894">
        <ele>464.16</ele>
        <time>2014-10-19T15:01:41Z</time>
      </trkpt>
      <trkpt lat="46.25273" lon="5.9989">
        <ele>464.16</ele>
        <time>2014-10-19T15:01:42Z</time>
      </trkpt>
      <trkpt lat="46.25276" lon="5.99886">
        <ele>464.17</ele>
        <time>2014-10-19T15:01:43Z</time>
      </trkpt>
      <trkpt lat="46.25278" lon="5.99881">
        <ele>464.18</ele>
        <time>2014-10-19T15:01:44Z</time>
      </trkpt>
      <trkpt lat="46.2528" lon="5.99877">
        <ele>464.22</ele>
        <time>2014-10-19T15:01:45Z</time>
      </trkpt>
      <trkpt lat="46.25282" lon="5.99873">
        <ele>464.33</ele>
        <time>2014-10-19T15:01:46Z</time>
      </trkpt>
      <trkpt lat="46.25284" lon="5.99868">
        <ele>464.48</ele>
        <time>2014-10-19T15:01:47Z</time>
      </trkpt>
      <trkpt lat="46.25321" lon="5.99798">
        <ele>466.04</ele>
        <time>2014-10-19T15:02:03Z</time>
      </trkpt>
      <trkpt lat="46.25324" lon="5.99794">
        <ele>466.22</ele>
        <time>2014-10-19T15:02:04Z</time>
      </trkpt>
      <trkpt lat="46.25326" lon="5.99789">
        <ele>466.45</ele>
        <time>2014-10-19T15:02:05Z</time>
      </trkpt>
      <trkpt lat="46.25358" lon="5.99746">
        <ele>468.07</ele>
        <time>2014-10-19T15:02:17Z</time>
      </trkpt>
      <trkpt lat="46.25361" lon="5.99743">
        <ele>468.11</ele>
        <time>2014-10-19T15:02:18Z</time>
      </trkpt>
      <trkpt lat="46.25364" lon="5.99739">
        <ele>468.13</ele>
        <time>2014-10-19T15:02:19Z</time>
      </trkpt>
      <trkpt lat="46.25367" lon="5.99736">
        <ele>468.13</ele>
        <time>2014-10-19T15:02:20Z</time>
      </trkpt>
      <trkpt lat="46.25369" lon="5.99732">
        <ele>468.2</ele>
        <time>2014-10-19T15:02:21Z</time>
      </trkpt>
      <trkpt lat="46.25372" lon="5.99728">
        <ele>468.4</ele>
        <time>2014-10-19T15:02:22Z</time>
      </trkpt>
      <trkpt lat="46.25375" lon="5.99725">
        <ele>468.66</ele>
        <time>2014-10-19T15:02:23Z</time>
      </trkpt>
      <trkpt lat="46.25377" lon="5.99721">
        <ele>468.92</ele>
        <time>2014-10-19T15:02:24Z</time>
      </trkpt>
      <trkpt lat="46.2538" lon="5.99718">
        <ele>469.14</ele>
        <time>2014-10-19T15:02:25Z</time>
      </trkpt>
      <trkpt lat="46.25385" lon="5.9971">
        <ele>469.38</ele>
        <time>2014-10-19T15:02:27Z</time>
      </trkpt>
      <trkpt lat="46.25396" lon="5.99694">
        <ele>469.66</ele>
        <time>2014-10-19T15:02:31Z</time>
      </trkpt>
      <trkpt lat="46.25398" lon="5.99691">
        <ele>469.8</ele>
        <time>2014-10-19T15:02:32Z</time>
      </trkpt>
      <trkpt lat="46.254" lon="5.99687">
        <ele>470</ele>
        <time>2014-10-19T15:02:33Z</time>
      </trkpt>
      <trkpt lat="46.25412" lon="5.99668">
        <ele>470.77</ele>
        <time>2014-10-19T15:02:38Z</time>
      </trkpt>
      <trkpt lat="46.25414" lon="5.99664">
        <ele>470.92</ele>
        <time>2014-10-19T15:02:39Z</time>
      </trkpt>
      <trkpt lat="46.25416" lon="5.9966">
        <ele>471.12</ele>
        <time>2014-10-19T15:02:40Z</time>
      </trkpt>
      <trkpt lat="46.25418" lon="5.99656">
        <ele>471.12</ele>
        <time>2014-10-19T15:02:41Z</time>
      </trkpt>
      <trkpt lat="46.2542" lon="5.99652">
        <ele>471.22</ele>
        <time>2014-10-19T15:02:42Z</time>
      </trkpt>
      <trkpt lat="46.25424" lon="5.99645">
        <ele>471.8</ele>
        <time>2014-10-19T15:02:44Z</time>
      </trkpt>
      <trkpt lat="46.25427" lon="5.99642">
        <ele>472.01</ele>
        <time>2014-10-19T15:02:45Z</time>
      </trkpt>
      <trkpt lat="46.25429" lon="5.99639">
        <ele>472.21</ele>
        <time>2014-10-19T15:02:46Z</time>
      </trkpt>
      <trkpt lat="46.25432" lon="5.99636">
        <ele>472.21</ele>
        <time>2014-10-19T15:02:47Z</time>
      </trkpt>
      <trkpt lat="46.25434" lon="5.99633">
        <ele>472.28</ele>
        <time>2014-10-19T15:02:48Z</time>
      </trkpt>
      <trkpt lat="46.25437" lon="5.9963">
        <ele>472.41</ele>
        <time>2014-10-19T15:02:49Z</time>
      </trkpt>
      <trkpt lat="46.25454" lon="5.99611">
        <ele>473.56</ele>
        <time>2014-10-19T15:02:55Z</time>
      </trkpt>
      <trkpt lat="46.25457" lon="5.99607">
        <ele>473.64</ele>
        <time>2014-10-19T15:02:56Z</time>
      </trkpt>
      <trkpt lat="46.25459" lon="5.99604">
        <ele>473.74</ele>
        <time>2014-10-19T15:02:57Z</time>
      </trkpt>
      <trkpt lat="46.25483" lon="5.9957">
        <ele>475.71</ele>
        <time>2014-10-19T15:03:07Z</time>
      </trkpt>
      <trkpt lat="46.25488" lon="5.99563">
        <ele>475.97</ele>
        <time>2014-10-19T15:03:09Z</time>
      </trkpt>
      <trkpt lat="46.2549" lon="5.9956">
        <ele>476</ele>
        <time>2014-10-19T15:03:10Z</time>
      </trkpt>
      <trkpt lat="46.25493" lon="5.99556">
        <ele>476.04</ele>
        <time>2014-10-19T15:03:11Z</time>
      </trkpt>
      <trkpt lat="46.25495" lon="5.99553">
        <ele>476.06</ele>
        <time>2014-10-19T15:03:12Z</time>
      </trkpt>
      <trkpt lat="46.25498" lon="5.9955">
        <ele>476.07</ele>
        <time>2014-10-19T15:03:13Z</time>
      </trkpt>
      <trkpt lat="46.25501" lon="5.99546">
        <ele>476.17</ele>
        <time>2014-10-19T15:03:14Z</time>
      </trkpt>
      <trkpt lat="46.25545" lon="5.9949">
        <ele>478.77</ele>
        <time>2014-10-19T15:03:32Z</time>
      </trkpt>
      <trkpt lat="46.25547" lon="5.99487">
        <ele>478.99</ele>
        <time>2014-10-19T15:03:33Z</time>
      </trkpt>
      <trkpt lat="46.25549" lon="5.99485">
        <ele>479.16</ele>
        <time>2014-10-19T15:03:34Z</time>
      </trkpt>
      <trkpt lat="46.25551" lon="5.99482">
        <ele>479.33</ele>
        <time>2014-10-19T15:03:35Z</time>
      </trkpt>
      <trkpt lat="46.25556" lon="5.99477">
        <ele>479.73</ele>
        <time>2014-10-19T15:03:37Z</time>
      </trkpt>
      <trkpt lat="46.25558" lon="5.99474">
        <ele>479.9</ele>
        <time>2014-10-19T15:03:38Z</time>
      </trkpt>
      <trkpt lat="46.25561" lon="5.99471">
        <ele>480.11</ele>
        <time>2014-10-19T15:03:39Z</time>
      </trkpt>
      <trkpt lat="46.25563" lon="5.99469">
        <ele>480.25</ele>
        <time>2014-10-19T15:03:40Z</time>
      </trkpt>
      <trkpt lat="46.25565" lon="5.99467">
        <ele>480.87</ele>
        <time>2014-10-19T15:03:41Z</time>
      </trkpt>
      <trkpt lat="46.25569" lon="5.99461">
        <ele>481.05</ele>
        <time>2014-10-19T15:03:43Z</time>
      </trkpt>
      <trkpt lat="46.25573" lon="5.99457">
        <ele>481.63</ele>
        <time>2014-10-19T15:03:45Z</time>
      </trkpt>
      <trkpt lat="46.25575" lon="5.99454">
        <ele>481.87</ele>
        <time>2014-10-19T15:03:46Z</time>
      </trkpt>
      <trkpt lat="46.25577" lon="5.99452">
        <ele>482.06</ele>
        <time>2014-10-19T15:03:47Z</time>
      </trkpt>
      <trkpt lat="46.25608" lon="5.99439">
        <ele>483.38</ele>
        <time>2014-10-19T15:03:59Z</time>
      </trkpt>
      <trkpt lat="46.2561" lon="5.9944">
        <ele>483.51</ele>
        <time>2014-10-19T15:04:00Z</time>
      </trkpt>
      <trkpt lat="46.25612" lon="5.99442">
        <ele>483.63</ele>
        <time>2014-10-19T15:04:01Z</time>
      </trkpt>
      <trkpt lat="46.25644" lon="5.99457">
        <ele>484.11</ele>
        <time>2014-10-19T15:04:15Z</time>
      </trkpt>
      <trkpt lat="46.25695" lon="5.99496">
        <ele>485.17</ele>
        <time>2014-10-19T15:04:32Z</time>
      </trkpt>
      <trkpt lat="46.25705" lon="5.99507">
        <ele>485.15</ele>
        <time>2014-10-19T15:04:35Z</time>
      </trkpt>
      <trkpt lat="46.25708" lon="5.9951">
        <ele>485.14</ele>
        <time>2014-10-19T15:04:36Z</time>
      </trkpt>
      <trkpt lat="46.25776" lon="5.99577">
        <ele>486.25</ele>
        <time>2014-10-19T15:04:57Z</time>
      </trkpt>
      <trkpt lat="46.25798" lon="5.99589">
        <ele>486.84</ele>
        <time>2014-10-19T15:05:03Z</time>
      </trkpt>
      <trkpt lat="46.25802" lon="5.99591">
        <ele>486.92</ele>
        <time>2014-10-19T15:05:04Z</time>
      </trkpt>
      <trkpt lat="46.25805" lon="5.99593">
        <ele>486.95</ele>
        <time>2014-10-19T15:05:05Z</time>
      </trkpt>
      <trkpt lat="46.25809" lon="5.99595">
        <ele>487.09</ele>
        <time>2014-10-19T15:05:06Z</time>
      </trkpt>
      <trkpt lat="46.25813" lon="5.99597">
        <ele>487.17</ele>
        <time>2014-10-19T15:05:07Z</time>
      </trkpt>
      <trkpt lat="46.25816" lon="5.99599">
        <ele>487.4</ele>
        <time>2014-10-19T15:05:08Z</time>
      </trkpt>
      <trkpt lat="46.25819" lon="5.996">
        <ele>487.45</ele>
        <time>2014-10-19T15:05:09Z</time>
      </trkpt>
      <trkpt lat="46.25822" lon="5.99602">
        <ele>487.57</ele>
        <time>2014-10-19T15:05:10Z</time>
      </trkpt>
      <trkpt lat="46.25832" lon="5.99607">
        <ele>487.78</ele>
        <time>2014-10-19T15:05:13Z</time>
      </trkpt>
      <trkpt lat="46.25835" lon="5.99608">
        <ele>487.83</ele>
        <time>2014-10-19T15:05:14Z</time>
      </trkpt>
      <trkpt lat="46.25838" lon="5.99609">
        <ele>487.91</ele>
        <time>2014-10-19T15:05:15Z</time>
      </trkpt>
      <trkpt lat="46.25842" lon="5.9961">
        <ele>488.11</ele>
        <time>2014-10-19T15:05:16Z</time>
      </trkpt>
      <trkpt lat="46.25846" lon="5.99612">
        <ele>488.37</ele>
        <time>2014-10-19T15:05:17Z</time>
      </trkpt>
      <trkpt lat="46.2585" lon="5.99613">
        <ele>488.66</ele>
        <time>2014-10-19T15:05:18Z</time>
      </trkpt>
      <trkpt lat="46.25853" lon="5.99615">
        <ele>488.97</ele>
        <time>2014-10-19T15:05:19Z</time>
      </trkpt>
      <trkpt lat="46.25857" lon="5.99617">
        <ele>489.16</ele>
        <time>2014-10-19T15:05:20Z</time>
      </trkpt>
      <trkpt lat="46.2587" lon="5.99623">
        <ele>489.72</ele>
        <time>2014-10-19T15:05:24Z</time>
      </trkpt>
      <trkpt lat="46.25876" lon="5.99622">
        <ele>490.06</ele>
        <time>2014-10-19T15:05:26Z</time>
      </trkpt>
      <trkpt lat="46.25878" lon="5.99619">
        <ele>490.25</ele>
        <time>2014-10-19T15:05:27Z</time>
      </trkpt>
      <trkpt lat="46.25883" lon="5.99614">
        <ele>490.57</ele>
        <time>2014-10-19T15:05:29Z</time>
      </trkpt>
      <trkpt lat="46.25895" lon="5.99601">
        <ele>490.88</ele>
        <time>2014-10-19T15:05:34Z</time>
      </trkpt>
      <trkpt lat="46.25898" lon="5.99598">
        <ele>490.96</ele>
        <time>2014-10-19T15:05:35Z</time>
      </trkpt>
      <trkpt lat="46.25902" lon="5.99593">
        <ele>491.04</ele>
        <time>2014-10-19T15:05:37Z</time>
      </trkpt>
      <trkpt lat="46.25904" lon="5.99591">
        <ele>491.21</ele>
        <time>2014-10-19T15:05:38Z</time>
      </trkpt>
      <trkpt lat="46.25906" lon="5.99588">
        <ele>491.46</ele>
        <time>2014-10-19T15:05:39Z</time>
      </trkpt>
      <trkpt lat="46.2591" lon="5.99583">
        <ele>491.82</ele>
        <time>2014-10-19T15:05:41Z</time>
      </trkpt>
      <trkpt lat="46.25912" lon="5.9958">
        <ele>491.97</ele>
        <time>2014-10-19T15:05:42Z</time>
      </trkpt>
      <trkpt lat="46.25915" lon="5.99577">
        <ele>492.06</ele>
        <time>2014-10-19T15:05:43Z</time>
      </trkpt>
      <trkpt lat="46.25917" lon="5.99574">
        <ele>492.2</ele>
        <time>2014-10-19T15:05:44Z</time>
      </trkpt>
      <trkpt lat="46.2592" lon="5.99572">
        <ele>492.2</ele>
        <time>2014-10-19T15:05:45Z</time>
      </trkpt>
      <trkpt lat="46.25923" lon="5.99569">
        <ele>492.29</ele>
        <time>2014-10-19T15:05:46Z</time>
      </trkpt>
      <trkpt lat="46.25925" lon="5.99567">
        <ele>492.38</ele>
        <time>2014-10-19T15:05:47Z</time>
      </trkpt>
      <trkpt lat="46.25931" lon="5.99563">
        <ele>492.5</ele>
        <time>2014-10-19T15:05:49Z</time>
      </trkpt>
      <trkpt lat="46.25933" lon="5.9956">
        <ele>492.56</ele>
        <time>2014-10-19T15:05:50Z</time>
      </trkpt>
      <trkpt lat="46.2594" lon="5.99552">
        <ele>492.95</ele>
        <time>2014-10-19T15:05:53Z</time>
      </trkpt>
      <trkpt lat="46.25943" lon="5.99549">
        <ele>493.38</ele>
        <time>2014-10-19T15:05:54Z</time>
      </trkpt>
      <trkpt lat="46.25945" lon="5.99546">
        <ele>493.76</ele>
        <time>2014-10-19T15:05:55Z</time>
      </trkpt>
      <trkpt lat="46.25947" lon="5.99543">
        <ele>494.02</ele>
        <time>2014-10-19T15:05:56Z</time>
      </trkpt>
      <trkpt lat="46.25949" lon="5.9954">
        <ele>494.15</ele>
        <time>2014-10-19T15:05:57Z</time>
      </trkpt>
      <trkpt lat="46.25952" lon="5.99537">
        <ele>494.33</ele>
        <time>2014-10-19T15:05:58Z</time>
      </trkpt>
      <trkpt lat="46.25954" lon="5.99534">
        <ele>494.44</ele>
        <time>2014-10-19T15:05:59Z</time>
      </trkpt>
      <trkpt lat="46.25956" lon="5.9953">
        <ele>494.61</ele>
        <time>2014-10-19T15:06:00Z</time>
      </trkpt>
      <trkpt lat="46.25958" lon="5.99527">
        <ele>494.8</ele>
        <time>2014-10-19T15:06:01Z</time>
      </trkpt>
      <trkpt lat="46.2596" lon="5.99524">
        <ele>494.89</ele>
        <time>2014-10-19T15:06:02Z</time>
      </trkpt>
      <trkpt lat="46.25962" lon="5.99521">
        <ele>495.1</ele>
        <time>2014-10-19T15:06:03Z</time>
      </trkpt>
      <trkpt lat="46.25964" lon="5.99517">
        <ele>495.1</ele>
        <time>2014-10-19T15:06:04Z</time>
      </trkpt>
      <trkpt lat="46.25966" lon="5.99514">
        <ele>495.3</ele>
        <time>2014-10-19T15:06:05Z</time>
      </trkpt>
      <trkpt lat="46.25968" lon="5.99511">
        <ele>495.45</ele>
        <time>2014-10-19T15:06:06Z</time>
      </trkpt>
      <trkpt lat="46.2597" lon="5.99508">
        <ele>495.59</ele>
        <time>2014-10-19T15:06:07Z</time>
      </trkpt>
      <trkpt lat="46.25972" lon="5.99505">
        <ele>495.75</ele>
        <time>2014-10-19T15:06:08Z</time>
      </trkpt>
      <trkpt lat="46.25974" lon="5.99501">
        <ele>495.88</ele>
        <time>2014-10-19T15:06:09Z</time>
      </trkpt>
      <trkpt lat="46.25977" lon="5.99498">
        <ele>495.96</ele>
        <time>2014-10-19T15:06:10Z</time>
      </trkpt>
      <trkpt lat="46.25979" lon="5.99495">
        <ele>496.12</ele>
        <time>2014-10-19T15:06:11Z</time>
      </trkpt>
      <trkpt lat="46.25982" lon="5.99492">
        <ele>496.39</ele>
        <time>2014-10-19T15:06:12Z</time>
      </trkpt>
      <trkpt lat="46.25985" lon="5.99489">
        <ele>496.74</ele>
        <time>2014-10-19T15:06:13Z</time>
      </trkpt>
      <trkpt lat="46.25989" lon="5.99483">
        <ele>497.38</ele>
        <time>2014-10-19T15:06:15Z</time>
      </trkpt>
      <trkpt lat="46.25991" lon="5.9948">
        <ele>497.55</ele>
        <time>2014-10-19T15:06:16Z</time>
      </trkpt>
      <trkpt lat="46.25993" lon="5.99477">
        <ele>497.6</ele>
        <time>2014-10-19T15:06:17Z</time>
      </trkpt>
      <trkpt lat="46.25996" lon="5.99475">
        <ele>497.66</ele>
        <time>2014-10-19T15:06:18Z</time>
      </trkpt>
      <trkpt lat="46.26" lon="5.99469">
        <ele>497.97</ele>
        <time>2014-10-19T15:06:20Z</time>
      </trkpt>
      <trkpt lat="46.26002" lon="5.99467">
        <ele>498.3</ele>
        <time>2014-10-19T15:06:21Z</time>
      </trkpt>
      <trkpt lat="46.26005" lon="5.99465">
        <ele>498.52</ele>
        <time>2014-10-19T15:06:22Z</time>
      </trkpt>
      <trkpt lat="46.26007" lon="5.99463">
        <ele>498.75</ele>
        <time>2014-10-19T15:06:23Z</time>
      </trkpt>
      <trkpt lat="46.2601" lon="5.99461">
        <ele>498.99</ele>
        <time>2014-10-19T15:06:24Z</time>
      </trkpt>
      <trkpt lat="46.26016" lon="5.99455">
        <ele>499.95</ele>
        <time>2014-10-19T15:06:27Z</time>
      </trkpt>
      <trkpt lat="46.26019" lon="5.99452">
        <ele>500.33</ele>
        <time>2014-10-19T15:06:28Z</time>
      </trkpt>
      <trkpt lat="46.26021" lon="5.9945">
        <ele>500.5</ele>
        <time>2014-10-19T15:06:29Z</time>
      </trkpt>
      <trkpt lat="46.26023" lon="5.99449">
        <ele>500.75</ele>
        <time>2014-10-19T15:06:30Z</time>
      </trkpt>
      <trkpt lat="46.26026" lon="5.99447">
        <ele>500.85</ele>
        <time>2014-10-19T15:06:31Z</time>
      </trkpt>
      <trkpt lat="46.26032" lon="5.99444">
        <ele>501.23</ele>
        <time>2014-10-19T15:06:33Z</time>
      </trkpt>
      <trkpt lat="46.26035" lon="5.99442">
        <ele>501.36</ele>
        <time>2014-10-19T15:06:34Z</time>
      </trkpt>
      <trkpt lat="46.26037" lon="5.9944">
        <ele>501.55</ele>
        <time>2014-10-19T15:06:35Z</time>
      </trkpt>
      <trkpt lat="46.26039" lon="5.99438">
        <ele>501.55</ele>
        <time>2014-10-19T15:06:36Z</time>
      </trkpt>
      <trkpt lat="46.26042" lon="5.99436">
        <ele>501.73</ele>
        <time>2014-10-19T15:06:37Z</time>
      </trkpt>
      <trkpt lat="46.26045" lon="5.99435">
        <ele>501.83</ele>
        <time>2014-10-19T15:06:38Z</time>
      </trkpt>
      <trkpt lat="46.26047" lon="5.99433">
        <ele>501.97</ele>
        <time>2014-10-19T15:06:39Z</time>
      </trkpt>
      <trkpt lat="46.26049" lon="5.99431">
        <ele>502.14</ele>
        <time>2014-10-19T15:06:40Z</time>
      </trkpt>
      <trkpt lat="46.26051" lon="5.99429">
        <ele>502.38</ele>
        <time>2014-10-19T15:06:41Z</time>
      </trkpt>
      <trkpt lat="46.26053" lon="5.99427">
        <ele>502.66</ele>
        <time>2014-10-19T15:06:42Z</time>
      </trkpt>
      <trkpt lat="46.26055" lon="5.99425">
        <ele>502.92</ele>
        <time>2014-10-19T15:06:43Z</time>
      </trkpt>
      <trkpt lat="46.26057" lon="5.99423">
        <ele>503.14</ele>
        <time>2014-10-19T15:06:44Z</time>
      </trkpt>
      <trkpt lat="46.26059" lon="5.99422">
        <ele>503.33</ele>
        <time>2014-10-19T15:06:45Z</time>
      </trkpt>
      <trkpt lat="46.26061" lon="5.9942">
        <ele>503.42</ele>
        <time>2014-10-19T15:06:46Z</time>
      </trkpt>
      <trkpt lat="46.26062" lon="5.99418">
        <ele>503.55</ele>
        <time>2014-10-19T15:06:47Z</time>
      </trkpt>
      <trkpt lat="46.26063" lon="5.99416">
        <ele>503.71</ele>
        <time>2014-10-19T15:06:48Z</time>
      </trkpt>
      <trkpt lat="46.26065" lon="5.99414">
        <ele>503.91</ele>
        <time>2014-10-19T15:06:49Z</time>
      </trkpt>
      <trkpt lat="46.26066" lon="5.99411">
        <ele>504.04</ele>
        <time>2014-10-19T15:06:50Z</time>
      </trkpt>
      <trkpt lat="46.26066" lon="5.99408">
        <ele>504.21</ele>
        <time>2014-10-19T15:06:51Z</time>
      </trkpt>
      <trkpt lat="46.26068" lon="5.99406">
        <ele>504.3</ele>
        <time>2014-10-19T15:06:52Z</time>
      </trkpt>
      <trkpt lat="46.26069" lon="5.99403">
        <ele>504.45</ele>
        <time>2014-10-19T15:06:53Z</time>
      </trkpt>
      <trkpt lat="46.2607" lon="5.99401">
        <ele>504.61</ele>
        <time>2014-10-19T15:06:54Z</time>
      </trkpt>
      <trkpt lat="46.26072" lon="5.99399">
        <ele>504.76</ele>
        <time>2014-10-19T15:06:55Z</time>
      </trkpt>
      <trkpt lat="46.26074" lon="5.99397">
        <ele>504.98</ele>
        <time>2014-10-19T15:06:56Z</time>
      </trkpt>
      <trkpt lat="46.26075" lon="5.99394">
        <ele>505.32</ele>
        <time>2014-10-19T15:06:57Z</time>
      </trkpt>
      <trkpt lat="46.26077" lon="5.99392">
        <ele>505.61</ele>
        <time>2014-10-19T15:06:58Z</time>
      </trkpt>
      <trkpt lat="46.2608" lon="5.9939">
        <ele>505.84</ele>
        <time>2014-10-19T15:06:59Z</time>
      </trkpt>
      <trkpt lat="46.26082" lon="5.99389">
        <ele>506.05</ele>
        <time>2014-10-19T15:07:00Z</time>
      </trkpt>
      <trkpt lat="46.26088" lon="5.99379">
        <ele>506.38</ele>
        <time>2014-10-19T15:07:04Z</time>
      </trkpt>
      <trkpt lat="46.26089" lon="5.99377">
        <ele>506.45</ele>
        <time>2014-10-19T15:07:05Z</time>
      </trkpt>
      <trkpt lat="46.26089" lon="5.99375">
        <ele>506.56</ele>
        <time>2014-10-19T15:07:06Z</time>
      </trkpt>
      <trkpt lat="46.26089" lon="5.99369">
        <ele>506.64</ele>
        <time>2014-10-19T15:07:08Z</time>
      </trkpt>
      <trkpt lat="46.26089" lon="5.99365">
        <ele>506.77</ele>
        <time>2014-10-19T15:07:09Z</time>
      </trkpt>
      <trkpt lat="46.26089" lon="5.99362">
        <ele>506.77</ele>
        <time>2014-10-19T15:07:10Z</time>
      </trkpt>
      <trkpt lat="46.26088" lon="5.99359">
        <ele>506.95</ele>
        <time>2014-10-19T15:07:11Z</time>
      </trkpt>
      <trkpt lat="46.26085" lon="5.99348">
        <ele>507.11</ele>
        <time>2014-10-19T15:07:14Z</time>
      </trkpt>
      <trkpt lat="46.26083" lon="5.99344">
        <ele>507.18</ele>
        <time>2014-10-19T15:07:15Z</time>
      </trkpt>
      <trkpt lat="46.2608" lon="5.99336">
        <ele>507.35</ele>
        <time>2014-10-19T15:07:17Z</time>
      </trkpt>
      <trkpt lat="46.26079" lon="5.99333">
        <ele>507.37</ele>
        <time>2014-10-19T15:07:18Z</time>
      </trkpt>
      <trkpt lat="46.26077" lon="5.99331">
        <ele>507.41</ele>
        <time>2014-10-19T15:07:19Z</time>
      </trkpt>
      <trkpt lat="46.26074" lon="5.99325">
        <ele>507.44</ele>
        <time>2014-10-19T15:07:21Z</time>
      </trkpt>
      <trkpt lat="46.26061" lon="5.993">
        <ele>507.77</ele>
        <time>2014-10-19T15:07:28Z</time>
      </trkpt>
      <trkpt lat="46.26059" lon="5.99297">
        <ele>507.76</ele>
        <time>2014-10-19T15:07:29Z</time>
      </trkpt>
      <trkpt lat="46.26056" lon="5.99294">
        <ele>507.79</ele>
        <time>2014-10-19T15:07:30Z</time>
      </trkpt>
      <trkpt lat="46.26054" lon="5.99291">
        <ele>507.8</ele>
        <time>2014-10-19T15:07:31Z</time>
      </trkpt>
      <trkpt lat="46.26051" lon="5.99288">
        <ele>507.8</ele>
        <time>2014-10-19T15:07:32Z</time>
      </trkpt>
      <trkpt lat="46.26049" lon="5.99284">
        <ele>507.8</ele>
        <time>2014-10-19T15:07:33Z</time>
      </trkpt>
      <trkpt lat="46.26047" lon="5.99281">
        <ele>507.79</ele>
        <time>2014-10-19T15:07:34Z</time>
      </trkpt>
      <trkpt lat="46.26037" lon="5.99271">
        <ele>507.81</ele>
        <time>2014-10-19T15:07:38Z</time>
      </trkpt>
      <trkpt lat="46.26035" lon="5.99269">
        <ele>507.95</ele>
        <time>2014-10-19T15:07:39Z</time>
      </trkpt>
      <trkpt lat="46.26032" lon="5.99267">
        <ele>508.14</ele>
        <time>2014-10-19T15:07:40Z</time>
      </trkpt>
      <trkpt lat="46.2603" lon="5.99264">
        <ele>508.3</ele>
        <time>2014-10-19T15:07:41Z</time>
      </trkpt>
      <trkpt lat="46.26027" lon="5.99262">
        <ele>508.3</ele>
        <time>2014-10-19T15:07:42Z</time>
      </trkpt>
      <trkpt lat="46.26024" lon="5.9926">
        <ele>508.39</ele>
        <time>2014-10-19T15:07:43Z</time>
      </trkpt>
      <trkpt lat="46.26021" lon="5.99257">
        <ele>508.42</ele>
        <time>2014-10-19T15:07:44Z</time>
      </trkpt>
      <trkpt lat="46.26013" lon="5.99251">
        <ele>508.35</ele>
        <time>2014-10-19T15:07:46Z</time>
      </trkpt>
      <trkpt lat="46.26009" lon="5.99249">
        <ele>508.11</ele>
        <time>2014-10-19T15:07:47Z</time>
      </trkpt>
      <trkpt lat="46.26004" lon="5.99247">
        <ele>507.88</ele>
        <time>2014-10-19T15:07:48Z</time>
      </trkpt>
      <trkpt lat="46.25999" lon="5.99246">
        <ele>507.73</ele>
        <time>2014-10-19T15:07:49Z</time>
      </trkpt>
      <trkpt lat="46.25994" lon="5.99244">
        <ele>507.59</ele>
        <time>2014-10-19T15:07:50Z</time>
      </trkpt>
      <trkpt lat="46.25988" lon="5.99243">
        <ele>507.43</ele>
        <time>2014-10-19T15:07:51Z</time>
      </trkpt>
      <trkpt lat="46.25977" lon="5.99241">
        <ele>506.92</ele>
        <time>2014-10-19T15:07:53Z</time>
      </trkpt>
      <trkpt lat="46.25967" lon="5.99234">
        <ele>506.41</ele>
        <time>2014-10-19T15:07:55Z</time>
      </trkpt>
      <trkpt lat="46.25961" lon="5.99232">
        <ele>506.2</ele>
        <time>2014-10-19T15:07:56Z</time>
      </trkpt>
      <trkpt lat="46.2595" lon="5.99231">
        <ele>505.81</ele>
        <time>2014-10-19T15:07:58Z</time>
      </trkpt>
      <trkpt lat="46.25943" lon="5.99231">
        <ele>505.71</ele>
        <time>2014-10-19T15:07:59Z</time>
      </trkpt>
      <trkpt lat="46.25937" lon="5.99228">
        <ele>505.59</ele>
        <time>2014-10-19T15:08:00Z</time>
      </trkpt>
      <trkpt lat="46.25932" lon="5.99223">
        <ele>505.4</ele>
        <time>2014-10-19T15:08:01Z</time>
      </trkpt>
      <trkpt lat="46.25927" lon="5.99217">
        <ele>505.11</ele>
        <time>2014-10-19T15:08:02Z</time>
      </trkpt>
      <trkpt lat="46.25903" lon="5.99186">
        <ele>504.5</ele>
        <time>2014-10-19T15:08:08Z</time>
      </trkpt>
      <trkpt lat="46.25875" lon="5.99149">
        <ele>505.07</ele>
        <time>2014-10-19T15:08:16Z</time>
      </trkpt>
      <trkpt lat="46.25839" lon="5.99106">
        <ele>505.52</ele>
        <time>2014-10-19T15:08:27Z</time>
      </trkpt>
      <trkpt lat="46.25835" lon="5.99094">
        <ele>505.74</ele>
        <time>2014-10-19T15:08:30Z</time>
      </trkpt>
      <trkpt lat="46.25836" lon="5.9909">
        <ele>505.76</ele>
        <time>2014-10-19T15:08:31Z</time>
      </trkpt>
      <trkpt lat="46.25837" lon="5.99087">
        <ele>505.83</ele>
        <time>2014-10-19T15:08:32Z</time>
      </trkpt>
      <trkpt lat="46.25839" lon="5.99084">
        <ele>505.87</ele>
        <time>2014-10-19T15:08:33Z</time>
      </trkpt>
      <trkpt lat="46.25841" lon="5.99081">
        <ele>505.98</ele>
        <time>2014-10-19T15:08:34Z</time>
      </trkpt>
      <trkpt lat="46.25844" lon="5.99077">
        <ele>506.17</ele>
        <time>2014-10-19T15:08:35Z</time>
      </trkpt>
      <trkpt lat="46.25846" lon="5.99074">
        <ele>506.33</ele>
        <time>2014-10-19T15:08:36Z</time>
      </trkpt>
      <trkpt lat="46.25866" lon="5.99044">
        <ele>507.63</ele>
        <time>2014-10-19T15:08:45Z</time>
      </trkpt>
      <trkpt lat="46.25882" lon="5.99022">
        <ele>509.05</ele>
        <time>2014-10-19T15:08:52Z</time>
      </trkpt>
      <trkpt lat="46.25887" lon="5.99017">
        <ele>509.75</ele>
        <time>2014-10-19T15:08:54Z</time>
      </trkpt>
      <trkpt lat="46.25889" lon="5.99015">
        <ele>509.73</ele>
        <time>2014-10-19T15:08:55Z</time>
      </trkpt>
      <trkpt lat="46.25891" lon="5.99012">
        <ele>509.92</ele>
        <time>2014-10-19T15:08:56Z</time>
      </trkpt>
      <trkpt lat="46.25893" lon="5.99009">
        <ele>510.08</ele>
        <time>2014-10-19T15:08:57Z</time>
      </trkpt>
      <trkpt lat="46.25895" lon="5.99006">
        <ele>510.38</ele>
        <time>2014-10-19T15:08:58Z</time>
      </trkpt>
      <trkpt lat="46.25896" lon="5.99003">
        <ele>510.7</ele>
        <time>2014-10-19T15:08:59Z</time>
      </trkpt>
      <trkpt lat="46.25897" lon="5.99">
        <ele>510.95</ele>
        <time>2014-10-19T15:09:00Z</time>
      </trkpt>
      <trkpt lat="46.25898" lon="5.98997">
        <ele>511.14</ele>
        <time>2014-10-19T15:09:01Z</time>
      </trkpt>
      <trkpt lat="46.259" lon="5.98991">
        <ele>511.48</ele>
        <time>2014-10-19T15:09:03Z</time>
      </trkpt>
      <trkpt lat="46.259" lon="5.98988">
        <ele>511.76</ele>
        <time>2014-10-19T15:09:04Z</time>
      </trkpt>
      <trkpt lat="46.259" lon="5.98985">
        <ele>512.11</ele>
        <time>2014-10-19T15:09:05Z</time>
      </trkpt>
      <trkpt lat="46.259" lon="5.98979">
        <ele>512.44</ele>
        <time>2014-10-19T15:09:07Z</time>
      </trkpt>
    </trkseg>
  </trk>
</gpx>